[[{"header":{"parameterUnit":"m.s-1","parameterCategory":1,"la1":30.6,"la2":29.2853,"lo1":-89.7004,"lo2":-87.6739,"dy":0.0162,"dx":0.0183,"nx":112,"ny":82,"refTime":"2023-08-05T12:00:00:Z","depth":0,"parameterNumber":2,"parameterNumberName":"U-component_of_WINDS"},"data":[0.0,0.0,0.0,0.0,0.0,0.0,0.0,0.0,0.0,0.0,0.0,0.0,0.0,0.0,0.0,0.0,0.0,0.0,0.0,0.0,0.0,0.0,0.0,0.0,0.0,0.0,0.0,0.0,0.0,0.0,0.0,0.0,0.0,0.0,0.0,0.0,0.0,0.0,0.0,0.0,0.0,0.0,0.0,0.0,0.0,0.0,0.0,0.0,0.0,0.0,0.0,0.0,0.0,0.0,0.0,0.0,0.0,0.0,0.0,0.0,0.0,0.0,0.0,0.0,0.0,0.0,0.0,0.0,0.0,0.0,0.0,0.0,0.0,0.0,0.0,0.0,0.0,0.0,0.0,0.0,0.0,0.0,0.0,0.0,0.0,0.0,0.0,0.0,0.0,0.0,-4.2525,-4.2893,-4.4664,-4.5798,-4.5798,-4.5218,-4.414,-4.2446,0.0,0.0,0.0,0.0,0.0,0.0,0.0,0.0,0.0,0.0,0.0,0.0,0.0,0.0,0.0,0.0,0.0,0.0,0.0,0.0,0.0,0.0,0.0,0.0,0.0,0.0,0.0,0.0,0.0,0.0,0.0,0.0,0.0,0.0,0.0,0.0,0.0,0.0,0.0,0.0,0.0,0.0,0.0,0.0,0.0,0.0,0.0,0.0,0.0,0.0,0.0,0.0,0.0,0.0,0.0,0.0,0.0,0.0,0.0,0.0,0.0,0.0,0.0,0.0,0.0,0.0,0.0,0.0,0.0,0.0,0.0,0.0,0.0,0.0,0.0,0.0,0.0,0.0,0.0,0.0,0.0,0.0,0.0,0.0,0.0,0.0,0.0,0.0,0.0,0.0,0.0,0.0,0.0,0.0,0.0,0.0,0.0,0.0,0.0,0.0,0.0,0.0,0.0,0.0,-4.3024,-4.5069,-4.5586,-4.5798,-4.5798,-4.5682,-4.4879,-4.3152,0.0,0.0,0.0,0.0,0.0,0.0,0.0,0.0,0.0,0.0,0.0,0.0,0.0,0.0,0.0,0.0,0.0,0.0,0.0,0.0,0.0,0.0,0.0,0.0,0.0,0.0,0.0,0.0,0.0,0.0,0.0,0.0,0.0,0.0,0.0,0.0,0.0,0.0,0.0,0.0,0.0,0.0,0.0,0.0,0.0,0.0,0.0,0.0,0.0,0.0,0.0,0.0,0.0,0.0,0.0,0.0,0.0,0.0,0.0,0.0,0.0,0.0,0.0,0.0,0.0,0.0,0.0,0.0,0.0,0.0,0.0,0.0,0.0,0.0,0.0,0.0,0.0,0.0,0.0,0.0,0.0,0.0,0.0,0.0,0.0,0.0,0.0,0.0,0.0,0.0,0.0,0.0,0.0,0.0,0.0,0.0,0.0,0.0,0.0,0.0,0.0,0.0,0.0,-4.3615,-4.4673,-4.6778,-4.699,-4.699,-4.699,-4.6626,-4.5814,-4.4436,-4.3023,0.0,0.0,0.0,0.0,0.0,0.0,0.0,0.0,0.0,0.0,0.0,0.0,0.0,0.0,0.0,0.0,0.0,0.0,0.0,0.0,0.0,0.0,0.0,0.0,0.0,0.0,0.0,0.0,0.0,0.0,0.0,0.0,0.0,0.0,0.0,0.0,0.0,0.0,0.0,0.0,0.0,0.0,0.0,0.0,0.0,0.0,0.0,0.0,0.0,0.0,0.0,0.0,0.0,0.0,0.0,0.0,0.0,0.0,0.0,0.0,0.0,0.0,0.0,0.0,0.0,0.0,0.0,0.0,0.0,0.0,0.0,0.0,0.0,0.0,0.0,0.0,0.0,0.0,0.0,0.0,0.0,0.0,0.0,0.0,0.0,0.0,0.0,0.0,0.0,0.0,0.0,0.0,0.0,0.0,0.0,0.0,0.0,0.0,0.0,0.0,0.0,0.0,-4.5377,-4.648,-4.7836,-4.8001,-4.8001,-4.8001,-4.7487,-4.6635,-4.5399,-4.4145,0.0,0.0,0.0,0.0,0.0,0.0,0.0,0.0,0.0,0.0,0.0,0.0,0.0,0.0,0.0,0.0,0.0,0.0,0.0,0.0,0.0,0.0,0.0,0.0,0.0,0.0,0.0,0.0,0.0,0.0,0.0,0.0,0.0,0.0,0.0,0.0,0.0,0.0,0.0,0.0,0.0,0.0,0.0,0.0,0.0,0.0,0.0,0.0,0.0,0.0,0.0,0.0,0.0,0.0,0.0,0.0,0.0,0.0,0.0,0.0,0.0,0.0,0.0,0.0,0.0,0.0,0.0,0.0,0.0,0.0,0.0,0.0,0.0,0.0,0.0,0.0,0.0,0.0,0.0,0.0,0.0,0.0,0.0,0.0,0.0,0.0,0.0,0.0,0.0,0.0,0.0,0.0,0.0,0.0,0.0,0.0,0.0,0.0,0.0,0.0,0.0,0.0,-4.673,-4.7869,-4.8001,-4.8001,-4.8001,-4.8001,-4.7951,-4.7177,-4.5415,-4.4609,0.0,0.0,0.0,0.0,0.0,0.0,0.0,0.0,0.0,0.0,0.0,0.0,0.0,0.0,0.0,0.0,0.0,0.0,0.0,0.0,0.0,0.0,0.0,0.0,0.0,0.0,0.0,0.0,0.0,0.0,0.0,0.0,0.0,0.0,0.0,0.0,0.0,0.0,0.0,0.0,0.0,0.0,0.0,0.0,0.0,0.0,0.0,0.0,0.0,0.0,0.0,0.0,0.0,0.0,0.0,0.0,0.0,0.0,0.0,0.0,0.0,0.0,0.0,0.0,0.0,0.0,0.0,0.0,0.0,0.0,0.0,0.0,0.0,0.0,0.0,0.0,0.0,0.0,0.0,0.0,0.0,0.0,0.0,0.0,0.0,0.0,0.0,0.0,0.0,0.0,0.0,0.0,0.0,0.0,0.0,0.0,0.0,0.0,0.0,0.0,0.0,0.0,-4.6543,-4.7588,-4.7968,-4.8001,-4.8001,-4.8001,-4.8001,-4.7423,-4.6022,0.0,0.0,0.0,0.0,0.0,0.0,0.0,0.0,0.0,0.0,0.0,0.0,0.0,0.0,0.0,0.0,0.0,0.0,0.0,0.0,0.0,0.0,0.0,0.0,0.0,0.0,0.0,0.0,0.0,0.0,0.0,0.0,0.0,0.0,0.0,0.0,0.0,0.0,0.0,0.0,0.0,0.0,0.0,0.0,0.0,0.0,0.0,0.0,0.0,0.0,0.0,0.0,0.0,0.0,0.0,0.0,0.0,0.0,0.0,0.0,0.0,0.0,0.0,0.0,0.0,0.0,0.0,0.0,0.0,0.0,0.0,0.0,0.0,0.0,0.0,0.0,0.0,0.0,0.0,0.0,0.0,0.0,0.0,0.0,0.0,0.0,0.0,0.0,0.0,0.0,0.0,0.0,0.0,0.0,0.0,0.0,0.0,0.0,0.0,0.0,0.0,0.0,-4.552,-4.6655,-4.7555,-4.7968,-4.8001,-4.8001,-4.8001,-4.8001,-4.7504,-4.6356,0.0,0.0,0.0,0.0,0.0,0.0,0.0,0.0,0.0,0.0,0.0,0.0,0.0,0.0,0.0,0.0,0.0,0.0,0.0,0.0,0.0,0.0,0.0,0.0,0.0,0.0,0.0,0.0,0.0,0.0,0.0,0.0,0.0,0.0,0.0,0.0,0.0,0.0,0.0,0.0,0.0,0.0,0.0,0.0,0.0,0.0,0.0,0.0,0.0,0.0,0.0,0.0,0.0,0.0,0.0,0.0,0.0,0.0,0.0,0.0,0.0,0.0,0.0,0.0,0.0,0.0,0.0,0.0,0.0,0.0,0.0,0.0,0.0,0.0,0.0,0.0,0.0,0.0,0.0,0.0,0.0,0.0,0.0,0.0,0.0,0.0,0.0,0.0,0.0,0.0,0.0,0.0,0.0,0.0,0.0,0.0,0.0,0.0,0.0,0.0,0.0,0.0,-4.624,-4.7302,-4.8001,-4.8001,-4.8001,-4.8001,-4.8001,-4.8001,-4.7504,0.0,0.0,0.0,0.0,0.0,0.0,0.0,0.0,0.0,0.0,0.0,0.0,0.0,0.0,0.0,0.0,0.0,0.0,0.0,0.0,0.0,0.0,0.0,0.0,0.0,0.0,0.0,0.0,0.0,0.0,0.0,0.0,0.0,0.0,0.0,0.0,0.0,0.0,0.0,0.0,0.0,0.0,0.0,0.0,0.0,0.0,0.0,0.0,0.0,0.0,0.0,0.0,0.0,0.0,0.0,0.0,0.0,0.0,0.0,0.0,0.0,0.0,0.0,0.0,0.0,0.0,0.0,0.0,0.0,0.0,0.0,0.0,0.0,0.0,0.0,0.0,0.0,0.0,0.0,0.0,0.0,0.0,0.0,0.0,0.0,0.0,0.0,0.0,0.0,0.0,0.0,0.0,0.0,0.0,0.0,0.0,0.0,0.0,0.0,0.0,0.0,0.0,0.0,-4.6877,-4.7596,-4.8001,-4.8001,-4.8001,-4.8001,-4.8001,-4.8001,-4.7718,-4.7041,0.0,0.0,0.0,0.0,0.0,0.0,0.0,0.0,0.0,0.0,0.0,0.0,0.0,0.0,0.0,0.0,0.0,0.0,0.0,0.0,0.0,0.0,0.0,0.0,0.0,0.0,0.0,0.0,0.0,0.0,0.0,0.0,0.0,0.0,0.0,0.0,0.0,0.0,0.0,0.0,0.0,0.0,0.0,0.0,0.0,0.0,0.0,0.0,0.0,0.0,0.0,0.0,0.0,0.0,0.0,0.0,0.0,0.0,0.0,0.0,0.0,0.0,0.0,0.0,0.0,0.0,0.0,0.0,0.0,0.0,0.0,0.0,0.0,0.0,0.0,0.0,0.0,0.0,0.0,0.0,0.0,0.0,0.0,0.0,0.0,0.0,0.0,0.0,0.0,0.0,0.0,0.0,0.0,0.0,0.0,0.0,0.0,0.0,0.0,0.0,0.0,0.0,-4.7229,-4.7954,-4.8448,-4.8448,-4.8713,-4.8763,-4.8465,-4.8448,-4.8098,-4.7265,0.0,0.0,0.0,0.0,0.0,0.0,0.0,0.0,0.0,0.0,0.0,0.0,0.0,0.0,0.0,0.0,0.0,0.0,0.0,0.0,0.0,0.0,0.0,0.0,0.0,0.0,0.0,0.0,0.0,0.0,0.0,0.0,0.0,0.0,0.0,0.0,0.0,0.0,0.0,0.0,0.0,0.0,0.0,0.0,0.0,0.0,0.0,0.0,0.0,0.0,0.0,0.0,0.0,0.0,0.0,0.0,0.0,0.0,0.0,0.0,0.0,0.0,0.0,0.0,0.0,0.0,0.0,0.0,0.0,0.0,0.0,0.0,0.0,0.0,0.0,0.0,0.0,0.0,0.0,0.0,0.0,0.0,0.0,0.0,0.0,0.0,0.0,0.0,0.0,0.0,0.0,0.0,0.0,0.0,0.0,0.0,0.0,0.0,0.0,0.0,0.0,0.0,-4.7533,-4.8476,-4.921,-4.921,-4.9806,-4.9939,-4.9276,-4.9144,-4.8578,-4.738,0.0,0.0,0.0,0.0,0.0,0.0,0.0,0.0,0.0,0.0,0.0,0.0,0.0,0.0,0.0,0.0,0.0,0.0,0.0,0.0,0.0,0.0,0.0,0.0,0.0,0.0,0.0,0.0,0.0,0.0,0.0,0.0,0.0,0.0,0.0,0.0,0.0,0.0,0.0,0.0,0.0,0.0,0.0,0.0,0.0,0.0,0.0,0.0,0.0,0.0,0.0,0.0,0.0,0.0,0.0,0.0,0.0,0.0,0.0,0.0,-4.4674,-4.3443,0.0,0.0,0.0,0.0,0.0,0.0,0.0,0.0,0.0,0.0,0.0,0.0,0.0,0.0,0.0,0.0,0.0,0.0,0.0,0.0,0.0,0.0,0.0,0.0,0.0,0.0,0.0,0.0,0.0,0.0,0.0,0.0,0.0,0.0,0.0,0.0,0.0,0.0,0.0,0.0,-4.8888,-4.9537,-4.9988,-4.9988,-5.0121,-5.0154,-4.9988,-4.9442,-4.8989,-4.8779,-4.7744,0.0,0.0,0.0,0.0,0.0,0.0,0.0,0.0,0.0,0.0,0.0,0.0,0.0,0.0,0.0,0.0,0.0,0.0,0.0,0.0,0.0,0.0,0.0,0.0,0.0,0.0,0.0,0.0,0.0,0.0,0.0,0.0,0.0,0.0,0.0,0.0,0.0,0.0,0.0,0.0,0.0,0.0,0.0,0.0,0.0,0.0,0.0,0.0,0.0,0.0,0.0,0.0,0.0,0.0,0.0,0.0,0.0,0.0,0.0,-4.665,-4.5995,0.0,0.0,0.0,0.0,0.0,0.0,0.0,0.0,0.0,0.0,0.0,0.0,0.0,0.0,0.0,0.0,0.0,0.0,0.0,0.0,0.0,0.0,0.0,0.0,0.0,0.0,0.0,0.0,0.0,0.0,0.0,0.0,0.0,0.0,0.0,0.0,0.0,0.0,0.0,0.0,-4.9367,-5.0157,-5.0734,-5.0734,-5.1048,-5.1115,-5.075,-5.0369,-5.0017,-4.9705,-4.8688,0.0,0.0,0.0,0.0,0.0,0.0,0.0,0.0,0.0,0.0,0.0,0.0,0.0,0.0,0.0,0.0,0.0,0.0,0.0,0.0,0.0,0.0,0.0,0.0,0.0,0.0,0.0,0.0,0.0,0.0,0.0,0.0,0.0,0.0,0.0,0.0,0.0,0.0,0.0,0.0,0.0,0.0,0.0,0.0,0.0,0.0,0.0,0.0,0.0,0.0,0.0,0.0,0.0,-4.7718,-4.7818,-4.7932,-4.7932,-4.8431,-4.9232,-4.8624,-4.8592,-4.8823,-4.7201,0.0,0.0,0.0,0.0,0.0,0.0,0.0,0.0,0.0,0.0,0.0,0.0,0.0,0.0,0.0,0.0,0.0,0.0,0.0,0.0,0.0,0.0,-4.7965,-4.7965,-4.8049,-4.7737,-4.6307,0.0,0.0,0.0,0.0,0.0,0.0,0.0,0.0,0.0,0.0,0.0,-4.9796,-5.0772,-5.1498,-5.1498,-5.2061,-5.2161,-5.1547,-5.1382,-5.1032,-5.0436,-4.977,-4.9042,0.0,0.0,0.0,0.0,0.0,0.0,0.0,0.0,0.0,0.0,0.0,0.0,0.0,0.0,0.0,0.0,0.0,0.0,0.0,0.0,0.0,0.0,0.0,0.0,0.0,0.0,0.0,0.0,0.0,0.0,0.0,0.0,-4.1719,-4.2545,0.0,0.0,0.0,0.0,0.0,0.0,0.0,0.0,0.0,0.0,0.0,0.0,0.0,-4.7923,-4.8558,-4.9023,-4.9597,-5.0235,-5.0554,-5.1076,-5.1688,-5.1688,-5.1789,-5.1907,-5.1808,0.0,-4.9471,-4.922,0.0,0.0,0.0,0.0,0.0,0.0,0.0,0.0,0.0,0.0,0.0,0.0,0.0,0.0,0.0,0.0,0.0,0.0,0.0,0.0,0.0,0.0,-4.9854,-4.9854,-4.9854,-4.9804,-4.9572,-4.8718,-4.8158,-4.8661,-4.8799,-4.8929,0.0,0.0,0.0,0.0,0.0,0.0,-5.1171,-5.178,-5.2224,-5.2224,-5.2359,-5.2376,-5.2277,-5.168,-5.1265,-5.1166,-5.0466,-4.969,-4.8855,-4.8388,0.0,0.0,0.0,0.0,0.0,0.0,0.0,0.0,0.0,0.0,0.0,0.0,0.0,0.0,0.0,0.0,0.0,0.0,0.0,0.0,0.0,0.0,0.0,0.0,0.0,0.0,0.0,0.0,0.0,-4.1026,-4.1793,-4.2285,-4.2318,-4.1916,0.0,0.0,0.0,0.0,0.0,0.0,0.0,0.0,0.0,-4.917,-4.931,-4.9828,-5.0812,-5.1043,-5.135,-5.168,-5.1822,-5.2111,-5.2409,-5.2409,-5.2409,-5.2409,-5.2409,-5.1938,-5.1117,-5.0492,-4.9831,-4.9219,0.0,0.0,0.0,0.0,-4.8476,-4.8646,-4.9247,-4.9449,-4.9467,-4.9793,0.0,0.0,0.0,0.0,0.0,0.0,0.0,-4.9634,-4.986,-4.9981,-5.0066,-5.0169,-5.022,-5.032,-5.0734,-5.0378,-4.9986,-5.0014,-4.9685,-4.9603,-5.0174,-5.0418,0.0,0.0,0.0,-5.1518,-5.1434,-5.2,-5.2409,-5.2409,-5.2409,-5.2409,-5.2409,-5.2111,-5.1928,-5.1928,-5.1214,-5.0644,-5.0244,-4.917,-4.8232,0.0,0.0,0.0,0.0,0.0,0.0,0.0,0.0,0.0,0.0,0.0,0.0,0.0,0.0,0.0,0.0,0.0,0.0,0.0,0.0,0.0,0.0,0.0,0.0,0.0,0.0,0.0,0.0,-4.2326,-4.267,-4.2664,-4.3583,-4.3757,0.0,0.0,0.0,0.0,0.0,0.0,-4.8228,-4.8853,-4.9742,-5.0893,-5.109,-5.1648,-5.2638,-5.2837,-5.2937,-5.2937,-5.2937,-5.2937,-5.2937,-5.2937,-5.2937,-5.2937,-5.2937,-5.2937,-5.2854,-5.1641,-5.1083,-5.091,-5.0278,-4.9975,-4.9975,-5.0085,-5.0192,-5.0345,-5.11,-5.1006,-5.0624,-5.1117,-5.09,-5.0385,-5.0279,0.0,0.0,0.0,0.0,-5.0279,-5.049,-5.0542,-5.0577,-5.0732,-5.0899,-5.1181,-5.1711,-5.1853,-5.1726,-5.1221,-5.0745,-5.0537,-5.1062,-5.1183,0.0,-5.0946,-5.1482,-5.1911,-5.1917,-5.2518,-5.2937,-5.2937,-5.2937,-5.2854,-5.2655,-5.2655,-5.2572,-5.239,-5.1895,-5.1514,-5.1315,-5.014,-4.9096,-4.8171,0.0,0.0,0.0,0.0,0.0,0.0,0.0,0.0,0.0,0.0,0.0,0.0,0.0,0.0,0.0,0.0,0.0,0.0,0.0,0.0,0.0,0.0,0.0,0.0,0.0,0.0,0.0,0.0,0.0,-4.5393,-4.6295,0.0,0.0,0.0,0.0,-4.7385,-4.8059,-4.8985,-5.018,-5.0297,-5.0926,-5.2255,-5.2917,-5.3281,-5.3367,-5.4026,-5.4374,-5.4374,-5.4374,-5.4374,-5.4374,-5.4374,-5.4374,-5.4374,-5.4374,-5.4374,-5.4311,-5.2904,-5.2109,-5.1765,-5.1696,-5.157,-5.1438,-5.1606,-5.1789,-5.2004,-5.2236,-5.2307,-5.2238,-5.2109,-5.1895,-5.1753,-5.1915,-5.1826,0.0,0.0,-5.1951,-5.2023,-5.2238,-5.2258,-5.2274,-5.2274,-5.2788,-5.3268,-5.3301,-5.3386,-5.3242,-5.2481,-5.2288,-5.2161,-5.1811,0.0,-5.2199,-5.1815,-5.2698,-5.3384,-5.3287,-5.3943,-5.4374,-5.4374,-5.4374,-5.4129,-5.3417,-5.3367,-5.3086,-5.2423,-5.2393,-5.2045,-5.1348,-5.1231,-5.0448,-4.888,-4.8828,0.0,0.0,0.0,0.0,0.0,0.0,0.0,0.0,0.0,0.0,0.0,0.0,0.0,0.0,0.0,0.0,0.0,0.0,0.0,0.0,0.0,0.0,0.0,0.0,0.0,0.0,0.0,0.0,-4.5687,-4.7456,0.0,-4.741,-4.8677,-4.9554,-4.9554,-5.0474,-5.1412,-5.2284,-5.2333,-5.2788,-5.3732,-5.3997,-5.4129,-5.4129,-5.4357,-5.449,-5.449,-5.449,-5.449,-5.449,-5.449,-5.449,-5.449,-5.449,-5.449,-5.4477,-5.3964,-5.3691,-5.3527,-5.3527,-5.349,-5.3416,-5.349,-5.3564,-5.3638,-5.3728,-5.3748,-5.3765,-5.3691,-5.3601,-5.3564,-5.3618,-5.3601,-5.3564,-5.3618,-5.3655,-5.3655,-5.3712,-5.3748,-5.3748,-5.3748,-5.3947,-5.4129,-5.4129,-5.4142,-5.4084,-5.3827,-5.3437,-5.3269,-5.3536,-5.3683,-5.3715,-5.3623,-5.3896,-5.4133,-5.4125,-5.4324,-5.449,-5.449,-5.449,-5.4374,-5.4146,-5.4129,-5.3814,-5.3086,-5.3036,-5.2721,-5.2061,-5.1564,-5.1026,-5.0465,-4.9969,-4.915,0.0,0.0,0.0,0.0,0.0,0.0,0.0,0.0,0.0,0.0,0.0,0.0,0.0,0.0,0.0,0.0,0.0,0.0,0.0,0.0,0.0,0.0,0.0,0.0,0.0,0.0,-4.7204,-4.6399,-4.8607,-4.978,-4.8777,-5.0265,-5.1372,-5.1602,-5.2296,-5.3036,-5.3748,-5.3745,-5.4013,-5.4456,-5.4721,-5.4854,-5.4854,-5.514,-5.5256,-5.5256,-5.5256,-5.5256,-5.5256,-5.5256,-5.5256,-5.5256,-5.5256,-5.5256,-5.5256,-5.5256,-5.5256,-5.5206,-5.4709,-5.449,-5.449,-5.449,-5.449,-5.449,-5.449,-5.449,-5.449,-5.449,-5.449,-5.449,-5.449,-5.449,-5.449,-5.449,-5.449,-5.449,-5.449,-5.449,-5.449,-5.449,-5.4672,-5.4854,-5.4854,-5.509,-5.5256,-5.5256,-5.454,-5.4022,-5.4475,-5.4524,-5.4533,-5.4551,-5.4755,-5.4861,-5.4848,-5.5088,-5.5256,-5.5256,-5.5256,-5.5156,-5.487,-5.4649,-5.4336,-5.3794,-5.3313,-5.2966,-5.2754,-5.199,-5.1467,-5.1204,-5.0462,-4.9668,-4.8757,0.0,0.0,0.0,0.0,0.0,0.0,0.0,0.0,0.0,0.0,0.0,0.0,0.0,0.0,0.0,0.0,0.0,0.0,0.0,0.0,0.0,0.0,0.0,-4.6154,-4.6927,-4.7679,-4.7809,-4.9899,-5.1105,-5.0536,-5.1674,-5.2705,-5.34,-5.345,-5.3781,-5.4473,-5.4506,-5.4523,-5.4593,-5.5251,-5.5615,-5.5615,-5.6349,-5.6697,-5.6713,-5.6713,-5.673,-5.6763,-5.6763,-5.6763,-5.6763,-5.6763,-5.6746,-5.6713,-5.6713,-5.6713,-5.6547,-5.514,-5.4593,-5.4593,-5.4593,-5.4593,-5.4593,-5.4593,-5.4593,-5.4593,-5.4593,-5.4593,-5.4593,-5.4593,-5.4593,-5.4593,-5.4593,-5.4593,-5.4593,-5.4593,-5.4593,-5.4593,-5.4593,-5.5102,-5.5615,-5.5615,-5.62,-5.668,-5.668,-5.5554,-5.4593,-5.4593,-5.4593,-5.4583,-5.4584,-5.5199,0.0,-5.5643,-5.6274,-5.6697,-5.6713,-5.6713,-5.6393,-5.5714,-5.5021,-5.4632,-5.4518,-5.3236,-5.2789,-5.3381,-5.2606,-5.1793,-5.1081,-5.0332,-4.9636,-4.8977,0.0,0.0,0.0,0.0,0.0,0.0,0.0,0.0,0.0,0.0,0.0,0.0,0.0,0.0,0.0,0.0,0.0,0.0,0.0,0.0,0.0,0.0,-4.8277,-4.803,-4.9303,-5.0263,-5.0305,-5.139,-5.2222,-5.2538,-5.293,-5.3434,-5.4162,-5.4175,-5.4506,-5.5251,-5.5284,-5.5554,-5.6067,-5.6282,-5.6398,-5.6398,-5.6581,-5.6962,-5.7492,-5.7492,-5.7773,-5.8303,-5.8303,-5.8303,-5.8303,-5.8303,-5.7988,-5.7492,-5.7492,-5.7177,-5.6647,-5.6249,-5.61,-5.61,-5.61,-5.61,-5.61,-5.61,-5.61,-5.61,-5.61,-5.61,-5.61,-5.61,-5.61,-5.61,-5.61,-5.61,-5.61,-5.61,-5.61,-5.61,-5.61,-5.6249,-5.6398,-5.6398,-5.6547,-5.668,-5.668,-5.6365,-5.61,-5.61,-5.61,-5.6112,-5.6117,-5.6266,-5.6388,-5.6414,-5.6564,-5.6684,-5.6717,-5.6686,-5.662,-5.6424,-5.623,-5.5868,-5.5312,-5.4918,-5.4324,-5.343,-5.3181,-5.2741,-5.2033,-5.1185,-5.0676,0.0,0.0,0.0,0.0,0.0,0.0,0.0,0.0,0.0,0.0,0.0,0.0,0.0,0.0,0.0,0.0,0.0,0.0,0.0,0.0,0.0,0.0,-4.8836,-4.9864,-5.0248,-5.0881,-5.1531,-5.2092,-5.2556,-5.3086,-5.3814,-5.3881,-5.4195,-5.4887,-5.4936,-5.5267,-5.6034,-5.6067,-5.6266,-5.668,-5.6995,-5.7144,-5.7144,-5.7458,-5.7823,-5.8253,-5.8253,-5.8485,-5.8899,-5.8899,-5.8899,-5.8899,-5.8899,-5.8651,-5.8253,-5.8253,-5.8005,-5.7558,0.0,0.0,0.0,0.0,-5.668,-5.668,-5.668,-5.668,-5.668,-5.668,-5.668,-5.668,-5.668,-5.668,-5.668,-5.668,-5.668,-5.668,-5.668,-5.668,-5.668,-5.668,-5.668,-5.668,-5.668,-5.668,-5.668,-5.668,-5.668,0.0,-5.668,-5.668,-5.6702,-5.6685,-5.6723,-5.6718,-5.6685,-5.6707,-5.669,-5.669,-5.6699,-5.6699,-5.6699,-5.6458,0.0,0.0,0.0,-5.475,-5.3803,-5.3492,0.0,0.0,0.0,-5.1431,-5.1161,-5.0686,0.0,0.0,-4.8636,-4.8632,0.0,0.0,0.0,0.0,0.0,0.0,0.0,0.0,0.0,0.0,0.0,0.0,0.0,0.0,0.0,0.0,-5.0723,-5.1779,-5.2407,-5.2009,-5.2075,-5.3268,-5.3483,-5.3831,-5.4539,-5.4605,-5.492,-5.5648,-5.5698,-5.6017,-5.6663,-5.6763,0.0,0.0,0.0,-5.7922,-5.7922,-5.8568,-5.8933,-5.9015,-5.9015,-5.9065,-5.9148,-5.9148,-5.9148,-5.9148,-5.9148,-5.9098,-5.9015,-5.9015,-5.8982,-5.8767,-5.7442,-5.6895,-5.6812,-5.6812,-5.6763,-5.668,-5.668,0.0,0.0,-5.668,-5.668,-5.668,-5.668,-5.668,-5.668,-5.668,-5.668,-5.668,-5.668,-5.668,-5.668,-5.668,-5.668,-5.668,-5.668,-5.668,-5.668,-5.668,-5.668,-5.668,-5.668,-5.668,-5.6701,-5.6686,-5.6685,-5.6717,-5.6703,-5.6725,-5.6713,-5.6718,-5.6679,0.0,-5.6679,-5.6151,-5.6095,-5.6658,-5.5427,-5.4626,-5.4451,-5.3746,-5.3302,-5.3204,-5.2588,-5.199,-5.1431,-5.1431,-5.1082,-5.0451,-5.0027,-4.9923,0.0,0.0,0.0,0.0,0.0,0.0,0.0,0.0,0.0,0.0,0.0,0.0,0.0,0.0,0.0,-4.9655,-5.1548,-5.3053,-5.3202,-5.3616,-5.3765,-5.345,-5.3947,-5.4556,-5.5301,-5.5367,-5.5703,-5.6432,-5.6481,-5.6547,-5.668,-5.7243,-5.7574,-5.7574,-5.8303,-5.8684,-5.8684,-5.8817,-5.9198,-5.9794,-5.9794,0.0,-6.0672,-6.0672,-6.0672,-6.0672,-6.0672,-6.034,-5.9794,-5.9794,-5.9446,-5.8866,-5.8585,-5.8104,-5.7574,-5.7574,-5.7193,-5.668,-5.668,-5.668,-5.668,-5.668,-5.668,-5.668,-5.668,-5.668,0.0,-5.668,-5.668,-5.668,-5.668,-5.668,-5.668,-5.668,-5.668,-5.668,-5.668,-5.668,-5.668,-5.668,-5.668,-5.668,-5.668,-5.668,-5.6691,-5.6707,-5.6702,-5.6691,-5.6723,-5.6685,-5.6701,-5.6718,-5.6703,-5.6703,-5.6703,-5.6564,-5.6579,-5.6674,-5.5903,-5.5375,-5.5336,-5.4628,-5.3968,-5.3358,-5.321,-5.2841,-5.221,-5.221,-5.2127,-5.1943,-5.07,-5.0136,0.0,0.0,0.0,0.0,0.0,0.0,0.0,0.0,0.0,0.0,0.0,-4.7157,0.0,0.0,-5.0171,-5.1364,-5.2597,-5.3549,-5.3914,-5.461,-5.4887,-5.4523,-5.4821,-5.5355,-5.6084,-5.615,-5.6299,-5.6663,-5.668,-5.6846,-5.7227,-5.7591,-5.7972,-5.8336,-5.9065,-5.9446,-5.9446,-5.9827,-6.0191,-6.0556,-6.0556,-6.0755,-6.1102,-6.1102,-6.1102,-6.1102,-6.1102,-6.0904,-6.0556,-6.0556,-6.034,-6.0009,-6.0009,-5.9314,-5.8353,-5.8353,-5.8104,-5.774,-5.7376,-5.7243,-5.7177,-5.6812,-5.668,-5.668,-5.668,-5.668,-5.668,-5.668,-5.668,-5.668,-5.668,-5.668,-5.668,-5.668,-5.668,-5.668,-5.668,-5.668,-5.668,-5.668,-5.668,-5.668,-5.668,-5.668,-5.668,-5.668,-5.668,-5.668,-5.668,-5.668,-5.6713,-5.6704,-5.6697,-5.6697,-5.6697,-5.6697,-5.6708,-5.6713,-5.6349,-5.615,-5.615,-5.5454,-5.487,-5.449,-5.4162,-5.3798,-5.345,-5.3069,-5.2904,-5.287,-5.1794,-5.1297,0.0,0.0,0.0,0.0,0.0,0.0,0.0,0.0,-4.5211,-4.6996,-4.77,-4.8487,-5.0078,-5.0387,-5.1062,-5.3063,-5.3649,-5.4046,-5.4605,-5.5334,-5.5797,-5.5797,-5.5797,-5.6051,-5.663,-5.668,-5.668,-5.668,-5.6812,-5.716,-5.7757,-5.8055,-5.8502,-5.9082,-5.9827,-6.0225,-6.0225,-6.0804,-6.1102,-6.1102,-6.1102,-6.1102,-6.1102,-6.1102,-6.1102,-6.1102,-6.1102,-6.1102,-6.1102,-6.1102,-6.1102,-6.1102,-6.1102,-6.0374,-5.9314,-5.9164,-5.9015,-5.8817,-5.822,-5.8005,-5.7906,-5.7309,-5.7011,-5.6895,-5.6895,-5.6796,-5.668,-5.668,-5.668,-5.668,-5.668,-5.668,-5.668,-5.668,-5.668,-5.668,-5.668,-5.668,-5.668,-5.668,-5.668,-5.668,-5.668,-5.668,-5.668,-5.668,-5.668,-5.668,-5.668,-5.668,-5.668,-5.668,-5.668,-5.668,-5.668,-5.668,-5.668,-5.668,-5.668,-5.668,-5.668,-5.6133,-5.5731,-5.5582,-5.5003,-5.4622,-5.449,-5.3914,-5.3596,-5.3616,-5.3053,-5.2638,-3.8597,-3.9248,-4.1181,-4.2441,-4.3381,-4.478,0.0,0.0,-4.7951,-5.0267,-5.0815,-5.1113,-5.1976,-5.2586,-5.3063,-5.3331,-5.449,-5.5367,-5.545,-5.6117,-5.6564,-5.6564,-5.6564,-5.6597,-5.668,-5.668,-5.668,-5.668,-5.7293,-5.7707,-5.779,-5.9032,-5.9794,-5.9877,-6.0605,-6.0986,-6.0986,-6.1069,-6.1102,-6.1102,-6.1102,-6.1102,-6.1102,-6.1102,-6.1102,-6.1102,-6.1102,-6.1102,-6.1102,-6.1102,-6.1102,-6.1102,-6.1102,-6.1003,-6.0771,-6.0125,-5.9463,-5.8883,-5.88,-5.8784,-5.875,-5.8684,-5.8204,-5.7674,-5.7674,-5.721,-5.668,-5.668,-5.668,-5.668,-5.668,-5.668,-5.668,-5.668,-5.668,-5.668,-5.668,-5.668,-5.668,-5.668,-5.668,-5.668,-5.668,-5.668,-5.668,-5.668,-5.668,-5.668,-5.668,-5.668,-5.668,-5.668,-5.668,-5.668,-5.668,-5.668,-5.668,-5.668,-5.668,-5.668,-5.668,-5.6614,-5.6266,-5.5599,-5.5516,-5.5135,-5.449,-5.4407,-5.4394,-5.4394,-5.4311,-5.3599,-4.229,-4.2014,0.0,0.0,-4.5418,-4.6172,-4.7952,-4.8381,-4.8959,-5.0916,-5.1647,-5.2125,-5.2854,-5.3218,-5.3699,0.0,-5.5185,-5.5731,-5.6183,-5.6498,-5.668,-5.668,-5.668,-5.668,-5.668,-5.668,-5.668,-5.668,-5.7376,-5.7988,-5.8419,-5.9429,-6.0208,-6.0639,-6.0953,-6.1102,-6.1102,-6.1102,-6.1102,-6.1102,-6.1102,-6.1102,-6.1102,-6.1102,-6.1102,-6.1102,-6.1102,-6.1102,-6.1102,-6.1102,-6.1102,-6.1102,-6.1102,-6.1102,-6.1069,-6.0755,-6.0456,-6.0125,-5.9694,-5.9545,-5.9463,-5.9032,-5.8684,-5.8436,-5.8436,-5.7922,-5.7326,-5.7326,-5.7011,-5.668,-5.668,-5.668,-5.668,-5.668,-5.668,-5.668,-5.668,-5.668,-5.668,-5.668,-5.668,-5.668,-5.668,-5.668,-5.668,-5.668,-5.668,-5.668,-5.668,-5.668,-5.668,-5.668,-5.668,-5.668,-5.668,-5.668,-5.668,-5.668,-5.668,-5.668,-5.668,-5.668,-5.6547,-5.6249,-5.6249,-5.6084,-5.5786,-5.5371,-5.5135,-5.5118,-5.4688,-5.4195,-4.3532,0.0,0.0,-4.6026,-4.716,-4.7869,-4.8596,-4.9174,-4.9952,-5.1313,-5.2045,-5.2589,-5.3284,-5.3583,-5.4109,-5.5383,-5.5786,-5.61,-5.6614,-5.668,-5.668,-5.668,-5.668,-5.668,-5.668,-5.668,-5.668,-5.668,-5.7558,-5.8336,-5.8866,-5.9794,-6.0556,-6.1086,-6.1102,-6.1102,-6.1102,-6.1102,-6.1102,-6.1102,-6.1102,-6.1102,-6.1102,-6.1102,-6.1102,-6.1102,-6.1102,-6.1102,-6.1102,-6.1102,-6.1102,-6.1102,-6.1102,-6.1102,-6.1102,-6.1102,-6.1102,-6.1036,-6.049,-6.0307,-6.0225,-5.9678,-5.9363,-5.9198,-5.9198,-5.8684,-5.8088,-5.8088,-5.7558,-5.6995,-5.6995,-5.6846,-5.668,-5.668,-5.668,-5.668,-5.668,-5.668,-5.668,-5.668,-5.668,-5.668,-5.668,-5.668,-5.668,-5.668,-5.668,-5.668,-5.668,-5.668,-5.668,-5.668,-5.668,-5.668,-5.668,-5.668,-5.668,-5.668,-5.668,-5.668,-5.668,-5.668,-5.668,-5.668,-5.668,-5.668,-5.668,-5.6166,-5.5918,-5.5901,-5.5371,-5.5123,0.0,0.0,-4.4347,-4.6012,-4.8265,-5.0303,-5.1015,-5.1232,-5.1448,-5.2227,-5.2393,-5.2589,-5.3284,-5.3997,-5.4705,-5.5466,-5.62,-5.6663,-5.668,-5.668,-5.668,-5.668,-5.668,-5.668,0.0,-5.668,-5.668,-5.668,-5.8038,-5.8866,-5.8899,-6.0291,-6.1086,-6.1102,-6.1102,-6.1102,-6.1102,-6.1102,-6.1102,-6.1102,-6.1102,-6.1102,-6.1102,-6.1102,-6.1102,-6.1102,-6.1102,-6.1102,-6.1102,-6.1102,-6.1102,-6.1102,-6.1102,-6.1102,-6.1102,-6.1102,-6.1102,-6.1102,-6.1086,-6.1086,-6.1069,-6.1053,-6.0556,-5.9976,-5.9976,-5.9446,-5.8866,-5.8866,-5.8336,-5.7757,-5.7757,-5.7227,-5.668,-5.668,-5.668,-5.668,-5.668,-5.668,-5.668,-5.668,-5.668,-5.668,-5.668,-5.668,-5.668,-5.668,-5.668,-5.668,-5.668,-5.668,-5.668,-5.668,-5.668,-5.668,-5.668,-5.668,-5.668,-5.668,-5.668,-5.668,-5.668,-5.668,-5.668,-5.668,-5.668,-5.668,-5.668,-5.6663,-5.6663,-5.6663,-5.663,-5.6614,0.0,0.0,-4.6241,-4.8975,-5.0284,-5.1115,-5.1879,-5.2045,-5.2111,-5.2359,-5.1525,-5.0975,-5.1666,-5.2392,-5.3135,-5.3878,-5.5511,-5.668,-5.668,-5.668,-5.668,-5.668,-5.668,0.0,0.0,0.0,0.0,-5.7376,-5.8336,-5.9115,-5.9595,-6.0572,-6.1102,-6.1102,-6.1102,-6.1102,-6.1102,-6.1102,-6.1102,-6.1102,-6.1102,-6.1102,-6.1102,-6.1102,-6.1102,-6.1102,-6.1102,-6.1102,-6.1102,-6.1102,-6.1102,-6.1102,-6.1102,-6.1102,-6.1102,-6.1102,-6.1102,-6.1102,-6.1102,-6.1102,-6.1102,-6.1102,-6.0937,-6.0738,-6.0738,-6.0225,-5.9628,-5.9628,-5.9098,-5.8518,-5.8518,-5.8353,-5.8038,-5.7541,-5.7425,-5.7293,-5.6796,-5.668,-5.668,-5.668,-5.668,-5.668,-5.668,-5.668,-5.668,-5.668,-5.668,-5.668,-5.668,-5.668,-5.668,-5.668,-5.668,-5.668,-5.668,-5.668,-5.668,-5.668,-5.668,-5.668,-5.668,-5.668,-5.668,-5.668,-5.668,-5.668,-5.668,-5.668,-5.668,-5.668,-5.668,-5.668,-4.4214,-4.6094,-4.7934,-5.0633,-5.1514,-5.1829,-5.231,-5.2409,-5.2409,-5.2409,-5.1076,-5.0128,-5.0799,-5.1361,-5.1641,-5.1412,-5.319,-5.4675,-5.4939,-5.4972,-5.5407,-5.6564,-5.668,-5.668,0.0,0.0,0.0,-5.7723,-5.8469,-5.9214,-5.996,-6.0705,-6.1102,-6.1102,-6.1102,-6.1102,-6.1102,-6.1102,-6.1102,-6.1102,-6.1102,-6.1102,-6.1102,-6.1102,-6.1102,-6.1102,-6.1102,-6.1102,-6.1102,-6.1102,-6.1102,-6.1102,-6.1102,-6.1102,-6.1102,-6.1102,-6.1102,-6.1102,-6.1102,-6.1102,-6.1102,-6.1102,-6.1102,-6.1102,-6.1102,-6.0771,-6.039,-6.039,-5.986,-5.9297,-5.9297,-5.9098,-5.8784,-5.8303,-5.7988,-5.7657,-5.7193,-5.6879,-5.668,-5.668,-5.668,-5.668,-5.668,-5.668,-5.668,-5.668,-5.668,-5.668,-5.668,-5.668,-5.668,-5.668,-5.668,-5.668,-5.668,-5.668,-5.668,-5.668,-5.668,-5.668,-5.668,-5.668,-5.668,-5.668,-5.668,-5.668,-5.668,-5.6945,-5.6945,-5.6697,-5.6962,-5.6945,-4.5975,-4.7886,-4.9388,-5.0982,-5.1895,-5.2409,-5.2409,-5.2409,-5.2393,-5.2291,-5.0925,-4.9944,0.0,0.0,-5.0267,-4.8369,-4.9742,-5.1284,-5.1973,-5.2105,-5.3288,0.0,0.0,0.0,0.0,0.0,0.0,-5.779,0.0,-5.9247,-6.0009,-6.0721,-6.1102,-6.1102,-6.1102,-6.1102,-6.1102,-6.1102,-6.1102,-6.1102,-6.1102,-6.1102,-6.1102,-6.1102,-6.1102,-6.1102,-6.1102,-6.1102,-6.1102,-6.1102,-6.1102,-6.1102,-6.1102,-6.1102,-6.1102,-6.1102,-6.1102,-6.1102,-6.1102,-6.1102,-6.1102,-6.1102,-6.1102,-6.1102,-6.1102,-6.1102,-6.1102,-6.1102,-6.0605,-6.0059,-6.0059,-5.9545,-5.8999,-5.8966,-5.8419,-5.7889,-5.7806,-5.7243,-5.673,-5.6697,-5.668,-5.668,-5.668,-5.668,-5.668,-5.668,-5.668,-5.668,-5.668,-5.668,-5.668,-5.668,-5.668,-5.668,-5.668,-5.668,-5.668,-5.668,-5.668,-5.668,-5.668,-5.668,-5.668,-5.668,-5.668,-5.668,-5.668,-5.7425,-5.7425,-5.6763,-5.7508,-5.7475,-4.7803,-4.9506,-5.0914,-5.186,-5.2277,-5.2409,-5.2409,-5.2409,-5.2059,-5.0793,-4.9235,-4.7603,0.0,0.0,0.0,-4.7813,-5.1441,0.0,-5.4609,-5.5126,0.0,-5.6597,0.0,-5.668,-5.668,-5.7193,0.0,0.0,-5.8784,-5.9463,-6.0755,-6.1003,-6.1102,-6.1102,-6.1102,-6.1102,-6.1102,-6.1102,-6.1102,-6.1102,-6.1102,-6.1102,-6.1102,-6.1102,-6.1102,-6.1102,-6.1102,-6.1102,-6.1102,-6.1102,-6.1102,-6.1102,-6.1102,-6.1102,-6.1102,-6.1102,-6.1102,-6.1102,-6.1102,-6.1102,-6.1102,-6.1102,-6.1102,-6.1102,-6.1102,-6.1102,-6.1102,-6.1102,-6.097,-6.0821,-6.0821,-6.0688,-6.0407,-5.9844,-5.9579,-5.9131,-5.8038,-5.7641,-5.7342,-5.6796,-5.668,-5.668,-5.668,-5.668,-5.668,-5.668,-5.668,-5.668,-5.668,-5.668,-5.668,-5.668,-5.668,-5.668,-5.668,-5.668,-5.668,-5.668,-5.668,-5.668,-5.668,-5.668,-5.668,-5.668,-5.668,-5.668,-5.668,-5.7425,-5.769,-5.7525,-5.827,-5.8518,-4.9473,-5.0848,-5.1895,-5.231,-5.2409,-5.2208,-5.1475,-5.1291,-5.0843,-4.9185,-4.7307,0.0,0.0,0.0,0.0,0.0,0.0,0.0,-5.3428,-5.4142,-5.5104,0.0,-5.668,0.0,-5.668,-5.7359,-5.8104,0.0,-5.9198,-5.9893,-6.1053,-6.1102,-6.1102,-6.1102,-6.1102,-6.1102,-6.1102,-6.1102,-6.1102,-6.1102,-6.1102,-6.1102,-6.1102,-6.1102,-6.1102,-6.1102,-6.1102,-6.1102,-6.1102,-6.1102,-6.1102,-6.1102,-6.1102,-6.1102,-6.1102,-6.1102,-6.1102,-6.1102,-6.1102,-6.1102,-6.1102,-6.1102,-6.1102,-6.1102,-6.1102,-6.1102,-6.1102,-6.1102,-6.1102,-6.1102,-6.1102,-6.1102,-6.1003,-6.0589,-6.0241,-5.9678,-5.8535,-5.8022,-5.7574,-5.6829,-5.668,-5.668,-5.668,-5.668,-5.668,-5.668,-5.668,-5.668,-5.668,-5.668,-5.668,-5.668,-5.668,-5.668,-5.668,-5.668,-5.668,-5.668,-5.668,-5.668,-5.668,-5.668,-5.668,-5.668,-5.668,-5.668,-5.668,-5.7757,-5.8104,-5.7823,-5.8883,-5.9214,-5.085,-5.1928,-5.2409,-5.2409,-5.2409,-5.194,-5.0261,-4.9897,-4.9368,-4.7422,0.0,-4.3844,-4.3328,0.0,-4.5277,-4.3201,0.0,-5.0218,-5.1155,-5.1993,-5.3552,-5.6382,-5.668,-5.673,-5.6829,-5.7508,-5.8253,-5.8982,-5.9728,-6.044,-6.1086,-6.1102,-6.1102,-6.1102,-6.1102,-6.1102,-6.1102,-6.1102,-6.1102,-6.1102,-6.1102,-6.1102,-6.1102,-6.1102,-6.1102,-6.1102,-6.1102,-6.1102,-6.1102,-6.1102,-6.1102,-6.1102,-6.1102,-6.1102,-6.1102,-6.1102,-6.1102,-6.1102,-6.1102,-6.1102,-6.1102,-6.1102,-6.1102,-6.1102,-6.1102,-6.1102,-6.1102,-6.1102,-6.1102,-6.1102,-6.1102,-6.1102,-6.1102,-6.1102,-6.0539,-5.9794,-5.9065,-5.8237,-5.7458,-5.6812,-5.668,-5.668,-5.668,-5.668,-5.668,-5.668,-5.668,-5.668,-5.668,-5.668,-5.668,-5.668,-5.668,-5.668,-5.668,-5.668,-5.668,-5.668,-5.668,-5.668,-5.668,-5.668,-5.668,-5.668,-5.668,-5.668,-5.668,-5.8171,-5.8568,-5.7972,-5.9463,-5.9794,-5.1761,-5.231,-5.2409,-5.2409,-5.2409,-5.194,-5.0261,-4.9897,0.0,0.0,0.0,-4.3225,-4.0702,-4.2038,0.0,-4.4736,0.0,0.0,0.0,0.0,-5.6079,0.0,0.0,0.0,0.0,0.0,0.0,0.0,-6.049,-6.097,-6.1102,-6.1102,-6.1102,-6.1102,-6.1102,-6.1102,-6.1102,-6.1102,-6.1102,-6.1102,-6.1102,-6.1102,-6.1102,-6.1102,-6.1102,-6.1102,-6.1102,-6.1102,-6.1102,-6.1102,-6.1102,-6.1102,-6.1102,-6.1102,-6.1102,-6.1102,-6.1102,-6.1102,-6.1102,-6.1102,-6.1102,-6.1102,-6.1102,-6.1102,-6.1102,-6.1102,-6.1102,-6.1102,-6.1102,-6.1102,-6.1102,-6.1102,-6.1102,-6.1102,-6.0539,-5.9794,-5.9065,-5.7839,-5.6846,-5.6713,-5.668,-5.668,-5.668,-5.668,-5.668,-5.668,-5.668,-5.668,-5.668,-5.668,-5.668,-5.668,-5.668,-5.668,-5.668,-5.668,-5.668,-5.668,-5.668,-5.668,-5.668,-5.668,-5.668,-5.668,-5.668,-5.668,-5.668,-5.8171,-5.8833,-5.8734,-6.0225,-6.0854,-5.1512,-5.2127,-5.2409,-5.2409,-5.2409,-5.1758,-4.9321,0.0,0.0,0.0,0.0,-4.188,-4.0046,0.0,0.0,0.0,0.0,0.0,0.0,0.0,0.0,0.0,0.0,0.0,0.0,0.0,0.0,-5.9943,-6.0688,-6.1102,-6.1102,-6.1102,-6.1102,-6.1102,-6.1102,-6.1102,-6.1102,-6.1102,-6.1102,-6.1102,-6.1102,-6.1102,-6.1102,-6.1102,-6.1102,-6.1102,-6.1102,-6.1102,-6.1102,-6.1102,-6.1102,-6.1102,-6.1102,-6.1102,-6.1102,-6.1102,-6.1102,-6.1102,-6.1102,-6.1102,-6.1102,-6.1102,-6.1102,-6.1102,-6.1102,-6.1102,-6.1102,-6.1102,-6.1102,-6.1102,-6.1102,-6.1102,-6.1003,-6.0622,-5.9678,-5.875,-5.8403,-5.7458,-5.668,-5.668,-5.668,-5.668,-5.668,-5.668,-5.668,-5.668,-5.668,-5.668,-5.668,-5.668,-5.668,-5.668,-5.668,-5.668,-5.668,-5.668,-5.668,-5.668,-5.668,-5.668,-5.668,-5.668,-5.668,-5.668,-5.668,-5.6879,-5.726,-5.8369,-5.9098,-5.9496,-6.0605,-6.1102,-5.0984,-5.173,-5.221,-5.2376,-5.2409,-5.1527,-4.8249,-4.749,0.0,0.0,0.0,-4.0525,0.0,0.0,0.0,0.0,0.0,0.0,0.0,0.0,0.0,0.0,0.0,0.0,0.0,0.0,0.0,-5.9943,-6.0688,-6.1102,-6.1102,-6.1102,-6.1102,-6.1102,-6.1102,-6.1102,-6.1102,-6.1102,-6.1102,-6.1102,-6.1102,-6.1102,-6.1102,-6.1102,-6.1102,-6.1102,-6.1102,-6.1102,-6.1102,-6.1102,-6.1102,-6.1102,-6.1102,-6.1102,-6.1102,-6.1102,-6.1102,-6.1102,-6.1102,-6.1102,-6.1102,-6.1102,-6.1102,-6.1102,-6.1102,-6.1102,-6.1102,-6.1102,-6.1102,-6.1102,-6.1102,-6.1102,-6.0887,-5.9993,-5.875,-5.7757,-5.7591,-5.7094,-5.668,-5.668,-5.668,-5.668,-5.668,-5.668,-5.668,-5.668,-5.668,-5.668,-5.668,-5.668,-5.668,-5.668,-5.668,-5.668,-5.668,-5.668,-5.668,-5.668,-5.668,-5.668,-5.668,-5.668,-5.668,-5.668,-5.6846,-5.721,-5.779,-5.8701,-5.9429,-6.0026,-6.0771,-6.1102,-5.0569,-5.1365,-5.158,-5.2243,-5.2409,-5.1411,-4.7655,0.0,0.0,0.0,-4.0033,-3.9771,0.0,0.0,0.0,0.0,0.0,0.0,0.0,0.0,0.0,0.0,0.0,0.0,0.0,0.0,0.0,-5.9943,-6.0688,-6.1102,-6.1102,-6.1102,-6.1102,-6.1102,-6.1102,-6.1102,-6.1102,-6.1102,-6.1102,-6.1102,-6.1102,-6.1102,-6.1102,-6.1102,-6.1102,-6.1102,-6.1102,-6.1102,-6.1102,-6.1102,-6.1102,-6.1102,-6.1102,-6.1102,-6.1102,-6.1102,-6.1102,-6.1102,-6.1102,-6.1102,-6.1102,-6.1102,-6.1102,-6.1102,-6.1102,-6.1102,-6.1102,-6.1102,-6.1102,-6.1102,-6.1102,-6.1102,-6.0755,-5.9347,-5.8386,-5.7608,-5.6945,-5.673,-5.668,-5.668,-5.668,-5.668,-5.668,-5.668,-5.668,-5.668,-5.668,-5.668,-5.668,-5.668,-5.668,-5.668,-5.668,-5.668,-5.668,-5.668,-5.668,-5.668,-5.668,-5.668,-5.668,-5.668,-5.668,-5.668,-5.7342,-5.7723,-5.779,-5.9214,-5.9943,-6.0026,-6.0771,-6.1102,-4.9409,-5.0303,-5.08,-5.1564,-5.0717,-4.9243,-4.729,0.0,0.0,-4.0854,-4.0199,-3.9985,-3.9242,0.0,0.0,0.0,0.0,0.0,0.0,0.0,0.0,0.0,0.0,0.0,0.0,0.0,0.0,-6.0572,-6.0937,-6.1102,-6.1102,-6.1102,-6.1102,-6.1102,-6.1102,-6.1102,-6.1102,-6.1102,-6.1102,-6.1102,-6.1102,-6.1102,-6.1102,-6.1102,-6.1102,-6.1102,-6.1102,-6.1102,-6.1102,-6.1102,-6.1102,-6.1102,-6.1102,-6.1102,-6.1102,-6.1102,-6.1102,-6.1102,-6.1102,-6.1102,-6.1102,-6.1102,-6.1102,-6.1102,-6.1102,-6.1102,-6.1102,-6.1102,-6.1102,-6.1102,-6.1102,-6.044,-5.9512,-5.8469,-5.7657,-5.7044,-5.6746,-5.668,-5.668,-5.668,-5.668,-5.668,-5.668,-5.668,-5.668,-5.668,-5.668,-5.668,-5.668,-5.668,-5.668,-5.668,-5.668,-5.668,-5.668,-5.668,-5.668,-5.668,-5.668,-5.668,-5.668,-5.668,-5.6895,-5.7342,-5.7641,-5.8237,-5.9131,-5.9711,-6.0241,-6.0672,-6.097,-6.1102,-4.8001,-4.916,-5.0104,-5.1067,-4.959,-4.772,0.0,0.0,0.0,-4.0498,-4.0078,-3.9928,-3.9398,0.0,0.0,0.0,0.0,0.0,0.0,0.0,0.0,0.0,0.0,0.0,0.0,0.0,-5.9512,-6.1003,-6.1102,-6.1102,-6.1102,-6.1102,-6.1102,-6.1102,-6.1102,-6.1102,-6.1102,-6.1102,-6.1102,-6.1102,-6.1102,-6.1102,-6.1102,-6.1102,-6.1102,-6.1102,-6.1102,-6.1102,-6.1102,-6.1102,-6.1102,-6.1102,-6.1102,-6.1102,-6.1102,-6.1102,-6.1102,-6.1102,-6.1102,-6.1102,-6.1102,-6.1102,-6.1102,-6.1102,-6.1102,-6.1102,-6.1102,-6.1102,-6.0953,-6.0721,-6.0506,-5.9512,-5.8436,-5.7922,-5.7227,-5.668,-5.668,-5.668,-5.668,-5.668,-5.668,-5.668,-5.668,-5.668,-5.668,-5.668,-5.668,-5.668,-5.668,-5.668,-5.668,-5.668,-5.668,-5.668,-5.668,-5.668,-5.668,-5.668,-5.668,-5.668,-5.668,-5.6895,-5.726,-5.7773,-5.822,-5.8966,-6.0009,-6.0225,-6.0605,-6.1102,-6.1102,-6.1102,-4.6328,-4.8001,-4.9458,-5.0951,-4.9556,-4.744,0.0,0.0,0.0,-3.9736,-3.9315,-3.9315,-3.9299,0.0,0.0,0.0,0.0,0.0,0.0,0.0,0.0,0.0,0.0,0.0,0.0,0.0,-5.9512,-6.1003,-6.1102,-6.1102,-6.1102,-6.1102,-6.1102,-6.1102,-6.1102,-6.1102,-6.1102,-6.1102,-6.1102,-6.1102,-6.1102,-6.1102,-6.1102,-6.1102,-6.1102,-6.1102,-6.1102,-6.1102,-6.1102,-6.1102,-6.1102,-6.1102,-6.1102,-6.1102,-6.1102,-6.1102,-6.1102,-6.1102,-6.1102,-6.1102,-6.1102,-6.1102,-6.1102,-6.1102,-6.1102,-6.1102,-6.1102,-6.1102,-6.0572,-5.9844,-5.9115,-5.8369,-5.7806,-5.779,-5.7227,-5.668,-5.668,-5.668,-5.668,-5.668,-5.668,-5.668,-5.668,-5.668,-5.668,-5.668,-5.668,-5.668,-5.668,-5.668,-5.668,-5.668,-5.668,-5.668,-5.668,-5.668,-5.668,-5.668,-5.668,-5.668,-5.668,-5.7392,-5.779,-5.779,-5.9231,-5.9993,-6.0009,-6.0738,-6.1102,-6.1102,-6.1102,-6.1102,-4.4208,-4.5047,-4.5721,-4.6684,-4.5149,-4.3466,-4.3647,0.0,-4.0073,-3.9421,-3.9299,-3.9299,-3.9299,-3.9299,0.0,0.0,0.0,0.0,0.0,0.0,0.0,0.0,0.0,0.0,0.0,0.0,-5.9297,-6.0291,-6.0821,-6.1102,-6.1102,-6.1102,-6.1102,-6.1102,-6.1102,-6.1102,-6.1102,-6.1102,-6.1102,-6.1102,-6.1102,-6.1102,-6.1102,-6.1102,-6.1102,-6.1102,-6.1102,-6.1102,-6.1102,-6.1102,-6.1102,-6.1102,-6.1102,-6.1102,-6.1102,-6.1102,-6.1102,-6.1102,-6.1102,-6.1102,-6.1102,-6.1102,-6.0771,-6.0357,-6.0357,-6.0357,-6.0241,-5.9744,-5.9429,-5.9082,-5.8336,-5.7972,-5.7657,-5.716,-5.6862,-5.668,-5.668,-5.668,-5.668,-5.668,-5.668,-5.668,-5.668,-5.668,-5.668,-5.668,-5.668,-5.668,-5.668,-5.668,-5.668,-5.668,-5.668,-5.668,-5.668,-5.668,-5.668,-5.668,-5.668,-5.6912,-5.7425,-5.7674,-5.827,-5.928,-5.9761,-6.0258,-6.0755,-6.1003,-6.1102,-6.1102,-6.1102,-6.0837,0.0,-4.3269,-4.3968,-4.4657,-4.3061,0.0,0.0,0.0,-3.9299,-3.9299,-3.9325,-3.9352,-3.9299,0.0,0.0,0.0,0.0,0.0,0.0,0.0,0.0,0.0,0.0,0.0,0.0,-5.7889,-5.8899,-5.9926,-6.044,-6.0821,-6.1102,-6.1102,-6.1102,-6.1102,-6.1102,-6.1102,-6.1102,-6.1102,-6.1102,-6.1102,-6.1102,-6.1102,-6.1102,-6.1102,-6.1102,-6.1102,-6.1102,-6.1102,0.0,-6.1102,-6.1102,-6.1102,-6.1102,-6.1102,-6.1102,-6.1102,-6.1102,-6.1102,-6.1102,-6.092,-6.0688,-6.0688,-6.0191,-5.9529,-5.9247,-5.9363,-5.9429,-5.8684,-5.8485,-5.832,-5.7574,-5.7376,-5.726,-5.6796,-5.668,-5.668,-5.668,-5.668,-5.668,-5.668,-5.668,-5.668,-5.668,-5.668,-5.668,-5.668,-5.668,-5.668,-5.668,-5.668,-5.668,-5.668,-5.668,-5.6796,-5.7077,-5.6846,-5.6812,-5.7094,-5.7111,-5.7442,-5.8171,-5.8469,-5.9065,-5.9993,-6.0274,-6.0655,-6.1102,-6.0821,-6.0688,-6.0688,-6.0407,-6.0026,0.0,0.0,0.0,0.0,0.0,0.0,0.0,0.0,0.0,-3.9299,-3.9405,-3.9475,-3.9325,0.0,0.0,0.0,0.0,0.0,0.0,0.0,0.0,0.0,0.0,0.0,-5.5317,-5.6879,-5.8369,-5.9744,-5.9893,-6.0225,-6.092,-6.0953,-6.0953,-6.0953,-6.0953,-6.1003,-6.1102,-6.1102,-6.1102,-6.1102,-6.1102,-6.1102,-6.1102,-6.1102,-6.1102,-6.1102,-6.1102,-6.1102,-6.1102,-6.1102,-6.1102,-6.1102,-6.1102,-6.1102,-6.1102,-6.1102,-6.1086,-6.1036,-6.1036,-6.0539,-5.991,-5.986,-5.938,-5.8684,-5.7939,-5.8237,-5.8668,-5.7922,-5.7707,-5.7558,-5.6862,-5.668,-5.668,-5.668,-5.668,-5.668,-5.668,-5.668,-5.668,-5.668,-5.668,-5.668,-5.668,-5.668,-5.668,-5.668,-5.668,-5.668,-5.668,-5.668,-5.6713,-5.6763,-5.6763,-5.7061,-5.7806,-5.7193,-5.7077,-5.7823,-5.7873,-5.8204,-5.8949,-5.9645,-6.0026,-6.0075,-6.0705,-6.1003,-6.0953,-6.0258,-5.9926,-5.991,-5.9214,-5.8866,-3.9927,0.0,-4.0695,-4.0836,0.0,0.0,0.0,0.0,0.0,0.0,0.0,0.0,0.0,0.0,0.0,0.0,0.0,0.0,0.0,0.0,0.0,0.0,0.0,0.0,-5.4026,-5.6266,-5.7939,-5.8287,-5.8833,-5.9231,-5.9413,-5.9413,-5.9413,-5.9413,-5.9413,-5.996,-6.1102,-6.1102,-6.1102,-6.1102,-6.1102,-6.1102,-6.1102,-6.1102,-6.1102,-6.1102,-6.1102,-6.1102,-6.1102,-6.1102,-6.1102,-6.1102,-6.1102,-6.1102,-6.1102,-6.1102,-6.0755,-6.0258,-6.0258,-5.9777,-5.9065,-5.8502,-5.8187,-5.7922,-5.7177,-5.7458,-5.7889,-5.716,-5.6945,-5.6912,-5.673,-5.668,-5.668,-5.668,-5.668,-5.668,-5.668,-5.668,-5.668,-5.668,-5.668,-5.668,-5.668,-5.668,-5.668,-5.668,-5.668,-5.668,-5.668,-5.668,-5.6912,-5.7475,-5.7541,-5.7839,-5.8585,-5.7972,-5.7856,-5.8585,-5.8634,-5.8966,-5.9711,-5.991,-6.0274,-6.0837,-6.0456,-5.9993,-5.9413,-5.9247,-5.9164,-5.9148,-5.8982,-5.8601,-3.9798,-3.9729,-3.9677,-3.9625,-3.9511,-3.9458,0.0,0.0,0.0,0.0,0.0,0.0,0.0,0.0,0.0,0.0,0.0,0.0,0.0,0.0,0.0,0.0,0.0,-5.5106,0.0,-5.6349,-5.7425,-5.7757,-5.8171,-5.8638,-5.9231,-5.9043,-5.9003,-5.9264,-5.9043,-5.928,-6.0075,-6.0092,-6.0274,-6.0605,-6.0605,-6.0771,-6.1102,-6.1102,-6.1102,-6.1102,-6.1102,-6.1102,-6.1102,-6.1102,-6.0904,-6.0605,-6.0605,-6.039,-6.0092,-6.0092,-5.9844,-5.9496,-5.9496,-5.9015,-5.827,-5.7525,-5.7293,-5.721,-5.6812,-5.6962,-5.7193,-5.6796,-5.668,-5.668,-5.668,-5.668,-5.668,-5.668,-5.668,-5.668,-5.668,-5.668,-5.668,-5.668,-5.668,-5.668,-5.668,-5.668,-5.668,-5.668,-5.668,-5.668,-5.668,-5.6995,-5.7342,-5.7757,-5.8088,-5.8601,-5.9347,-5.9032,-5.8982,-5.938,-5.9396,-5.9744,-6.0473,-6.0175,-6.0026,-6.0092,-5.9694,-5.9297,-5.8899,-5.8552,-5.8403,-5.8386,-5.8038,-5.7674,-4.007,-4.0155,-4.0066,-3.9656,-3.9554,-3.9563,0.0,0.0,0.0,0.0,0.0,0.0,0.0,0.0,0.0,0.0,0.0,0.0,0.0,0.0,0.0,0.0,0.0,0.0,-5.6186,-5.6575,-5.6984,-5.7731,-5.7702,-5.8147,-5.9329,-5.897,-5.897,-5.9498,-5.907,-5.8813,-5.8813,-5.8847,-5.9214,-5.9827,-5.9827,-6.0158,-6.0771,-6.0771,-6.0771,-6.0771,-6.0771,-6.0771,-6.0771,-6.0771,-6.0407,-5.9827,-5.9827,-5.9446,-5.8899,-5.8899,-5.8817,-5.8717,-5.8601,-5.8154,-5.7525,-5.6895,-5.668,-5.668,-5.668,-5.668,-5.668,-5.668,-5.668,-5.668,-5.668,-5.668,-5.668,-5.668,-5.668,-5.668,-5.668,-5.668,-5.668,-5.668,-5.668,-5.668,-5.668,-5.668,-5.668,-5.668,-5.6779,-5.6862,-5.6862,-5.7508,-5.8005,-5.8121,-5.8585,-5.9198,-5.9943,-5.9893,-5.9827,-5.9827,-5.9943,-6.0241,-6.0755,-6.0158,-5.9496,-5.875,-5.8734,-5.8684,-5.8552,-5.7939,-5.7624,-5.7608,-5.6978,-5.668,-4.0138,-4.118,-4.1912,-4.0255,-3.9746,-3.9703,0.0,0.0,0.0,0.0,0.0,0.0,0.0,0.0,0.0,0.0,0.0,0.0,0.0,0.0,0.0,0.0,0.0,-5.5813,-5.4787,-5.5888,-5.696,-5.757,-5.7153,-5.7165,-5.787,-5.785,-5.8056,-5.8568,-5.8513,-5.8477,-5.8477,-5.8747,-5.8966,-5.9065,-5.9065,-5.9131,-5.9231,-5.9231,-5.9231,-5.9231,-5.9231,-5.9231,-5.9231,-5.9231,-5.9164,-5.9065,-5.9065,-5.8999,-5.8899,-5.8899,-5.8502,-5.7873,-5.7243,-5.6945,-5.6846,-5.673,-5.668,-5.668,-5.668,-5.668,-5.668,-5.668,-5.668,-5.668,-5.668,-5.668,-5.668,-5.668,-5.668,-5.668,-5.668,-5.668,-5.668,-5.668,-5.668,-5.668,-5.668,-5.668,-5.668,-5.668,-5.7227,-5.7624,-5.7624,-5.827,-5.8966,-5.9595,-5.9198,-5.9198,-5.9943,-5.9429,-5.9065,-5.9065,-5.9645,-5.9777,-5.9264,-5.9131,-5.8717,-5.7972,-5.7972,-5.7657,-5.7028,-5.6912,-5.6862,-5.6862,-5.673,-5.668,-4.0387,-4.0923,-4.1461,-4.1537,-4.2253,-4.2937,0.0,0.0,0.0,0.0,0.0,0.0,0.0,0.0,0.0,0.0,0.0,0.0,0.0,0.0,-5.3129,0.0,0.0,-5.5565,-5.6039,-5.7002,-5.7738,-5.7993,-5.7775,-5.7867,-5.8492,-5.8209,-5.828,-5.8875,-5.8562,-5.8405,-5.8405,-5.8561,-5.882,-5.9224,-5.9224,-5.9426,-5.9814,-5.9483,-5.9326,-5.9326,-5.9043,-5.8899,-5.8899,-5.8899,-5.8668,-5.8303,-5.8303,-5.8055,-5.7707,-5.7707,-5.7492,-5.7144,-5.6796,-5.668,-5.668,-5.668,-5.668,-5.668,-5.668,-5.668,-5.668,-5.668,-5.668,-5.668,-5.668,-5.668,-5.668,-5.668,-5.668,-5.668,-5.668,-5.668,-5.668,-5.668,-5.668,-5.668,-5.668,-5.668,-5.6829,-5.7227,-5.7574,-5.7939,-5.8336,-5.8684,-5.9032,-5.9363,-5.9098,-5.9032,-5.938,-5.9082,-5.8899,-5.8899,-5.9214,-5.9065,-5.8336,-5.8303,-5.7955,-5.721,-5.7193,-5.7028,-5.668,-5.668,-5.668,-5.668,-5.668,-5.668,-4.0597,-4.0857,-4.1338,-4.2679,0.0,0.0,-4.5329,0.0,0.0,0.0,0.0,0.0,0.0,0.0,0.0,0.0,0.0,0.0,-5.2401,-5.2135,-5.2387,-5.4153,-5.4797,-5.5774,-5.7623,-5.8173,-5.8457,-5.8597,-5.8492,-5.8667,-5.9267,-5.8875,-5.8875,-5.9467,-5.9046,-5.8789,-5.8789,-5.8789,-5.8959,-5.924,-5.924,-5.9547,-6.0094,-5.9614,-5.9389,-5.9351,-5.8825,-5.8607,-5.8567,-5.8465,-5.8038,-5.7541,-5.7541,-5.7193,-5.668,-5.668,-5.668,-5.668,-5.668,-5.668,-5.668,-5.668,-5.668,-5.668,-5.668,-5.668,-5.668,-5.668,-5.668,-5.668,-5.668,-5.668,-5.668,-5.668,-5.668,-5.668,-5.668,-5.668,-5.668,-5.668,-5.668,-5.673,-5.6912,-5.6796,-5.6945,-5.7674,-5.779,-5.7988,-5.8568,-5.8784,-5.8899,-5.8899,-5.875,-5.8568,-5.8403,-5.8369,-5.8369,-5.8369,-5.8369,-5.8121,-5.7558,-5.7541,-5.7276,-5.6697,-5.668,-5.668,-5.668,-5.668,-5.668,-5.668,-5.668,-5.668,-4.0484,-4.1923,-4.315,-4.3037,0.0,0.0,-4.4742,0.0,0.0,0.0,0.0,0.0,0.0,0.0,0.0,0.0,0.0,0.0,-5.6457,0.0,-5.71,-5.7282,-5.7352,-5.7623,-5.8298,-5.8386,-5.8632,-5.9199,-5.8737,-5.8667,-5.9267,-5.9267,-5.9467,-6.0025,-5.9993,-5.9993,-5.9993,-5.9993,-5.9451,-5.849,-5.849,-5.8524,-5.8575,-5.8504,-5.8504,-5.8469,-5.7924,-5.7665,-5.7628,-5.7077,-5.6812,-5.6763,-5.6763,-5.673,-5.668,-5.668,-5.668,-5.668,-5.668,-5.668,-5.668,-5.668,-5.668,-5.668,-5.668,-5.668,-5.668,-5.668,-5.668,-5.668,-5.668,-5.668,-5.668,-5.668,-5.668,-5.668,-5.668,-5.668,-5.668,-5.668,-5.668,-5.6912,-5.7591,-5.7144,-5.6945,-5.7674,-5.779,-5.7806,-5.7873,-5.8469,-5.8899,-5.8899,-5.8287,-5.7591,-5.6912,-5.6846,-5.6846,-5.6846,-5.6846,-5.6812,-5.6763,-5.6763,-5.673,-5.668,-5.668,-5.668,-5.668,-5.668,-5.668,-5.668,-5.668,-5.668,-4.0562,-4.2161,-4.3475,-4.3296,0.0,0.0,0.0,0.0,0.0,0.0,0.0,0.0,0.0,0.0,0.0,0.0,0.0,-5.6252,-5.7193,-5.8083,-5.8527,-5.8137,-5.8422,-5.8737,-5.8944,-5.9249,-5.9567,-5.9781,-5.9567,-5.9567,-5.9781,-5.9781,-5.9879,-6.0089,-6.0089,-6.0089,-6.0089,-6.0089,-5.9879,-5.9467,-5.9467,-5.9467,-5.9434,-5.872,-5.8405,-5.8334,-5.746,-5.7025,-5.7025,-5.6796,-5.668,-5.668,-5.668,-5.668,-5.668,-5.668,-5.668,-5.668,-5.668,-5.668,-5.668,-5.668,-5.668,-5.668,-5.668,-5.668,-5.668,-5.668,-5.668,-5.668,-5.668,-5.668,-5.668,-5.668,-5.668,-5.668,-5.668,-5.668,-5.668,-5.668,-5.668,-5.6779,-5.7061,-5.6862,-5.6945,-5.7674,-5.779,-5.7972,-5.8419,-5.832,-5.8204,-5.8204,-5.7541,-5.6995,-5.6713,-5.668,-5.668,-5.668,-5.668,-5.668,-5.668,-5.668,-5.668,-5.668,-5.668,-5.668,-5.668,-5.668,-5.668,-5.668,-5.668,-5.668,-4.1538,-4.2723,-4.3772,0.0,0.0,0.0,0.0,0.0,0.0,0.0,0.0,0.0,0.0,0.0,0.0,0.0,-5.5833,-5.8279,-5.8182,-5.882,-5.9182,-5.8841,-5.9147,-5.9466,-5.9565,-5.999,-6.0266,-6.0266,-6.0153,-6.0089,-6.0089,-6.0089,-6.0089,-6.0089,-6.0089,-6.0089,-6.0089,-6.0089,-6.0089,-6.0089,-6.0089,-6.0089,-6.0057,-5.9283,-5.8823,-5.8632,-5.7665,-5.716,-5.6987,-5.6757,-5.668,-5.668,-5.668,-5.668,-5.668,-5.668,-5.668,-5.668,-5.668,-5.668,-5.668,-5.668,-5.668,-5.668,-5.668,-5.668,-5.668,-5.668,-5.668,-5.668,-5.668,-5.668,-5.668,-5.668,-5.668,-5.668,-5.668,-5.6834,-5.6987,-5.6987,-5.7122,-5.7302,-5.7536,-5.7251,-5.7237,-5.7986,-5.7708,-5.7624,-5.8138,-5.7757,-5.7442,-5.7442,-5.6995,-5.6757,-5.6987,-5.6796,-5.6796,-5.6987,-5.6987,-5.6911,-5.6735,-5.668,-5.668,-5.668,-5.668,-5.668,-5.668,-5.6872,-5.6987,-5.6987,-5.716,-5.7235,-4.3541,-4.3793,0.0,0.0,0.0,0.0,0.0,0.0,0.0,0.0,0.0,0.0,-5.2034,0.0,0.0,-5.3934,-5.7045,-5.9567,-6.0048,-5.965,-5.9417,-5.9694,-5.9709,-5.9838,-6.017,-6.0463,-6.0609,-6.0609,-6.0297,-6.0089,-6.0089,-6.0089,-6.0089,-6.0089,-6.0089,-6.0089,-6.0089,-6.0089,-6.0089,-6.0089,-6.0107,-6.0089,-6.0089,-6.0089,-5.9781,-5.9267,-5.8667,-5.8101,-5.7551,-5.6949,-5.6735,-5.6735,-5.668,-5.668,-5.6735,-5.668,-5.668,-5.668,-5.668,-5.668,-5.668,-5.668,-5.668,-5.668,-5.668,-5.668,-5.668,-5.6735,-5.6735,-5.6719,-5.6719,-5.6719,-5.6719,-5.668,-5.6735,-5.6719,-5.6719,-5.7176,-5.7625,-5.7625,-5.8029,-5.8608,-5.9377,-5.8428,-5.784,-5.8581,-5.753,-5.668,-5.6735,-5.6719,-5.6719,-5.6719,-5.6719,-5.6949,-5.7551,-5.7063,-5.6987,-5.7588,-5.7625,-5.7327,-5.6719,-5.6719,-5.6719,-5.6719,-5.6719,-5.6719,-5.6719,-5.7327,-5.7625,-5.7625,-5.8137,-5.8405,-4.1527,0.0,0.0,0.0,0.0,0.0,0.0,0.0,0.0,0.0,0.0,0.0,-5.236,0.0,0.0,-5.4808,-5.7311,-5.9749,-6.0669,-6.0262,-6.0072,-6.0618,-6.0481,-6.0463,-6.08,-6.0896,-6.0944,-6.0944,-6.0854,-6.0805,-6.0805,-6.0805,-6.0805,-6.0805,-6.0805,-6.0805,-6.0805,-6.0805,-6.0805,-6.0793,-6.0578,-6.0329,-6.0089,-5.9716,-5.9451,-5.9267,-5.8667,-5.8315,-5.8137,-5.7571,-5.7327,-5.7289,-5.6872,-5.6949,-5.7289,-5.6872,-5.668,-5.668,-5.668,-5.668,-5.668,-5.668,-5.668,-5.668,-5.668,-5.668,-5.6796,-5.7214,-5.7327,-5.7422,-5.7811,-5.792,-5.7685,-5.6894,-5.7293,-5.7811,-5.7422,-5.7775,-5.8173,-5.8173,-5.801,-5.7896,-5.8132,-5.7499,-5.7015,-5.7248,-5.6945,-5.6834,-5.7289,-5.7665,-5.7738,-5.7364,-5.7665,-5.7811,-5.7625,-5.7775,-5.7976,-5.8137,-5.8173,-5.792,-5.7364,-5.7701,-5.792,-5.792,-5.792,-5.792,-5.792,-5.8065,-5.8173,-5.8173,-5.8351,-5.8405,-4.3781,0.0,0.0,0.0,0.0,0.0,0.0,0.0,0.0,0.0,0.0,0.0,-5.4206,-5.6402,0.0,-5.6601,-5.857,-6.0445,-6.1022,-6.0745,-6.0684,-6.1193,-6.1075,-6.1105,-6.1415,-6.1339,-6.1252,-6.1252,-6.1182,-6.1093,-6.1093,-6.1093,-6.1093,-6.1093,-6.1093,-6.1093,-6.1093,-6.1093,-6.1093,-6.1111,-6.0884,-6.0701,-6.0468,-5.9879,-5.9501,-5.9267,-5.8667,-5.8405,-5.8369,-5.8065,-5.7937,-5.7884,-5.7517,-5.7591,-5.7865,-5.7517,-5.7368,-5.7331,-5.7139,-5.7063,-5.7025,-5.6757,-5.668,-5.668,-5.668,-5.6872,-5.7139,-5.7514,-5.7588,-5.7645,-5.7993,-5.8244,-5.8244,-5.7554,-5.7738,-5.7993,-5.7662,-5.7865,-5.8137,-5.8351,-5.8315,-5.8351,-5.8562,-5.812,-5.7721,-5.7721,-5.7517,-5.7517,-5.7865,-5.8209,-5.828,-5.7957,-5.8209,-5.8386,-5.828,-5.8351,-5.8475,-5.8737,-5.8771,-5.8597,-5.828,-5.8351,-5.8405,-5.8405,-5.8405,-5.8405,-5.8405,-5.8632,-5.8771,-5.8771,-5.8685,-5.8648,0.0,0.0,0.0,0.0,0.0,0.0,0.0,0.0,0.0,0.0,0.0,0.0,-5.6794,-5.8106,-5.9068,-5.8826,-6.0267,-6.1347,-6.1193,-6.1123,-6.1193,-6.1505,-6.1533,-6.1636,-6.1969,-6.172,-6.1533,-6.1533,-6.131,-6.1182,-6.1182,-6.1182,-6.1182,-6.1182,-6.1182,-6.1182,-6.1182,-6.1182,-6.1182,-6.1182,-6.1152,-6.1152,-6.1123,-6.0468,-5.9911,-5.9367,-5.8841,-5.8545,-5.8475,-5.8475,-5.8475,-5.8492,-5.8405,-5.8405,-5.8405,-5.8405,-5.8386,-5.8244,-5.7755,-5.7588,-5.7514,-5.6911,-5.668,-5.668,-5.668,-5.7139,-5.7625,-5.7662,-5.7718,-5.7772,-5.7828,-5.8173,-5.8545,-5.8545,-5.8173,-5.7792,-5.7772,-5.7792,-5.7974,-5.8457,-5.8944,-5.9434,-5.9961,-5.9584,-5.9233,-5.9233,-5.8806,-5.8475,-5.8475,-5.851,-5.8562,-5.8475,-5.8527,-5.8771,-5.9267,-5.8841,-5.8806,-5.9334,-5.9367,-5.9367,-5.9367,-5.8841,-5.8545,-5.8545,-5.8545,-5.8545,-5.8562,-5.9028,-5.9281,-5.9263,-5.9007,-5.8895,0.0,0.0,0.0,0.0,0.0,0.0,0.0,0.0,0.0,0.0,0.0,0.0,-5.7087,-5.7926,-5.8768,-5.9303,-6.0051,-6.0842,-6.1694,-6.1386,-6.1299,-6.184,-6.1664,-6.1636,-6.1969,-6.1923,-6.1895,-6.1895,-6.184,-6.1812,-6.1812,-6.1812,-6.1812,-6.1812,-6.1812,-6.1812,-6.1812,-6.1812,-6.1812,-6.1784,-6.1523,-6.1419,-6.139,-6.1046,-6.0701,-6.0311,-6.0167,-5.9731,-5.9132,-5.9132,-5.9132,-5.9064,-5.858,-5.8405,-5.8405,-5.8405,-5.8137,-5.7772,-5.7662,-5.7588,-5.7514,-5.6911,-5.668,-5.668,-5.668,-5.7139,-5.7698,-5.8101,-5.8562,-5.9012,-5.9467,-5.965,-5.9748,-5.9748,-5.965,-5.9434,-5.9029,-5.9267,-5.9617,-5.9716,-5.9501,-5.9334,-5.9434,-5.8978,-5.8597,-5.8597,-5.8875,-5.9132,-5.9132,-5.9467,-5.9567,-5.9165,-5.9467,-5.9617,-5.9334,-5.9584,-5.9781,-5.9928,-5.9928,-5.9928,-5.9928,-5.9814,-5.9748,-5.9748,-5.9748,-5.9748,-5.9748,-5.9286,-5.9071,-5.9053,-5.8359,-5.807,0.0,0.0,0.0,0.0,0.0,0.0,0.0,0.0,0.0,0.0,0.0,-5.7188,-5.7188,-5.7858,-5.8546,-5.8963,-5.9555,-6.0296,-6.129,-6.1151,-6.1212,-6.1914,-6.1868,-6.1822,-6.1978,-6.1996,-6.1996,-6.1996,-6.1996,-6.1996,-6.1996,-6.1996,-6.1996,-6.1996,-6.1996,-6.1996,-6.1996,-6.1996,-6.1996,-6.1996,-6.1822,-6.172,-6.172,-6.1299,-6.1004,-6.0823,-6.0823,-6.0591,-6.015,-6.015,-6.0054,-5.9879,-5.9582,-5.935,-5.9216,-5.9216,-5.9046,-5.8771,-5.8492,-5.8386,-5.8315,-5.7701,-5.7517,-5.7517,-5.7517,-5.7957,-5.8457,-5.8737,-5.9064,-5.9367,-5.965,-5.9716,-5.9716,-5.9716,-5.9716,-5.965,-5.9367,-5.93,-5.935,-5.965,-5.9467,-5.9367,-5.965,-5.9567,-5.945,-5.945,-5.9844,-6.015,-6.015,-6.0405,-6.0468,-6.0181,-6.0419,-6.0468,-6.0181,-6.0436,-6.0561,-6.0561,-6.0561,-6.0401,-6.0012,-5.9994,-5.9858,-5.958,-5.958,-5.9432,-5.9184,-5.8677,-5.8484,-5.8584,-5.7658,-5.7228,0.0,0.0,0.0,0.0,0.0,0.0,0.0,0.0,0.0,0.0,0.0,-5.7188,-5.7188,-5.7732,-5.8239,-5.8383,-5.8963,-5.9669,-6.0484,-6.0593,-6.0819,-6.1516,-6.158,-6.158,-6.158,-6.1706,-6.1779,-6.1779,-6.1906,-6.1996,-6.1996,-6.1996,-6.1996,-6.1996,-6.1996,-6.1996,-6.1996,-6.1996,-6.1996,-6.1996,-6.1996,-6.1996,-6.1978,-6.1473,-6.1211,-6.1182,-6.1182,-6.1152,-6.1093,-6.1093,-6.0944,-6.0671,-6.0671,-6.0436,-6.0135,-6.0248,-6.0216,-6.004,-5.9549,-5.9417,-5.935,-5.872,-5.8528,-5.8563,-5.8563,-5.8995,-5.945,-5.945,-5.9516,-5.96,-5.96,-5.96,-5.96,-5.96,-5.96,-5.9567,-5.9467,-5.908,-5.8944,-5.9434,-5.9567,-5.9764,-6.0185,-6.0516,-6.0671,-6.0671,-6.0914,-6.1093,-6.1093,-6.1093,-6.1093,-6.1093,-6.1093,-6.1093,-6.1093,-6.1093,-6.1093,-6.1093,-6.0968,-6.0594,-5.9933,-5.9773,-5.9384,-5.8734,-5.8875,-5.8716,-5.8296,-5.7905,-5.7882,-5.8066,-5.7023,-5.6582,0.0,0.0,0.0,0.0,0.0,0.0,0.0,0.0,0.0,0.0,0.0,-5.7188,-5.7188,-5.7279,-5.7587,-5.8293,-5.8492,-5.8836,-5.9651,-5.976,-5.9814,-5.9923,-5.9923,-5.9923,-5.9923,-6.0557,-6.0946,-6.0946,-6.1598,-6.1996,-6.1996,-6.1996,-6.1996,-6.1996,-6.1996,-6.1996,-6.1996,-6.1996,-6.1996,-6.1996,-6.1996,-6.1996,-6.1996,-6.1941,-6.171,-6.1448,-6.1448,-6.1321,-6.1093,-6.1093,-6.1064,-6.1034,-6.1034,-6.0709,-6.0251,-6.0788,-6.063,-6.0125,-5.9791,-5.9838,-5.9949,-5.9095,-5.9044,-5.9262,-5.9262,-5.9641,-6.0076,-6.0076,-6.0459,-6.0866,-6.0866,-6.0866,-6.0866,-6.0866,-6.0866,-6.0714,-6.0121,-6.0153,-6.0343,-6.0405,-6.0653,-6.0866,-6.0944,-6.1004,-6.1034,-6.1034,-6.1064,-6.1093,-6.1093,-6.1093,-6.1093,-6.1093,-6.1093,-6.1093,-6.1093,-6.1093,-6.1093,-6.1093,-6.0451,-6.0023,-5.9916,-5.9227,-5.8503,-5.7712,-5.8381,-5.8712,-5.8634,-5.7883,-5.7562,-5.7583,-5.6789,-5.6433,0.0,0.0,0.0,0.0,0.0,0.0,0.0,0.0,0.0,0.0,-5.7188,-5.7188,-5.7188,-5.7188,-5.7315,-5.7677,-5.7732,-5.8003,-5.8818,-5.8927,-5.909,-5.9561,-5.9615,-5.9615,-5.9615,-5.9923,-6.014,-6.014,-6.0466,-6.0665,-6.0665,-6.0665,-6.0665,-6.0665,-6.0665,-6.0665,-6.0665,-6.0665,-6.0665,-6.0665,-6.1091,-6.1308,-6.1326,-6.1779,-6.1923,-6.1794,-6.1794,-6.171,-6.1615,-6.1615,-6.1484,-6.1321,-6.1321,-6.1069,-6.0722,-6.0986,-6.0938,-6.0691,-6.0538,-6.0569,-6.0661,-6.0254,-6.0223,-6.0348,-6.0348,-6.0521,-6.0722,-6.0722,-6.0908,-6.1093,-6.1093,-6.1093,-6.1093,-6.1093,-6.1093,-6.1004,-6.0714,-6.0793,-6.0884,-6.0884,-6.1004,-6.1093,-6.1093,-6.1223,-6.1321,-6.1321,-6.1484,-6.1615,-6.1615,-6.1615,-6.1615,-6.1615,-6.1615,-6.1615,-6.1615,-6.1615,-6.1418,-6.094,-6.0608,-6.0014,-5.9087,-5.8709,-5.8152,-5.7342,-5.7789,-5.7902,-5.7648,-5.7116,-5.6965,-5.7101,-5.6625,-5.6401,0.0,0.0,0.0,0.0,0.0,0.0,0.0,0.0,0.0,0.0,-5.7062,-5.7188,-5.7188,-5.7188,-5.7188,-5.7188,-5.7188,-5.7406,-5.8003,-5.8094,-5.8329,-5.8927,-5.8999,-5.8999,-5.8999,-5.918,-5.9307,-5.9307,-5.9488,-5.9615,-5.9615,-5.9615,-5.9615,-5.9615,-5.9615,-5.9615,-5.9615,-5.9615,-5.9615,-5.9615,-6.0212,-6.0502,-6.0538,-6.1136,-6.1381,-6.1399,-6.1815,-6.1996,-6.1996,-6.1996,-6.185,-6.1636,-6.1636,-6.1494,-6.1328,-6.1328,-6.1328,-6.1328,-6.1223,-6.127,-6.1328,-6.1241,-6.127,-6.1328,-6.1328,-6.1328,-6.1328,-6.1328,-6.1328,-6.1328,-6.1328,-6.1328,-6.1328,-6.1328,-6.1328,-6.1299,-6.1223,-6.1193,-6.1241,-6.1299,-6.1328,-6.1328,-6.1328,-6.1494,-6.1636,-6.1636,-6.1822,-6.1996,-6.1996,-6.1996,-6.1996,-6.1996,-6.1996,-6.1996,-6.1996,-6.1797,-6.1435,-6.0819,-6.043,-5.9651,-5.8456,-5.8202,-5.7804,-5.7206,-5.737,-5.7236,-5.6899,-5.6689,-5.6689,-5.6899,-5.6707,-5.66,0.0,0.0,0.0,0.0,0.0,0.0,0.0,0.0,0.0,0.0,-5.6663,-5.7188,-5.7188,-5.7188,-5.7188,-5.7188,-5.7188,-5.7206,-5.7261,-5.7261,-5.7279,-5.7315,-5.7315,-5.7315,-5.7315,-5.8003,-5.8456,-5.8456,-5.918,-5.9615,-5.9615,-5.9615,-5.9615,-5.9615,-5.9615,-5.9615,-5.9615,-5.9615,-5.9615,-5.9615,-5.9651,-5.9669,-5.9669,-5.9724,-5.9724,-5.9814,-6.1353,-6.1996,-6.1996,-6.1996,-6.1996,-6.1978,-6.1978,-6.1969,-6.195,-6.195,-6.195,-6.1895,-6.1608,-6.1692,-6.1895,-6.1561,-6.1692,-6.195,-6.195,-6.195,-6.195,-6.195,-6.195,-6.195,-6.195,-6.195,-6.195,-6.195,-6.195,-6.1868,-6.1533,-6.1476,-6.1561,-6.1895,-6.195,-6.195,-6.195,-6.195,-6.1978,-6.1978,-6.1996,-6.1996,-6.1996,-6.1996,-6.1996,-6.1996,-6.1996,-6.1996,-6.1996,-6.129,-6.0819,-6.081,-5.9379,-5.8492,-5.8402,-5.7659,-5.7243,-5.7188,-5.7217,-5.7217,-5.7163,-5.7181,-5.7181,-5.7163,-5.7163,-5.7163,0.0,0.0,0.0,0.0,0.0,0.0,0.0,0.0,0.0,0.0,-5.6228,-5.6573,-5.7098,-5.7188,-5.7188,-5.7188,-5.7188,-5.7188,-5.7188,-5.7188,-5.7188,-5.7188,-5.7188,-5.7188,-5.7188,-5.746,-5.7623,-5.7623,-5.7895,-5.8058,-5.8058,-5.8058,-5.8058,-5.8058,-5.8058,-5.8058,-5.8058,-5.8058,-5.8058,-5.8076,-5.8583,-5.8836,-5.8854,-5.9361,-5.9615,-5.9633,-6.0212,-6.0756,-6.1218,-6.1218,-6.1525,-6.1996,-6.1996,-6.1996,-6.1996,-6.1996,-6.1996,-6.1978,-6.185,-6.1895,-6.1978,-6.185,-6.1895,-6.1996,-6.1996,-6.1996,-6.1996,-6.1996,-6.1996,-6.1996,-6.1996,-6.1996,-6.1996,-6.1996,-6.1996,-6.1969,-6.1868,-6.1822,-6.1868,-6.1996,-6.1996,-6.1996,-6.1996,-6.1996,-6.1996,-6.1996,-6.1996,-6.1996,-6.1996,-6.1996,-6.1996,-6.1996,-6.1996,-6.1779,-6.1254,-6.0991,-6.0375,-5.9325,-5.8728,-5.8166,-5.7641,-5.7351,-5.7188,-5.7188,-5.7188,-5.7188,-5.7188,-5.7188,-5.7188,-5.7188,-5.7188,-5.7188,0.0,0.0,0.0,0.0,0.0,0.0,0.0,0.0,0.0,0.0,-5.5631,-5.6156,-5.6699,-5.7007,-5.7188,-5.7188,-5.7188,-5.7188,-5.7188,-5.7188,-5.7188,-5.7188,-5.7188,-5.7188,-5.7188,-5.7188,-5.7188,-5.7188,-5.7188,-5.7188,-5.7188,-5.7188,-5.7188,-5.7188,-5.7188,-5.7188,-5.7188,-5.7188,-5.7188,-5.7206,-5.7732,-5.8003,-5.8021,-5.8546,-5.88,-5.88,-5.88,-5.9416,-6.0412,-6.0412,-6.072,-6.1208,-6.1208,-6.1208,-6.1208,-6.1208,-6.1208,-6.1208,-6.1208,-6.1208,-6.1208,-6.1208,-6.1208,-6.1208,-6.1208,-6.1208,-6.1208,-6.1208,-6.1208,-6.1254,-6.1525,-6.1797,-6.1996,-6.1996,-6.1996,-6.1996,-6.1996,-6.1996,-6.1996,-6.1996,-6.1996,-6.1996,-6.1996,-6.1996,-6.1996,-6.1996,-6.1996,-6.1996,-6.1996,-6.1996,-6.1996,-6.1996,-6.1743,-6.1362,-6.0864,-6.0303,-5.9542,-5.8474,-5.8148,-5.775,-5.7224,-5.7188,-5.7188,-5.7188,-5.7188,-5.7188,-5.7188,-5.7188,-5.7188,-5.7188,-5.7188,-5.7333,0.0,0.0,0.0,0.0,0.0,0.0,0.0,0.0,0.0,-5.3224,-5.4852,-5.5939,-5.5957,-5.6609,-5.7152,-5.7152,-5.717,-5.7188,-5.7188,-5.7188,-5.7188,-5.7188,-5.7188,-5.7188,-5.7188,-5.7188,-5.7188,-5.7188,-5.7188,-5.7188,-5.7188,-5.7188,-5.7188,-5.7188,-5.7188,-5.7188,-5.7188,-5.7188,-5.7188,-5.7188,-5.7188,-5.7188,-5.7188,-5.7188,-5.7188,-5.7188,-5.7188,-5.8094,-5.9542,-5.9561,-5.9579,-5.9615,-5.9615,-5.9615,-5.9615,-5.9615,-5.9615,-5.9615,-5.9615,-5.9615,-5.9615,-5.9615,-5.9615,-5.9615,-5.9615,-5.9615,-5.9615,-5.9615,-5.9615,-5.9778,-6.0575,-6.1326,-6.1924,-6.1924,-6.1924,-6.1924,-6.1942,-6.196,-6.196,-6.1996,-6.1996,-6.1996,-6.1996,-6.1996,-6.1996,-6.1996,-6.1996,-6.1996,-6.1996,-6.1996,-6.1978,-6.196,-6.1281,-6.0792,-6.0738,-5.9307,-5.8402,-5.8365,-5.7623,-5.7188,-5.7188,-5.7188,-5.7188,-5.7188,-5.7188,-5.7188,-5.7188,-5.7188,-5.7206,-5.7243,-5.7261,-5.7695,-4.1604,0.0,0.0,0.0,0.0,0.0,0.0,0.0,0.0,-5.1371,-5.3062,-5.4508,-5.5106,-5.5812,-5.6319,-5.6319,-5.6808,-5.7188,-5.7188,-5.7188,-5.7188,-5.7188,-5.7188,-5.7188,-5.7188,-5.7188,-5.7188,-5.7188,-5.7188,-5.7188,-5.7188,-5.7188,-5.7188,-5.7188,-5.7188,-5.7188,-5.7188,-5.7188,-5.7188,-5.7188,-5.7188,-5.7188,-5.7188,-5.7188,-5.7188,-5.7188,-5.7188,-5.7442,-5.7913,-5.8492,-5.9072,-5.9615,-5.9615,-5.9615,-5.9615,-5.9615,-5.9615,-5.9615,-5.9615,-5.9615,-5.9615,-5.9615,-5.9615,-5.9615,-5.9615,-5.9615,-5.9615,-5.9615,-5.9615,-5.9651,-5.9868,-6.0104,-6.0267,-6.0267,-6.0267,-6.043,-6.1,-6.1109,-6.129,-6.1869,-6.1996,-6.1996,-6.1996,-6.1996,-6.1996,-6.1996,-6.1996,-6.1996,-6.1996,-6.1996,-6.1761,-6.1208,-6.091,-6.0339,-5.9162,-5.8655,-5.8148,-5.7569,-5.7315,-5.7188,-5.7188,-5.7188,-5.7188,-5.7188,-5.7188,-5.7188,-5.7188,-5.7188,-5.7496,-5.8076,-5.8655,-5.9072,0.0,0.0,0.0,0.0,0.0,0.0,-4.4852,-4.6854,-4.8977,0.0,-5.2689,-5.3838,-5.4309,-5.5015,-5.554,-5.554,-5.5939,-5.6464,-5.7098,-5.7188,-5.7188,-5.7188,-5.7188,-5.7188,-5.7188,-5.7188,-5.7188,-5.7188,-5.7188,-5.7188,-5.7188,-5.7188,-5.7188,-5.7188,-5.7188,-5.7188,-5.7188,-5.7188,-5.7188,-5.7188,-5.7188,-5.7188,-5.7188,-5.7188,-5.7188,-5.7188,-5.7188,-5.7188,-5.7243,-5.7713,-5.8184,-5.8601,-5.8601,-5.8601,-5.8601,-5.8601,-5.8601,-5.8601,-5.8601,-5.8601,-5.8601,-5.8601,-5.8601,-5.8601,-5.8601,-5.8601,-5.8601,-5.8601,-5.8836,-5.9108,-5.9108,-5.9361,-5.9615,-5.9615,-5.9615,-5.9742,-6.0212,-6.0303,-6.0647,-6.1761,-6.1996,-6.1996,-6.1996,-6.1996,-6.1869,-6.1543,-6.1489,-6.1362,-6.1045,-6.1009,-6.0828,-6.0357,-6.0013,-5.9416,-5.8474,-5.8094,-5.7695,-5.7224,-5.7188,-5.7188,-5.7188,-5.7188,-5.7188,-5.7188,-5.7188,-5.7188,-5.7188,-5.7532,-5.8112,-5.8927,-5.9742,-6.0104,0.0,0.0,0.0,-4.1403,-4.1261,0.0,-4.548,-4.6312,-4.7358,-5.0811,-5.2273,-5.2929,-5.2929,-5.3598,-5.414,-5.414,-5.4382,-5.5136,-5.6717,-5.6935,-5.6971,-5.7062,-5.7062,-5.7098,-5.7188,-5.7188,-5.7188,-5.7188,-5.7188,-5.7188,-5.7188,-5.7188,-5.7188,-5.7188,-5.7188,-5.7188,-5.7188,-5.7188,-5.7188,-5.7188,-5.7188,-5.7188,-5.7188,-5.7188,-5.7188,-5.7188,-5.7188,-5.7188,-5.7188,-5.7188,-5.7188,-5.7188,-5.7188,-5.7188,-5.7188,-5.7188,-5.7188,-5.7188,-5.7188,-5.7188,-5.7188,-5.7188,-5.7188,-5.7188,-5.7188,-5.7188,-5.7188,-5.7188,-5.7713,-5.8275,-5.8275,-5.88,-5.9343,-5.9343,-5.9343,-5.9361,-5.9452,-5.947,-5.9923,-6.1435,-6.1725,-6.1725,-6.1725,-6.1725,-6.1471,-6.0774,-6.0683,-6.043,-5.9705,-5.9615,-5.9579,-5.9488,-5.8836,-5.8365,-5.8275,-5.7605,-5.7188,-5.7188,-5.7188,-5.7188,-5.7188,-5.7188,-5.7188,-5.7188,-5.7188,-5.7243,-5.7333,-5.8148,-5.8854,-5.9488,-6.0303,-6.0683,-4.2004,-4.1582,-4.1538,-4.1426,-4.1295,0.0,-4.2056,-4.3325,-4.4589,0.0,-4.6867,-4.8075,-4.8075,-4.8805,-4.9412,-4.9412,-5.1227,-5.3285,-5.51,-5.5359,-5.5577,-5.6156,-5.6228,-5.6482,-5.7134,-5.7188,-5.7188,-5.7188,-5.7188,-5.7188,-5.7188,-5.7188,-5.7188,-5.7188,-5.7188,-5.7188,-5.7188,-5.7188,-5.7188,-5.7188,-5.7188,-5.7188,-5.7188,-5.7188,-5.7188,-5.7188,-5.7188,-5.7188,-5.7188,-5.7188,-5.7188,-5.7188,-5.7188,-5.7188,-5.7188,-5.7188,-5.7188,-5.7188,-5.7188,-5.7188,-5.7188,-5.7188,-5.7188,-5.7188,-5.7188,-5.7188,-5.7188,-5.7188,-5.7315,-5.7424,-5.7424,-5.755,-5.7677,-5.7677,-5.7677,-5.784,-5.8492,-5.8637,-5.8927,-5.9887,-6.0086,-6.0086,-6.0086,-6.0086,-6.0013,-5.9868,-5.9832,-5.9778,-5.9633,-5.9615,-5.9361,-5.8709,-5.8492,-5.8148,-5.7496,-5.7279,-5.7188,-5.7188,-5.7188,-5.7188,-5.7188,-5.7188,-5.7188,-5.7188,-5.7188,-5.7514,-5.8166,-5.8981,-5.9108,-5.8655,-5.947,-5.9832,-4.2075,-4.156,-4.1493,-4.1426,-4.1295,0.0,0.0,-4.3273,-4.4185,-4.5146,-4.6064,-4.6708,-4.6795,-4.7185,-4.7499,-4.7551,-4.9469,-5.095,-5.0968,-5.3225,-5.5051,-5.5414,-5.545,-5.5613,-5.6011,-5.6047,-5.6047,-5.6047,-5.6047,-5.621,-5.6573,-5.6591,-5.679,-5.7188,-5.7188,-5.7188,-5.7188,-5.7188,-5.7188,-5.7188,-5.7188,-5.7188,-5.7188,-5.7188,-5.7188,-5.7188,-5.7188,-5.7188,-5.7188,-5.7188,-5.7188,-5.7188,-5.7188,-5.7188,-5.7188,-5.7188,-5.7188,-5.7188,-5.7188,-5.7188,-5.7188,-5.7188,-5.7188,-5.7188,-5.7188,-5.7188,-5.7188,-5.7188,-5.7188,-5.7188,-5.7188,-5.7188,-5.7188,-5.7188,-5.7188,-5.7315,-5.7713,-5.7804,-5.7913,-5.8329,-5.8402,-5.8655,-5.947,-5.9615,-5.947,-5.9072,-5.8999,-5.8854,-5.8456,-5.8402,-5.8257,-5.784,-5.7804,-5.7641,-5.7224,-5.7188,-5.7188,-5.7188,-5.7188,-5.7188,-5.7188,-5.7188,-5.7188,-5.7188,-5.7587,-5.7804,-5.7804,-5.8619,-5.8999,-5.9017,-5.9416,-5.9615,-4.2185,-4.1515,-4.1448,-4.1448,-4.134,-4.1654,0.0,0.0,0.0,-4.5462,-4.5705,0.0,0.0,0.0,0.0,-4.5904,0.0,0.0,0.0,-5.0471,0.0,-5.3592,-5.4243,-5.4593,-5.4388,-5.4345,-5.4514,-5.4888,-5.4569,-5.4768,-5.574,-5.5776,-5.6138,-5.6935,-5.6971,-5.7043,-5.7188,-5.7188,-5.7188,-5.7188,-5.7188,-5.7188,-5.7188,-5.7188,-5.7188,-5.7188,-5.7188,-5.7188,-5.7188,-5.7188,-5.7188,-5.7188,-5.7188,-5.7188,-5.7188,-5.7188,-5.7188,-5.7188,-5.7188,-5.7188,-5.7188,-5.7188,-5.7188,-5.7188,-5.7188,-5.7188,-5.7188,-5.7188,-5.7188,-5.7188,-5.7188,-5.7188,-5.7188,-5.7188,-5.7188,-5.7188,-5.7188,-5.7188,-5.7188,-5.7188,-5.7188,-5.7605,-5.8909,-5.9144,-5.8927,-5.8275,-5.8166,-5.7931,-5.7279,-5.7188,-5.7188,-5.7188,-5.7188,-5.7188,-5.7188,-5.7188,-5.7188,-5.7188,-5.7188,-5.7188,-5.7188,-5.7188,-5.7188,-5.7188,-5.784,-5.784,-5.7188,-5.784,-5.851,-5.9144,-5.9144,-5.9144,-4.2533,-4.1582,-4.1582,-4.1582,-4.1493,-4.1438,-4.1658,0.0,-4.1568,-4.1725,0.0,-4.18,-4.176,0.0,0.0,-4.2023,-4.3668,-4.4849,-4.4649,-4.6516,-4.8158,-4.8898,-5.1831,-5.3459,-5.2492,-5.242,-5.3105,-5.4774,-5.3364,-5.3177,-5.4919,-5.5033,-5.5377,-5.6102,-5.6138,-5.6482,-5.7188,-5.7188,-5.7188,-5.7188,-5.7188,-5.7188,-5.7188,-5.7188,-5.7188,-5.7188,-5.7188,-5.7188,-5.7188,-5.7188,-5.7188,-5.7188,-5.7188,-5.7188,-5.7188,-5.7188,-5.7188,-5.7188,-5.7188,-5.7188,-5.7188,-5.7188,-5.7188,-5.7188,-5.7188,-5.7188,-5.7188,-5.7188,-5.7188,-5.7188,-5.7188,-5.7188,-5.7188,-5.7188,-5.7188,-5.7188,-5.7188,-5.7188,-5.7188,-5.7188,-5.7188,-5.7261,-5.7442,-5.746,-5.7442,-5.7351,-5.7333,-5.7297,-5.7206,-5.7188,-5.7188,-5.7188,-5.7188,-5.7188,-5.7188,-5.7188,-5.7188,-5.7188,-5.7188,-5.7188,-5.7188,-5.7188,-5.7188,-5.7188,-5.7279,-5.7279,-5.7188,-5.7279,-5.7387,-5.746,-5.746,-5.746,-4.2295,-4.2366,-4.2913,-4.1859,-4.2361,-4.2828,-4.177,-4.1408,-4.1295,-4.1284,0.0,0.0,0.0,0.0,0.0,0.0,-4.3071,-4.3917,0.0,0.0,-4.7142,-4.7464,-4.886,-5.0057,-5.0692,-5.1734,-5.2658,-5.3458,-5.279,-5.2875,-5.4146,-5.42,-5.4562,-5.5341,-5.5359,-5.5721,-5.65,-5.65,-5.6736,-5.7188,-5.7188,-5.7188,-5.7188,-5.7188,-5.7188,-5.7188,-5.7188,-5.7188,-5.7188,-5.7188,-5.7188,-5.7188,-5.7188,-5.7188,-5.7188,-5.7188,-5.7188,-5.7188,-5.7188,-5.7188,-5.7188,-5.7188,-5.7188,-5.7188,-5.7188,-5.7188,-5.7188,-5.7188,-5.7188,-5.7188,-5.7188,-5.7188,-5.7188,-5.7188,-5.7188,-5.7188,-5.7188,-5.7188,-5.7188,-5.7188,-5.7188,-5.7188,-5.7188,-5.7188,-5.7188,-5.7188,-5.7188,-5.7188,-5.7188,-5.7188,-5.7188,-5.7188,-5.7188,-5.7188,-5.7188,-5.7188,-5.7188,-5.7188,-5.7188,-5.7188,-5.7188,-5.7188,-5.7188,-5.7188,-5.7188,-5.7188,-5.7188,-5.7188,-5.7188,-5.7188,-5.7188,-5.7188,-4.2966,-4.3297,-4.3881,-4.204,-4.2586,-4.3204,-4.1894,-4.1515,-4.1448,-4.1403,-4.134,0.0,0.0,0.0,-4.1493,-4.1582,0.0,-4.3116,-4.1767,-4.3864,-4.553,-4.553,-4.5949,-4.6976,-4.8834,-5.0222,-5.122,-5.1718,-5.1754,-5.2211,-5.3313,-5.3367,-5.3748,-5.4562,-5.4581,-5.4925,-5.5685,-5.5884,-5.6283,-5.6862,-5.708,-5.7188,-5.7188,-5.7188,-5.7188,-5.7188,-5.7188,-5.7188,-5.7188,-5.7188,-5.7188,-5.7188,-5.7188,-5.7188,-5.7188,-5.7188,-5.7188,-5.7188,-5.7188,-5.7188,-5.7188,-5.7188,-5.7188,-5.7188,-5.7188,-5.7188,-5.7188,-5.7188,-5.7188,-5.7188,-5.7188,-5.7188,-5.7188,-5.7188,-5.7188,-5.7188,-5.7188,-5.7188,-5.7188,-5.7188,-5.7188,-5.7188,-5.7188,-5.7188,-5.7188,-5.7188,-5.7188,-5.7188,-5.7188,-5.7188,-5.7188,-5.7188,-5.7188,-5.7188,-5.7188,-5.7188,-5.7188,-5.7188,-5.7188,-5.7188,-5.7188,-5.7188,-5.7188,-5.7188,-5.7188,-5.7188,-5.7188,-5.7188,-5.7188,-5.7188,-5.7188,-5.7188,-4.5196,-4.4245,-4.3881,-4.204,-4.1639,-4.1657,-4.1604,-4.1604,-4.156,-4.1426,-4.1493,-4.156,-4.1426,-4.1515,-4.1604,-4.1604,-4.1639,0.0,0.0,-4.1714,-4.1767,-4.1767,-4.3315,-4.5107,-4.6905,-4.7147,-4.7935,-4.9757,-4.9906,-5.0664,-5.2444,-5.2534,-5.2915,-5.3711,-5.3748,-5.4128,-5.4943,-5.5631,-5.6011,-5.6047,-5.6826,-5.7188,-5.7188,-5.7188,-5.7188,-5.7188,-5.7188,-5.7188,-5.7188,-5.7188,-5.7188,-5.7188,-5.7188,-5.7188,-5.7188,-5.7188,-5.7188,-5.7188,-5.7188,-5.7188,-5.7188,-5.7188,-5.7188,-5.7188,-5.7188,-5.7188,-5.7188,-5.7188,-5.7188,-5.7188,-5.7188,-5.7188,-5.7188,-5.7188,-5.7188,-5.7188,-5.7188,-5.7188,-5.7188,-5.7188,-5.7188,-5.7188,-5.7188,-5.7188,-5.7188,-5.7188,-5.7188,-5.7188,-5.7188,-5.7188,-5.7188,-5.7188,-5.7188,-5.7188,-5.7188,-5.7188,-5.7188,-5.7188,-5.7188,-5.7188,-5.7188,-5.7188,-5.7188,-5.7188,-5.7188,-5.7188,-5.7188,-5.7188,-5.7188,-5.7188,-5.7188,-5.7188,-4.7377,-4.7745,-4.7821,-4.428,-4.4303,-4.4538,-4.215,-4.1604,-4.1582,-4.1538,-4.156,-4.1582,-4.1538,-4.156,-4.1604,-4.1604,-4.1604,-4.1604,0.0,-4.1604,-4.1604,-4.1604,-4.3187,-4.4578,-4.5267,-4.746,-4.9135,-4.9812,-5.0931,-5.185,-5.2462,-5.2498,-5.2625,-5.2896,-5.2915,-5.3295,-5.411,-5.4345,-5.4979,-5.5993,-5.6265,-5.6681,-5.7188,-5.7188,-5.7188,-5.7188,-5.7188,-5.7188,-5.7188,-5.7188,-5.7188,-5.7188,-5.7188,-5.7188,-5.7188,-5.7188,-5.7188,-5.7188,-5.7188,-5.7188,-5.7188,-5.7188,-5.7188,-5.7188,-5.7188,-5.7188,-5.7188,-5.7188,-5.7188,-5.7188,-5.7188,-5.7188,-5.7188,-5.7188,-5.7188,-5.7188,-5.7188,-5.7188,-5.7188,-5.7188,-5.7188,-5.7188,-5.7188,-5.7188,-5.7188,-5.7188,-5.7188,-5.7188,-5.7188,-5.7188,-5.7188,-5.7188,-5.7188,-5.7188,-5.7188,-5.7188,-5.7188,-5.7188,-5.7188,-5.7188,-5.7188,-5.7188,-5.7188,-5.7188,-5.7188,-5.7188,-5.7188,-5.7188,-5.7188,-5.7188,-5.7188,-5.7188,-4.9918,-5.0437,-5.0473,-4.6987,-4.6778,-4.6654,-4.3668,-4.2762,-4.2568,-4.2568,-4.204,-4.2004,-4.3279,-4.2458,-4.1802,-4.2458,-4.2066,-4.1692,0.0,-4.1732,-4.1732,-4.1732,-4.2728,-4.3674,-4.4352,-4.657,-4.8524,-4.9758,-5.0918,-5.1836,-5.2462,-5.2498,-5.2498,-5.2498,-5.2498,-5.2752,-5.3277,-5.3566,-5.42,-5.5178,-5.574,-5.6265,-5.6772,-5.7062,-5.7188,-5.7188,-5.7188,-5.7188,-5.7188,-5.7188,-5.7188,-5.7188,-5.7188,-5.7188,-5.7188,-5.7188,-5.7188,-5.7188,-5.7188,-5.7188,-5.7188,-5.7188,-5.7188,-5.7188,-5.7188,-5.7188,-5.7261,-5.755,-5.7424,-5.7261,-5.755,-5.7406,-5.7188,-5.7188,-5.7188,-5.7188,-5.7188,-5.7188,-5.7188,-5.7188,-5.7188,-5.7188,-5.7188,-5.7188,-5.7188,-5.7188,-5.7188,-5.7188,-5.7188,-5.7188,-5.7188,-5.7188,-5.7188,-5.7188,-5.7188,-5.7188,-5.7188,-5.7188,-5.7188,-5.7188,-5.7188,-5.7188,-5.7188,-5.7188,-5.7188,-5.7188,-5.7188,-5.7188,-5.7188,-5.7188,-5.7188,-5.7188]},{"header":{"parameterUnit":"m.s-1","parameterCategory":1,"la1":30.6,"la2":29.2853,"lo1":-89.7004,"lo2":-87.6739,"dy":0.0162,"dx":0.0183,"nx":112,"ny":82,"refTime":"2023-08-05T12:00:00:Z","depth":0,"parameterNumber":3,"parameterNumberName":"V-component_of_WINDS"},"data":[0.0,0.0,0.0,0.0,0.0,0.0,0.0,0.0,0.0,0.0,0.0,0.0,0.0,0.0,0.0,0.0,0.0,0.0,0.0,0.0,0.0,0.0,0.0,0.0,0.0,0.0,0.0,0.0,0.0,0.0,0.0,0.0,0.0,0.0,0.0,0.0,0.0,0.0,0.0,0.0,0.0,0.0,0.0,0.0,0.0,0.0,0.0,0.0,0.0,0.0,0.0,0.0,0.0,0.0,0.0,0.0,0.0,0.0,0.0,0.0,0.0,0.0,0.0,0.0,0.0,0.0,0.0,0.0,0.0,0.0,0.0,0.0,0.0,0.0,0.0,0.0,0.0,0.0,0.0,0.0,0.0,0.0,0.0,0.0,0.0,0.0,0.0,0.0,0.0,0.0,-2.9022,-2.8932,-2.8729,-2.8618,-2.8618,-2.8255,-2.846,-2.9446,0.0,0.0,0.0,0.0,0.0,0.0,0.0,0.0,0.0,0.0,0.0,0.0,0.0,0.0,0.0,0.0,0.0,0.0,0.0,0.0,0.0,0.0,0.0,0.0,0.0,0.0,0.0,0.0,0.0,0.0,0.0,0.0,0.0,0.0,0.0,0.0,0.0,0.0,0.0,0.0,0.0,0.0,0.0,0.0,0.0,0.0,0.0,0.0,0.0,0.0,0.0,0.0,0.0,0.0,0.0,0.0,0.0,0.0,0.0,0.0,0.0,0.0,0.0,0.0,0.0,0.0,0.0,0.0,0.0,0.0,0.0,0.0,0.0,0.0,0.0,0.0,0.0,0.0,0.0,0.0,0.0,0.0,0.0,0.0,0.0,0.0,0.0,0.0,0.0,0.0,0.0,0.0,0.0,0.0,0.0,0.0,0.0,0.0,0.0,0.0,0.0,0.0,0.0,0.0,-2.9157,-2.8712,-2.8624,-2.8618,-2.8618,-2.8545,-2.8936,-2.9936,0.0,0.0,0.0,0.0,0.0,0.0,0.0,0.0,0.0,0.0,0.0,0.0,0.0,0.0,0.0,0.0,0.0,0.0,0.0,0.0,0.0,0.0,0.0,0.0,0.0,0.0,0.0,0.0,0.0,0.0,0.0,0.0,0.0,0.0,0.0,0.0,0.0,0.0,0.0,0.0,0.0,0.0,0.0,0.0,0.0,0.0,0.0,0.0,0.0,0.0,0.0,0.0,0.0,0.0,0.0,0.0,0.0,0.0,0.0,0.0,0.0,0.0,0.0,0.0,0.0,0.0,0.0,0.0,0.0,0.0,0.0,0.0,0.0,0.0,0.0,0.0,0.0,0.0,0.0,0.0,0.0,0.0,0.0,0.0,0.0,0.0,0.0,0.0,0.0,0.0,0.0,0.0,0.0,0.0,0.0,0.0,0.0,0.0,0.0,0.0,0.0,0.0,0.0,-3.0468,-3.0274,-2.9444,-2.9363,-2.9363,-2.9363,-2.9135,-2.9539,-3.0827,-2.9985,0.0,0.0,0.0,0.0,0.0,0.0,0.0,0.0,0.0,0.0,0.0,0.0,0.0,0.0,0.0,0.0,0.0,0.0,0.0,0.0,0.0,0.0,0.0,0.0,0.0,0.0,0.0,0.0,0.0,0.0,0.0,0.0,0.0,0.0,0.0,0.0,0.0,0.0,0.0,0.0,0.0,0.0,0.0,0.0,0.0,0.0,0.0,0.0,0.0,0.0,0.0,0.0,0.0,0.0,0.0,0.0,0.0,0.0,0.0,0.0,0.0,0.0,0.0,0.0,0.0,0.0,0.0,0.0,0.0,0.0,0.0,0.0,0.0,0.0,0.0,0.0,0.0,0.0,0.0,0.0,0.0,0.0,0.0,0.0,0.0,0.0,0.0,0.0,0.0,0.0,0.0,0.0,0.0,0.0,0.0,0.0,0.0,0.0,0.0,0.0,0.0,0.0,-3.1114,-3.0911,-3.0109,-2.9994,-2.9994,-2.9994,-2.9673,-3.0069,-3.1494,-3.0767,0.0,0.0,0.0,0.0,0.0,0.0,0.0,0.0,0.0,0.0,0.0,0.0,0.0,0.0,0.0,0.0,0.0,0.0,0.0,0.0,0.0,0.0,0.0,0.0,0.0,0.0,0.0,0.0,0.0,0.0,0.0,0.0,0.0,0.0,0.0,0.0,0.0,0.0,0.0,0.0,0.0,0.0,0.0,0.0,0.0,0.0,0.0,0.0,0.0,0.0,0.0,0.0,0.0,0.0,0.0,0.0,0.0,0.0,0.0,0.0,0.0,0.0,0.0,0.0,0.0,0.0,0.0,0.0,0.0,0.0,0.0,0.0,0.0,0.0,0.0,0.0,0.0,0.0,0.0,0.0,0.0,0.0,0.0,0.0,0.0,0.0,0.0,0.0,0.0,0.0,0.0,0.0,0.0,0.0,0.0,0.0,0.0,0.0,0.0,0.0,0.0,0.0,-3.071,-3.0057,-2.9994,-2.9994,-2.9994,-2.9994,-2.9963,-3.0418,-3.1506,-3.1091,0.0,0.0,0.0,0.0,0.0,0.0,0.0,0.0,0.0,0.0,0.0,0.0,0.0,0.0,0.0,0.0,0.0,0.0,0.0,0.0,0.0,0.0,0.0,0.0,0.0,0.0,0.0,0.0,0.0,0.0,0.0,0.0,0.0,0.0,0.0,0.0,0.0,0.0,0.0,0.0,0.0,0.0,0.0,0.0,0.0,0.0,0.0,0.0,0.0,0.0,0.0,0.0,0.0,0.0,0.0,0.0,0.0,0.0,0.0,0.0,0.0,0.0,0.0,0.0,0.0,0.0,0.0,0.0,0.0,0.0,0.0,0.0,0.0,0.0,0.0,0.0,0.0,0.0,0.0,0.0,0.0,0.0,0.0,0.0,0.0,0.0,0.0,0.0,0.0,0.0,0.0,0.0,0.0,0.0,0.0,0.0,0.0,0.0,0.0,0.0,0.0,0.0,-3.1099,-3.0536,-3.0047,-2.9994,-2.9994,-2.9994,-2.9994,-3.0577,-3.2001,0.0,0.0,0.0,0.0,0.0,0.0,0.0,0.0,0.0,0.0,0.0,0.0,0.0,0.0,0.0,0.0,0.0,0.0,0.0,0.0,0.0,0.0,0.0,0.0,0.0,0.0,0.0,0.0,0.0,0.0,0.0,0.0,0.0,0.0,0.0,0.0,0.0,0.0,0.0,0.0,0.0,0.0,0.0,0.0,0.0,0.0,0.0,0.0,0.0,0.0,0.0,0.0,0.0,0.0,0.0,0.0,0.0,0.0,0.0,0.0,0.0,0.0,0.0,0.0,0.0,0.0,0.0,0.0,0.0,0.0,0.0,0.0,0.0,0.0,0.0,0.0,0.0,0.0,0.0,0.0,0.0,0.0,0.0,0.0,0.0,0.0,0.0,0.0,0.0,0.0,0.0,0.0,0.0,0.0,0.0,0.0,0.0,0.0,0.0,0.0,0.0,0.0,-3.1799,-3.1247,-3.0588,-3.0047,-2.9994,-2.9994,-2.9994,-2.9994,-3.0703,-3.2308,0.0,0.0,0.0,0.0,0.0,0.0,0.0,0.0,0.0,0.0,0.0,0.0,0.0,0.0,0.0,0.0,0.0,0.0,0.0,0.0,0.0,0.0,0.0,0.0,0.0,0.0,0.0,0.0,0.0,0.0,0.0,0.0,0.0,0.0,0.0,0.0,0.0,0.0,0.0,0.0,0.0,0.0,0.0,0.0,0.0,0.0,0.0,0.0,0.0,0.0,0.0,0.0,0.0,0.0,0.0,0.0,0.0,0.0,0.0,0.0,0.0,0.0,0.0,0.0,0.0,0.0,0.0,0.0,0.0,0.0,0.0,0.0,0.0,0.0,0.0,0.0,0.0,0.0,0.0,0.0,0.0,0.0,0.0,0.0,0.0,0.0,0.0,0.0,0.0,0.0,0.0,0.0,0.0,0.0,0.0,0.0,0.0,0.0,0.0,0.0,0.0,0.0,-3.2303,-3.1013,-2.9994,-2.9994,-2.9994,-2.9994,-2.9994,-2.9994,-3.0703,0.0,0.0,0.0,0.0,0.0,0.0,0.0,0.0,0.0,0.0,0.0,0.0,0.0,0.0,0.0,0.0,0.0,0.0,0.0,0.0,0.0,0.0,0.0,0.0,0.0,0.0,0.0,0.0,0.0,0.0,0.0,0.0,0.0,0.0,0.0,0.0,0.0,0.0,0.0,0.0,0.0,0.0,0.0,0.0,0.0,0.0,0.0,0.0,0.0,0.0,0.0,0.0,0.0,0.0,0.0,0.0,0.0,0.0,0.0,0.0,0.0,0.0,0.0,0.0,0.0,0.0,0.0,0.0,0.0,0.0,0.0,0.0,0.0,0.0,0.0,0.0,0.0,0.0,0.0,0.0,0.0,0.0,0.0,0.0,0.0,0.0,0.0,0.0,0.0,0.0,0.0,0.0,0.0,0.0,0.0,0.0,0.0,0.0,0.0,0.0,0.0,0.0,0.0,-3.2824,-3.1206,-2.9994,-2.9994,-2.9994,-2.9994,-2.9994,-2.9994,-3.084,-3.2862,0.0,0.0,0.0,0.0,0.0,0.0,0.0,0.0,0.0,0.0,0.0,0.0,0.0,0.0,0.0,0.0,0.0,0.0,0.0,0.0,0.0,0.0,0.0,0.0,0.0,0.0,0.0,0.0,0.0,0.0,0.0,0.0,0.0,0.0,0.0,0.0,0.0,0.0,0.0,0.0,0.0,0.0,0.0,0.0,0.0,0.0,0.0,0.0,0.0,0.0,0.0,0.0,0.0,0.0,0.0,0.0,0.0,0.0,0.0,0.0,0.0,0.0,0.0,0.0,0.0,0.0,0.0,0.0,0.0,0.0,0.0,0.0,0.0,0.0,0.0,0.0,0.0,0.0,0.0,0.0,0.0,0.0,0.0,0.0,0.0,0.0,0.0,0.0,0.0,0.0,0.0,0.0,0.0,0.0,0.0,0.0,0.0,0.0,0.0,0.0,0.0,0.0,-3.307,-3.1515,-3.0274,-3.0274,-3.0439,-3.047,-3.0284,-3.0274,-3.0863,-3.2332,0.0,0.0,0.0,0.0,0.0,0.0,0.0,0.0,0.0,0.0,0.0,0.0,0.0,0.0,0.0,0.0,0.0,0.0,0.0,0.0,0.0,0.0,0.0,0.0,0.0,0.0,0.0,0.0,0.0,0.0,0.0,0.0,0.0,0.0,0.0,0.0,0.0,0.0,0.0,0.0,0.0,0.0,0.0,0.0,0.0,0.0,0.0,0.0,0.0,0.0,0.0,0.0,0.0,0.0,0.0,0.0,0.0,0.0,0.0,0.0,0.0,0.0,0.0,0.0,0.0,0.0,0.0,0.0,0.0,0.0,0.0,0.0,0.0,0.0,0.0,0.0,0.0,0.0,0.0,0.0,0.0,0.0,0.0,0.0,0.0,0.0,0.0,0.0,0.0,0.0,0.0,0.0,0.0,0.0,0.0,0.0,0.0,0.0,0.0,0.0,0.0,0.0,-3.3283,-3.1858,-3.075,-3.075,-3.1122,-3.1205,-3.0791,-3.0708,-3.0873,-3.1286,0.0,0.0,0.0,0.0,0.0,0.0,0.0,0.0,0.0,0.0,0.0,0.0,0.0,0.0,0.0,0.0,0.0,0.0,0.0,0.0,0.0,0.0,0.0,0.0,0.0,0.0,0.0,0.0,0.0,0.0,0.0,0.0,0.0,0.0,0.0,0.0,0.0,0.0,0.0,0.0,0.0,0.0,0.0,0.0,0.0,0.0,0.0,0.0,0.0,0.0,0.0,0.0,0.0,0.0,0.0,0.0,0.0,0.0,0.0,0.0,-2.9429,-2.9234,0.0,0.0,0.0,0.0,0.0,0.0,0.0,0.0,0.0,0.0,0.0,0.0,0.0,0.0,0.0,0.0,0.0,0.0,0.0,0.0,0.0,0.0,0.0,0.0,0.0,0.0,0.0,0.0,0.0,0.0,0.0,0.0,0.0,0.0,0.0,0.0,0.0,0.0,0.0,0.0,-3.4311,-3.2555,-3.1236,-3.1236,-3.1319,-3.134,-3.1236,-3.0895,-3.1209,-3.2286,-3.1902,0.0,0.0,0.0,0.0,0.0,0.0,0.0,0.0,0.0,0.0,0.0,0.0,0.0,0.0,0.0,0.0,0.0,0.0,0.0,0.0,0.0,0.0,0.0,0.0,0.0,0.0,0.0,0.0,0.0,0.0,0.0,0.0,0.0,0.0,0.0,0.0,0.0,0.0,0.0,0.0,0.0,0.0,0.0,0.0,0.0,0.0,0.0,0.0,0.0,0.0,0.0,0.0,0.0,0.0,0.0,0.0,0.0,0.0,0.0,-3.044,-3.0228,0.0,0.0,0.0,0.0,0.0,0.0,0.0,0.0,0.0,0.0,0.0,0.0,0.0,0.0,0.0,0.0,0.0,0.0,0.0,0.0,0.0,0.0,0.0,0.0,0.0,0.0,0.0,0.0,0.0,0.0,0.0,0.0,0.0,0.0,0.0,0.0,0.0,0.0,0.0,0.0,-3.4648,-3.2963,-3.1702,-3.1702,-3.1899,-3.194,-3.1712,-3.1474,-3.1558,-3.2048,-3.1998,0.0,0.0,0.0,0.0,0.0,0.0,0.0,0.0,0.0,0.0,0.0,0.0,0.0,0.0,0.0,0.0,0.0,0.0,0.0,0.0,0.0,0.0,0.0,0.0,0.0,0.0,0.0,0.0,0.0,0.0,0.0,0.0,0.0,0.0,0.0,0.0,0.0,0.0,0.0,0.0,0.0,0.0,0.0,0.0,0.0,0.0,0.0,0.0,0.0,0.0,0.0,0.0,0.0,-3.1659,-3.165,-3.1726,-3.1726,-3.1677,-3.1591,-3.1201,-3.1106,-3.1179,-3.1167,0.0,0.0,0.0,0.0,0.0,0.0,0.0,0.0,0.0,0.0,0.0,0.0,0.0,0.0,0.0,0.0,0.0,0.0,0.0,0.0,0.0,0.0,-3.0926,-3.0926,-3.0758,-3.0485,-3.0072,0.0,0.0,0.0,0.0,0.0,0.0,0.0,0.0,0.0,0.0,0.0,-3.4545,-3.313,-3.2101,-3.2101,-3.2452,-3.2514,-3.2132,-3.2029,-3.1888,-3.1516,-3.209,-3.2384,0.0,0.0,0.0,0.0,0.0,0.0,0.0,0.0,0.0,0.0,0.0,0.0,0.0,0.0,0.0,0.0,0.0,0.0,0.0,0.0,0.0,0.0,0.0,0.0,0.0,0.0,0.0,0.0,0.0,0.0,0.0,0.0,-2.7417,-2.7761,0.0,0.0,0.0,0.0,0.0,0.0,0.0,0.0,0.0,0.0,0.0,0.0,0.0,-3.2477,-3.314,-3.2448,-3.2286,-3.2701,-3.2206,-3.2149,-3.2534,-3.2534,-3.2519,-3.2514,-3.2452,0.0,-3.205,-3.2041,0.0,0.0,0.0,0.0,0.0,0.0,0.0,0.0,0.0,0.0,0.0,0.0,0.0,0.0,0.0,0.0,0.0,0.0,0.0,0.0,0.0,0.0,-3.1304,-3.1304,-3.1304,-3.1272,-3.1202,-3.1487,-3.1951,-3.2745,-3.2993,-3.3393,0.0,0.0,0.0,0.0,0.0,0.0,-3.4191,-3.3226,-3.2633,-3.2633,-3.2638,-3.2649,-3.2587,-3.2215,-3.1957,-3.1895,-3.1688,-3.1962,-3.2876,-3.2485,0.0,0.0,0.0,0.0,0.0,0.0,0.0,0.0,0.0,0.0,0.0,0.0,0.0,0.0,0.0,0.0,0.0,0.0,0.0,0.0,0.0,0.0,0.0,0.0,0.0,0.0,0.0,0.0,0.0,-2.7542,-2.8256,-2.9061,-2.9357,-2.9692,0.0,0.0,0.0,0.0,0.0,0.0,0.0,0.0,0.0,-3.2932,-3.2793,-3.2824,-3.2997,-3.2675,-3.2556,-3.2765,-3.254,-3.2483,-3.2669,-3.2669,-3.2669,-3.2669,-3.2669,-3.2612,-3.2486,-3.2556,-3.2748,-3.2965,0.0,0.0,0.0,0.0,-3.1858,-3.1742,-3.1677,-3.1578,-3.1514,-3.1874,0.0,0.0,0.0,0.0,0.0,0.0,0.0,-3.2156,-3.1841,-3.1688,-3.1589,-3.1425,-3.1381,-3.1443,-3.1702,-3.1863,-3.2152,-3.279,-3.3356,-3.4171,-3.5706,-3.5632,0.0,0.0,0.0,-3.4586,-3.4043,-3.3208,-3.2669,-3.2669,-3.2669,-3.2669,-3.2669,-3.2483,-3.237,-3.237,-3.2002,-3.1954,-3.2473,-3.2545,-3.2994,0.0,0.0,0.0,0.0,0.0,0.0,0.0,0.0,0.0,0.0,0.0,0.0,0.0,0.0,0.0,0.0,0.0,0.0,0.0,0.0,0.0,0.0,0.0,0.0,0.0,0.0,0.0,0.0,-2.8549,-2.919,-3.0292,-3.0446,-3.0639,0.0,0.0,0.0,0.0,0.0,0.0,-3.3069,-3.3263,-3.3236,-3.3051,-3.3178,-3.3142,-3.2892,-3.3016,-3.3078,-3.3078,-3.3078,-3.3078,-3.3078,-3.3078,-3.3078,-3.3078,-3.3078,-3.3078,-3.3027,-3.2899,-3.2937,-3.3061,-3.2886,-3.2921,-3.2921,-3.2681,-3.2517,-3.246,-3.2476,-3.226,-3.2096,-3.2486,-3.2427,-3.2253,-3.2418,0.0,0.0,0.0,0.0,-3.2418,-3.2088,-3.2044,-3.1989,-3.1778,-3.1805,-3.1981,-3.2313,-3.2638,-3.2874,-3.2867,-3.3349,-3.4329,-3.5837,-3.5424,0.0,-3.6339,-3.53,-3.4278,-3.3877,-3.3377,-3.3078,-3.3078,-3.3078,-3.3027,-3.2903,-3.2903,-3.2851,-3.2737,-3.2349,-3.2112,-3.1988,-3.2561,-3.2727,-3.2492,0.0,0.0,0.0,0.0,0.0,0.0,0.0,0.0,0.0,0.0,0.0,0.0,0.0,0.0,0.0,0.0,0.0,0.0,0.0,0.0,0.0,0.0,0.0,0.0,0.0,0.0,0.0,0.0,0.0,-3.1125,-3.1153,0.0,0.0,0.0,0.0,-3.2949,-3.3417,-3.3588,-3.3213,-3.3212,-3.3072,-3.2732,-3.3147,-3.3375,-3.3348,-3.3841,-3.4059,-3.4059,-3.4059,-3.4059,-3.4059,-3.4059,-3.4059,-3.4059,-3.4059,-3.4059,-3.3938,-3.3058,-3.3037,-3.3537,-3.3572,-3.373,-3.3966,-3.3674,-3.3392,-3.313,-3.2799,-3.2685,-3.2721,-3.3037,-3.33,-3.3448,-3.3233,-3.3335,0.0,0.0,-3.3176,-3.3063,-3.2721,-3.2654,-3.2664,-3.2664,-3.2985,-3.3285,-3.3306,-3.4339,-3.4741,-3.3033,-3.2753,-3.2991,-3.3646,0.0,-3.455,-3.389,-3.4715,-3.4917,-3.3622,-3.3789,-3.4059,-3.4059,-3.4059,-3.3824,-3.3379,-3.3348,-3.3172,-3.2758,-3.2659,-3.2442,-3.2008,-3.2012,-3.2372,-3.3048,-3.309,0.0,0.0,0.0,0.0,0.0,0.0,0.0,0.0,0.0,0.0,0.0,0.0,0.0,0.0,0.0,0.0,0.0,0.0,0.0,0.0,0.0,0.0,0.0,0.0,0.0,0.0,0.0,0.0,-3.118,-3.156,0.0,-3.2432,-3.2756,-3.2955,-3.2955,-3.3014,-3.3148,-3.3308,-3.334,-3.3388,-3.3575,-3.3741,-3.3824,-3.3824,-3.4049,-3.4132,-3.4132,-3.4132,-3.4132,-3.4132,-3.4132,-3.4132,-3.4132,-3.4132,-3.4132,-3.4041,-3.372,-3.3713,-3.3937,-3.3937,-3.3995,-3.4112,-3.3995,-3.3878,-3.3761,-3.3655,-3.3586,-3.3596,-3.3713,-3.382,-3.3878,-3.383,-3.382,-3.3878,-3.383,-3.3772,-3.3772,-3.3644,-3.3586,-3.3586,-3.3586,-3.371,-3.3824,-3.3824,-3.4244,-3.4372,-3.3717,-3.4043,-3.4593,-3.5183,-3.4779,-3.455,-3.5157,-3.4917,-3.4404,-3.3903,-3.4028,-3.4132,-3.4132,-3.4132,-3.4059,-3.3834,-3.3824,-3.3627,-3.3172,-3.3141,-3.2944,-3.2452,-3.2142,-3.2117,-3.2382,-3.2141,-3.2997,0.0,0.0,0.0,0.0,0.0,0.0,0.0,0.0,0.0,0.0,0.0,0.0,0.0,0.0,0.0,0.0,0.0,0.0,0.0,0.0,0.0,0.0,0.0,0.0,0.0,0.0,-3.0949,-3.1592,-3.1944,-3.2327,-3.2746,-3.2799,-3.2885,-3.3033,-3.2996,-3.3141,-3.3586,-3.3665,-3.3751,-3.4111,-3.4277,-3.436,-3.436,-3.4455,-3.4527,-3.4527,-3.4527,-3.4527,-3.4527,-3.4527,-3.4527,-3.4527,-3.4527,-3.4527,-3.4527,-3.4527,-3.4527,-3.4496,-3.4186,-3.4132,-3.4132,-3.4132,-3.4132,-3.4132,-3.4132,-3.4132,-3.4132,-3.4132,-3.4132,-3.4132,-3.4132,-3.4132,-3.4132,-3.4132,-3.4132,-3.4132,-3.4132,-3.4132,-3.4132,-3.4132,-3.4246,-3.436,-3.436,-3.4424,-3.4527,-3.4527,-3.4746,-3.5082,-3.5461,-3.4736,-3.4575,-3.6021,-3.5135,-3.4531,-3.5026,-3.4758,-3.4527,-3.4527,-3.4527,-3.4465,-3.437,-3.4648,-3.4449,-3.3696,-3.3801,-3.3581,-3.2965,-3.3042,-3.3026,-3.2857,-3.2458,-3.3031,-3.4698,0.0,0.0,0.0,0.0,0.0,0.0,0.0,0.0,0.0,0.0,0.0,0.0,0.0,0.0,0.0,0.0,0.0,0.0,0.0,0.0,0.0,0.0,0.0,-3.0766,-3.0766,-3.1186,-3.24,-3.225,-3.2323,-3.3133,-3.292,-3.2934,-3.3368,-3.3399,-3.3606,-3.4121,-3.4142,-3.4152,-3.4113,-3.4608,-3.4837,-3.4837,-3.5211,-3.5428,-3.5438,-3.5438,-3.5449,-3.5469,-3.5469,-3.5469,-3.5469,-3.5469,-3.5459,-3.5438,-3.5438,-3.5438,-3.5335,-3.4455,-3.4113,-3.4113,-3.4113,-3.4113,-3.4113,-3.4113,-3.4113,-3.4113,-3.4113,-3.4113,-3.4113,-3.4113,-3.4113,-3.4113,-3.4113,-3.4113,-3.4113,-3.4113,-3.4113,-3.4113,-3.4113,-3.4515,-3.4837,-3.4837,-3.5117,-3.5418,-3.5418,-3.4714,-3.4113,-3.4113,-3.4113,-3.4606,-3.6043,-3.542,0.0,-3.6742,-3.6023,-3.5428,-3.5438,-3.5438,-3.5324,-3.4899,-3.5731,-3.5648,-3.4232,-3.4572,-3.4363,-3.3437,-3.4572,-3.5017,-3.4536,-3.4109,-3.3638,-3.3113,0.0,0.0,0.0,0.0,0.0,0.0,0.0,0.0,0.0,0.0,0.0,0.0,0.0,0.0,0.0,0.0,0.0,0.0,0.0,0.0,0.0,0.0,-3.1053,-3.0968,-3.1334,-3.179,-3.2125,-3.2346,-3.2711,-3.3309,-3.3235,-3.3389,-3.3844,-3.3935,-3.4142,-3.4608,-3.4629,-3.4714,-3.5035,-3.5169,-3.5242,-3.5242,-3.5355,-3.5594,-3.5925,-3.5925,-3.6101,-3.6432,-3.6432,-3.6432,-3.6432,-3.6432,-3.6235,-3.5925,-3.5925,-3.5728,-3.5397,-3.5148,-3.5055,-3.5055,-3.5055,-3.5055,-3.5055,-3.5055,-3.5055,-3.5055,-3.5055,-3.5055,-3.5055,-3.5055,-3.5055,-3.5055,-3.5055,-3.5055,-3.5055,-3.5055,-3.5055,-3.5055,-3.5055,-3.5148,-3.5242,-3.5242,-3.5335,-3.5418,-3.5418,-3.5221,-3.5055,-3.5055,-3.5055,-3.5148,-3.5579,-3.5416,-3.5406,-3.5767,-3.5603,-3.5851,-3.6921,-3.7076,-3.7034,-3.6905,-3.713,-3.6542,-3.4731,-3.4734,-3.4359,-3.3468,-3.3717,-3.3681,-3.3229,-3.3959,-3.4262,0.0,0.0,0.0,0.0,0.0,0.0,0.0,0.0,0.0,0.0,0.0,0.0,0.0,0.0,0.0,0.0,0.0,0.0,0.0,0.0,0.0,0.0,-3.1412,-3.169,-3.1704,-3.1871,-3.2122,-3.2551,-3.284,-3.3172,-3.3627,-3.3668,-3.3865,-3.438,-3.4411,-3.4619,-3.5014,-3.5035,-3.5159,-3.5418,-3.5614,-3.5707,-3.5707,-3.5904,-3.6132,-3.6401,-3.6401,-3.6546,-3.6804,-3.6804,-3.6804,-3.6804,-3.6804,-3.6649,-3.6401,-3.6401,-3.6246,-3.5966,0.0,0.0,0.0,0.0,-3.5418,-3.5418,-3.5418,-3.5418,-3.5418,-3.5418,-3.5418,-3.5418,-3.5418,-3.5418,-3.5418,-3.5418,-3.5418,-3.5418,-3.5418,-3.5418,-3.5418,-3.5418,-3.5418,-3.5418,-3.5418,-3.5418,-3.5418,-3.5418,-3.5418,0.0,-3.5418,-3.5418,-3.5603,-3.6286,-3.579,-3.5614,-3.6286,-3.5779,-3.5769,-3.6639,-3.6733,-3.6733,-3.6733,-3.7103,0.0,0.0,0.0,-3.5216,-3.4774,-3.4572,0.0,0.0,0.0,-3.4365,-3.3463,-3.4108,0.0,0.0,-3.3819,-3.4131,0.0,0.0,0.0,0.0,0.0,0.0,0.0,0.0,0.0,0.0,0.0,0.0,0.0,0.0,0.0,0.0,-3.2159,-3.2277,-3.2747,-3.2499,-3.254,-3.3285,-3.342,-3.3637,-3.4163,-3.4204,-3.4401,-3.4857,-3.4888,-3.5004,-3.5407,-3.5469,0.0,0.0,0.0,-3.6194,-3.6194,-3.6597,-3.6825,-3.6877,-3.6877,-3.6908,-3.696,-3.696,-3.696,-3.696,-3.696,-3.6929,-3.6877,-3.6877,-3.6856,-3.6722,-3.5894,-3.5552,-3.55,-3.55,-3.5469,-3.5418,-3.5418,0.0,0.0,-3.5418,-3.5418,-3.5418,-3.5418,-3.5418,-3.5418,-3.5418,-3.5418,-3.5418,-3.5418,-3.5418,-3.5418,-3.5418,-3.5418,-3.5418,-3.5418,-3.5418,-3.5418,-3.5418,-3.5418,-3.5418,-3.5418,-3.5418,-3.5862,-3.7254,-3.6286,-3.5872,-3.7264,-3.6225,-3.5438,-3.5614,-3.5676,0.0,-3.5676,-3.6465,-3.6516,-3.549,-3.5823,-3.6156,-3.6383,-3.5997,-3.5783,-3.5718,-3.5304,-3.4086,-3.206,-3.206,-3.1919,-3.1602,-3.4383,-3.4875,0.0,0.0,0.0,0.0,0.0,0.0,0.0,0.0,0.0,0.0,0.0,0.0,0.0,0.0,0.0,-3.2016,-3.2682,-3.3151,-3.3244,-3.3503,-3.3596,-3.3399,-3.371,-3.4173,-3.464,-3.4681,-3.4807,-3.5262,-3.5293,-3.5335,-3.5418,-3.5769,-3.5976,-3.5976,-3.6432,-3.667,-3.667,-3.6753,-3.6991,-3.7363,-3.7363,0.0,-3.7912,-3.7912,-3.7912,-3.7912,-3.7912,-3.7705,-3.7363,-3.7363,-3.7146,-3.6784,-3.6608,-3.6308,-3.5976,-3.5976,-3.5738,-3.5418,-3.5418,-3.5418,-3.5418,-3.5418,-3.5418,-3.5418,-3.5418,-3.5418,0.0,-3.5418,-3.5418,-3.5418,-3.5418,-3.5418,-3.5418,-3.5418,-3.5418,-3.5418,-3.5418,-3.5418,-3.5418,-3.5418,-3.5418,-3.5418,-3.5418,-3.5418,-3.551,-3.5779,-3.5603,-3.551,-3.579,-3.5593,-3.5862,-3.7098,-3.7264,-3.7264,-3.7264,-3.7439,-3.6918,-3.55,-3.5187,-3.5108,-3.5168,-3.4718,-3.4299,-3.3911,-3.3817,-3.334,-3.2545,-3.2545,-3.2494,-3.2457,-3.2377,-3.2171,0.0,0.0,0.0,0.0,0.0,0.0,0.0,0.0,0.0,0.0,0.0,-3.0771,0.0,0.0,-3.2117,-3.2644,-3.3106,-3.3461,-3.3689,-3.4124,-3.438,-3.4152,-3.4339,-3.459,-3.5045,-3.5086,-3.518,-3.5407,-3.5418,-3.5521,-3.5759,-3.5987,-3.6225,-3.6453,-3.6908,-3.7146,-3.7146,-3.7384,-3.7612,-3.7839,-3.7839,-3.7964,-3.8181,-3.8181,-3.8181,-3.8181,-3.8181,-3.8057,-3.7839,-3.7839,-3.7705,-3.7498,-3.7498,-3.7063,-3.6463,-3.6463,-3.6308,-3.608,-3.5852,-3.5769,-3.5728,-3.55,-3.5418,-3.5418,-3.5418,-3.5418,-3.5418,-3.5418,-3.5418,-3.5418,-3.5418,-3.5418,-3.5418,-3.5418,-3.5418,-3.5418,-3.5418,-3.5418,-3.5418,-3.5418,-3.5418,-3.5418,-3.5418,-3.5418,-3.5418,-3.5418,-3.5418,-3.5418,-3.5418,-3.5418,-3.5697,-3.6473,-3.6556,-3.6556,-3.6556,-3.6556,-3.6214,-3.5438,-3.5211,-3.5086,-3.5086,-3.4652,-3.437,-3.4132,-3.3844,-3.3617,-3.3399,-3.3161,-3.3058,-3.3037,-3.2364,-3.2054,0.0,0.0,0.0,0.0,0.0,0.0,0.0,0.0,-2.9501,-3.0301,-3.0903,-3.1413,-3.1826,-3.2177,-3.2608,-3.3319,-3.3524,-3.3772,-3.4204,-3.466,-3.4951,-3.4951,-3.4951,-3.5024,-3.5387,-3.5418,-3.5418,-3.5418,-3.55,-3.5718,-3.609,-3.6277,-3.6556,-3.6918,-3.7384,-3.7632,-3.7632,-3.7995,-3.8181,-3.8181,-3.8181,-3.8181,-3.8181,-3.8181,-3.8181,-3.8181,-3.8181,-3.8181,-3.8181,-3.8181,-3.8181,-3.8181,-3.8181,-3.7726,-3.7063,-3.697,-3.6877,-3.6753,-3.638,-3.6246,-3.6183,-3.5811,-3.5625,-3.5552,-3.5552,-3.549,-3.5418,-3.5418,-3.5418,-3.5418,-3.5418,-3.5418,-3.5418,-3.5418,-3.5418,-3.5418,-3.5418,-3.5418,-3.5418,-3.5418,-3.5418,-3.5418,-3.5418,-3.5418,-3.5418,-3.5418,-3.5418,-3.5418,-3.5418,-3.5418,-3.5418,-3.5418,-3.5418,-3.5418,-3.5418,-3.5418,-3.5418,-3.5418,-3.5418,-3.5418,-3.5418,-3.5076,-3.4909,-3.4816,-3.4453,-3.4214,-3.4132,-3.3689,-3.3572,-3.3503,-3.3151,-3.2892,-2.7214,-2.7101,-2.7451,-2.8025,-2.8374,-2.8873,0.0,0.0,-3.0548,-3.1563,-3.183,-3.2016,-3.2478,-3.2939,-3.3319,-3.3406,-3.4132,-3.4681,-3.4733,-3.5066,-3.5345,-3.5345,-3.5345,-3.5366,-3.5418,-3.5418,-3.5418,-3.5418,-3.5801,-3.6059,-3.6111,-3.6887,-3.7363,-3.7415,-3.7871,-3.8109,-3.8109,-3.816,-3.8181,-3.8181,-3.8181,-3.8181,-3.8181,-3.8181,-3.8181,-3.8181,-3.8181,-3.8181,-3.8181,-3.8181,-3.8181,-3.8181,-3.8181,-3.8119,-3.7974,-3.757,-3.7156,-3.6794,-3.6742,-3.6732,-3.6711,-3.667,-3.637,-3.6039,-3.6039,-3.5749,-3.5418,-3.5418,-3.5418,-3.5418,-3.5418,-3.5418,-3.5418,-3.5418,-3.5418,-3.5418,-3.5418,-3.5418,-3.5418,-3.5418,-3.5418,-3.5418,-3.5418,-3.5418,-3.5418,-3.5418,-3.5418,-3.5418,-3.5418,-3.5418,-3.5418,-3.5418,-3.5418,-3.5418,-3.5418,-3.5418,-3.5418,-3.5418,-3.5418,-3.5418,-3.5418,-3.5376,-3.5159,-3.4826,-3.4774,-3.4536,-3.4132,-3.408,-3.3989,-3.3989,-3.3938,-3.3492,-2.8324,-2.8139,0.0,0.0,-2.9144,-2.9415,-3.0255,-3.06,-3.0965,-3.1816,-3.2194,-3.2571,-3.3027,-3.3254,-3.3555,0.0,-3.4567,-3.4909,-3.5107,-3.5304,-3.5418,-3.5418,-3.5418,-3.5418,-3.5418,-3.5418,-3.5418,-3.5418,-3.5852,-3.6235,-3.6504,-3.7136,-3.7622,-3.7891,-3.8088,-3.8181,-3.8181,-3.8181,-3.8181,-3.8181,-3.8181,-3.8181,-3.8181,-3.8181,-3.8181,-3.8181,-3.8181,-3.8181,-3.8181,-3.8181,-3.8181,-3.8181,-3.8181,-3.8181,-3.816,-3.7964,-3.7777,-3.757,-3.7301,-3.7208,-3.7156,-3.6887,-3.667,-3.6515,-3.6515,-3.6194,-3.5821,-3.5821,-3.5625,-3.5418,-3.5418,-3.5418,-3.5418,-3.5418,-3.5418,-3.5418,-3.5418,-3.5418,-3.5418,-3.5418,-3.5418,-3.5418,-3.5418,-3.5418,-3.5418,-3.5418,-3.5418,-3.5418,-3.5418,-3.5418,-3.5418,-3.5418,-3.5418,-3.5418,-3.5418,-3.5418,-3.5418,-3.5418,-3.5418,-3.5418,-3.5418,-3.5418,-3.5335,-3.5148,-3.5148,-3.5045,-3.4859,-3.46,-3.4536,-3.4526,-3.4256,-3.3865,-2.8677,0.0,0.0,-2.9534,-2.99,-3.0203,-3.0662,-3.1027,-3.1441,-3.2064,-3.2442,-3.2861,-3.3296,-3.3482,-3.3893,-3.4691,-3.4859,-3.5055,-3.5376,-3.5418,-3.5418,-3.5418,-3.5418,-3.5418,-3.5418,-3.5418,-3.5418,-3.5418,-3.5966,-3.6453,-3.6784,-3.7363,-3.7839,-3.8171,-3.8181,-3.8181,-3.8181,-3.8181,-3.8181,-3.8181,-3.8181,-3.8181,-3.8181,-3.8181,-3.8181,-3.8181,-3.8181,-3.8181,-3.8181,-3.8181,-3.8181,-3.8181,-3.8181,-3.8181,-3.8181,-3.8181,-3.8181,-3.814,-3.7798,-3.7684,-3.7632,-3.7291,-3.7094,-3.6991,-3.6991,-3.667,-3.6297,-3.6297,-3.5966,-3.5614,-3.5614,-3.5521,-3.5418,-3.5418,-3.5418,-3.5418,-3.5418,-3.5418,-3.5418,-3.5418,-3.5418,-3.5418,-3.5418,-3.5418,-3.5418,-3.5418,-3.5418,-3.5418,-3.5418,-3.5418,-3.5418,-3.5418,-3.5418,-3.5418,-3.5418,-3.5418,-3.5418,-3.5418,-3.5418,-3.5418,-3.5418,-3.5418,-3.5418,-3.5418,-3.5418,-3.5418,-3.5418,-3.5097,-3.4941,-3.4931,-3.46,-3.4445,0.0,0.0,-2.9144,-2.9809,-3.0674,-3.1433,-3.1878,-3.1936,-3.207,-3.2556,-3.2659,-3.2861,-3.3296,-3.3741,-3.4266,-3.4743,-3.5117,-3.5407,-3.5418,-3.5418,-3.5418,-3.5418,-3.5418,-3.5418,0.0,-3.5418,-3.5418,-3.5418,-3.6266,-3.6784,-3.6804,-3.7674,-3.8171,-3.8181,-3.8181,-3.8181,-3.8181,-3.8181,-3.8181,-3.8181,-3.8181,-3.8181,-3.8181,-3.8181,-3.8181,-3.8181,-3.8181,-3.8181,-3.8181,-3.8181,-3.8181,-3.8181,-3.8181,-3.8181,-3.8181,-3.8181,-3.8181,-3.8181,-3.8171,-3.8171,-3.816,-3.815,-3.7839,-3.7477,-3.7477,-3.7146,-3.6784,-3.6784,-3.6453,-3.609,-3.609,-3.5759,-3.5418,-3.5418,-3.5418,-3.5418,-3.5418,-3.5418,-3.5418,-3.5418,-3.5418,-3.5418,-3.5418,-3.5418,-3.5418,-3.5418,-3.5418,-3.5418,-3.5418,-3.5418,-3.5418,-3.5418,-3.5418,-3.5418,-3.5418,-3.5418,-3.5418,-3.5418,-3.5418,-3.5418,-3.5418,-3.5418,-3.5418,-3.5418,-3.5418,-3.5418,-3.5418,-3.5407,-3.5407,-3.5407,-3.5387,-3.5376,0.0,0.0,-2.9958,-3.105,-3.1574,-3.194,-3.2339,-3.2442,-3.2483,-3.2638,-3.2353,-3.2163,-3.2678,-3.3137,-3.3607,-3.4077,-3.4856,-3.5418,-3.5418,-3.5418,-3.5418,-3.5418,-3.5418,0.0,0.0,0.0,0.0,-3.5852,-3.6453,-3.6939,-3.7239,-3.785,-3.8181,-3.8181,-3.8181,-3.8181,-3.8181,-3.8181,-3.8181,-3.8181,-3.8181,-3.8181,-3.8181,-3.8181,-3.8181,-3.8181,-3.8181,-3.8181,-3.8181,-3.8181,-3.8181,-3.8181,-3.8181,-3.8181,-3.8181,-3.8181,-3.8181,-3.8181,-3.8181,-3.8181,-3.8181,-3.8181,-3.8078,-3.7953,-3.7953,-3.7632,-3.726,-3.726,-3.6929,-3.6566,-3.6566,-3.6463,-3.6266,-3.5956,-3.5883,-3.5801,-3.549,-3.5418,-3.5418,-3.5418,-3.5418,-3.5418,-3.5418,-3.5418,-3.5418,-3.5418,-3.5418,-3.5418,-3.5418,-3.5418,-3.5418,-3.5418,-3.5418,-3.5418,-3.5418,-3.5418,-3.5418,-3.5418,-3.5418,-3.5418,-3.5418,-3.5418,-3.5418,-3.5418,-3.5418,-3.5418,-3.5418,-3.5418,-3.5418,-3.5418,-3.5418,-3.5418,-2.8919,-2.9791,-3.0611,-3.1716,-3.2112,-3.2308,-3.2607,-3.2669,-3.2669,-3.2669,-3.2149,-3.1858,-3.244,-3.2721,-3.2899,-3.3148,-3.3885,-3.4497,-3.4664,-3.4685,-3.4875,-3.5345,-3.5418,-3.5418,0.0,0.0,0.0,-3.607,-3.6535,-3.7001,-3.7467,-3.7933,-3.8181,-3.8181,-3.8181,-3.8181,-3.8181,-3.8181,-3.8181,-3.8181,-3.8181,-3.8181,-3.8181,-3.8181,-3.8181,-3.8181,-3.8181,-3.8181,-3.8181,-3.8181,-3.8181,-3.8181,-3.8181,-3.8181,-3.8181,-3.8181,-3.8181,-3.8181,-3.8181,-3.8181,-3.8181,-3.8181,-3.8181,-3.8181,-3.8181,-3.7974,-3.7736,-3.7736,-3.7405,-3.7053,-3.7053,-3.6929,-3.6732,-3.6432,-3.6235,-3.6028,-3.5738,-3.5542,-3.5418,-3.5418,-3.5418,-3.5418,-3.5418,-3.5418,-3.5418,-3.5418,-3.5418,-3.5418,-3.5418,-3.5418,-3.5418,-3.5418,-3.5418,-3.5418,-3.5418,-3.5418,-3.5418,-3.5418,-3.5418,-3.5418,-3.5418,-3.5418,-3.5418,-3.5418,-3.5418,-3.5418,-3.5418,-3.5583,-3.5583,-3.5428,-3.5594,-3.5583,-2.9289,-3.036,-3.1237,-3.1857,-3.2349,-3.2669,-3.2669,-3.2669,-3.2659,-3.2675,-3.2131,-3.1818,0.0,0.0,-3.2256,-3.2091,-3.2457,-3.2987,-3.343,-3.3515,-3.3948,0.0,0.0,0.0,0.0,0.0,0.0,-3.6111,0.0,-3.7022,-3.7498,-3.7943,-3.8181,-3.8181,-3.8181,-3.8181,-3.8181,-3.8181,-3.8181,-3.8181,-3.8181,-3.8181,-3.8181,-3.8181,-3.8181,-3.8181,-3.8181,-3.8181,-3.8181,-3.8181,-3.8181,-3.8181,-3.8181,-3.8181,-3.8181,-3.8181,-3.8181,-3.8181,-3.8181,-3.8181,-3.8181,-3.8181,-3.8181,-3.8181,-3.8181,-3.8181,-3.8181,-3.8181,-3.7871,-3.7529,-3.7529,-3.7208,-3.6867,-3.6846,-3.6504,-3.6173,-3.6121,-3.5769,-3.5449,-3.5428,-3.5418,-3.5418,-3.5418,-3.5418,-3.5418,-3.5418,-3.5418,-3.5418,-3.5418,-3.5418,-3.5418,-3.5418,-3.5418,-3.5418,-3.5418,-3.5418,-3.5418,-3.5418,-3.5418,-3.5418,-3.5418,-3.5418,-3.5418,-3.5418,-3.5418,-3.5418,-3.5418,-3.5883,-3.5883,-3.5469,-3.5935,-3.5914,-3.0381,-3.116,-3.1892,-3.2406,-3.2587,-3.2669,-3.2669,-3.2669,-3.253,-3.2048,-3.1442,-3.0766,0.0,0.0,0.0,-3.1124,-3.285,0.0,-3.4456,-3.4698,0.0,-3.5366,0.0,-3.5418,-3.5418,-3.5738,0.0,0.0,-3.6732,-3.7156,-3.7964,-3.8119,-3.8181,-3.8181,-3.8181,-3.8181,-3.8181,-3.8181,-3.8181,-3.8181,-3.8181,-3.8181,-3.8181,-3.8181,-3.8181,-3.8181,-3.8181,-3.8181,-3.8181,-3.8181,-3.8181,-3.8181,-3.8181,-3.8181,-3.8181,-3.8181,-3.8181,-3.8181,-3.8181,-3.8181,-3.8181,-3.8181,-3.8181,-3.8181,-3.8181,-3.8181,-3.8181,-3.8181,-3.8098,-3.8005,-3.8005,-3.7922,-3.7746,-3.7394,-3.7229,-3.6949,-3.6266,-3.6018,-3.5832,-3.549,-3.5418,-3.5418,-3.5418,-3.5418,-3.5418,-3.5418,-3.5418,-3.5418,-3.5418,-3.5418,-3.5418,-3.5418,-3.5418,-3.5418,-3.5418,-3.5418,-3.5418,-3.5418,-3.5418,-3.5418,-3.5418,-3.5418,-3.5418,-3.5418,-3.5418,-3.5418,-3.5418,-3.5883,-3.6049,-3.5945,-3.6411,-3.6566,-3.114,-3.1851,-3.2349,-3.2607,-3.2669,-3.2623,-3.2321,-3.2284,-3.2079,-3.141,-3.0575,0.0,0.0,0.0,0.0,0.0,0.0,0.0,-3.3874,-3.4244,-3.4768,0.0,-3.5418,0.0,-3.5418,-3.5842,-3.6308,0.0,-3.6991,-3.7425,-3.815,-3.8181,-3.8181,-3.8181,-3.8181,-3.8181,-3.8181,-3.8181,-3.8181,-3.8181,-3.8181,-3.8181,-3.8181,-3.8181,-3.8181,-3.8181,-3.8181,-3.8181,-3.8181,-3.8181,-3.8181,-3.8181,-3.8181,-3.8181,-3.8181,-3.8181,-3.8181,-3.8181,-3.8181,-3.8181,-3.8181,-3.8181,-3.8181,-3.8181,-3.8181,-3.8181,-3.8181,-3.8181,-3.8181,-3.8181,-3.8181,-3.8181,-3.8119,-3.786,-3.7643,-3.7291,-3.6577,-3.6256,-3.5976,-3.5511,-3.5418,-3.5418,-3.5418,-3.5418,-3.5418,-3.5418,-3.5418,-3.5418,-3.5418,-3.5418,-3.5418,-3.5418,-3.5418,-3.5418,-3.5418,-3.5418,-3.5418,-3.5418,-3.5418,-3.5418,-3.5418,-3.5418,-3.5418,-3.5418,-3.5418,-3.5418,-3.5418,-3.609,-3.6308,-3.6132,-3.6794,-3.7001,-3.1774,-3.237,-3.2669,-3.2669,-3.2669,-3.2535,-3.1866,-3.1711,-3.1451,-3.065,0.0,-2.902,-2.9019,0.0,-2.9614,-2.9139,0.0,-3.2224,-3.2825,-3.3363,-3.4116,-3.5231,-3.5418,-3.5449,-3.5511,-3.5935,-3.6401,-3.6856,-3.7322,-3.7767,-3.8171,-3.8181,-3.8181,-3.8181,-3.8181,-3.8181,-3.8181,-3.8181,-3.8181,-3.8181,-3.8181,-3.8181,-3.8181,-3.8181,-3.8181,-3.8181,-3.8181,-3.8181,-3.8181,-3.8181,-3.8181,-3.8181,-3.8181,-3.8181,-3.8181,-3.8181,-3.8181,-3.8181,-3.8181,-3.8181,-3.8181,-3.8181,-3.8181,-3.8181,-3.8181,-3.8181,-3.8181,-3.8181,-3.8181,-3.8181,-3.8181,-3.8181,-3.8181,-3.8181,-3.7829,-3.7363,-3.6908,-3.639,-3.5904,-3.55,-3.5418,-3.5418,-3.5418,-3.5418,-3.5418,-3.5418,-3.5418,-3.5418,-3.5418,-3.5418,-3.5418,-3.5418,-3.5418,-3.5418,-3.5418,-3.5418,-3.5418,-3.5418,-3.5418,-3.5418,-3.5418,-3.5418,-3.5418,-3.5418,-3.5418,-3.5418,-3.5418,-3.6349,-3.6597,-3.6225,-3.7156,-3.7363,-3.2344,-3.2607,-3.2669,-3.2669,-3.2669,-3.2535,-3.1866,-3.1711,0.0,0.0,0.0,-2.861,-2.7325,-2.7891,0.0,-2.9191,0.0,0.0,0.0,0.0,-3.5127,0.0,0.0,0.0,0.0,0.0,0.0,0.0,-3.7798,-3.8098,-3.8181,-3.8181,-3.8181,-3.8181,-3.8181,-3.8181,-3.8181,-3.8181,-3.8181,-3.8181,-3.8181,-3.8181,-3.8181,-3.8181,-3.8181,-3.8181,-3.8181,-3.8181,-3.8181,-3.8181,-3.8181,-3.8181,-3.8181,-3.8181,-3.8181,-3.8181,-3.8181,-3.8181,-3.8181,-3.8181,-3.8181,-3.8181,-3.8181,-3.8181,-3.8181,-3.8181,-3.8181,-3.8181,-3.8181,-3.8181,-3.8181,-3.8181,-3.8181,-3.8181,-3.7829,-3.7363,-3.6908,-3.6142,-3.5521,-3.5438,-3.5418,-3.5418,-3.5418,-3.5418,-3.5418,-3.5418,-3.5418,-3.5418,-3.5418,-3.5418,-3.5418,-3.5418,-3.5418,-3.5418,-3.5418,-3.5418,-3.5418,-3.5418,-3.5418,-3.5418,-3.5418,-3.5418,-3.5418,-3.5418,-3.5418,-3.5418,-3.5418,-3.6349,-3.6763,-3.6701,-3.7632,-3.8026,-3.2188,-3.2494,-3.2669,-3.2669,-3.2669,-3.2421,-3.127,0.0,0.0,0.0,0.0,-2.7457,-2.6443,0.0,0.0,0.0,0.0,0.0,0.0,0.0,0.0,0.0,0.0,0.0,0.0,0.0,0.0,-3.7457,-3.7922,-3.8181,-3.8181,-3.8181,-3.8181,-3.8181,-3.8181,-3.8181,-3.8181,-3.8181,-3.8181,-3.8181,-3.8181,-3.8181,-3.8181,-3.8181,-3.8181,-3.8181,-3.8181,-3.8181,-3.8181,-3.8181,-3.8181,-3.8181,-3.8181,-3.8181,-3.8181,-3.8181,-3.8181,-3.8181,-3.8181,-3.8181,-3.8181,-3.8181,-3.8181,-3.8181,-3.8181,-3.8181,-3.8181,-3.8181,-3.8181,-3.8181,-3.8181,-3.8181,-3.8119,-3.7881,-3.7291,-3.6711,-3.6494,-3.5904,-3.5418,-3.5418,-3.5418,-3.5418,-3.5418,-3.5418,-3.5418,-3.5418,-3.5418,-3.5418,-3.5418,-3.5418,-3.5418,-3.5418,-3.5418,-3.5418,-3.5418,-3.5418,-3.5418,-3.5418,-3.5418,-3.5418,-3.5418,-3.5418,-3.5418,-3.5418,-3.5418,-3.5542,-3.578,-3.6473,-3.6929,-3.7177,-3.7871,-3.8181,-3.1781,-3.2246,-3.2545,-3.2649,-3.2669,-3.2276,-3.059,-3.0255,0.0,0.0,0.0,-2.6317,0.0,0.0,0.0,0.0,0.0,0.0,0.0,0.0,0.0,0.0,0.0,0.0,0.0,0.0,0.0,-3.7457,-3.7922,-3.8181,-3.8181,-3.8181,-3.8181,-3.8181,-3.8181,-3.8181,-3.8181,-3.8181,-3.8181,-3.8181,-3.8181,-3.8181,-3.8181,-3.8181,-3.8181,-3.8181,-3.8181,-3.8181,-3.8181,-3.8181,-3.8181,-3.8181,-3.8181,-3.8181,-3.8181,-3.8181,-3.8181,-3.8181,-3.8181,-3.8181,-3.8181,-3.8181,-3.8181,-3.8181,-3.8181,-3.8181,-3.8181,-3.8181,-3.8181,-3.8181,-3.8181,-3.8181,-3.8046,-3.7488,-3.6711,-3.609,-3.5987,-3.5676,-3.5418,-3.5418,-3.5418,-3.5418,-3.5418,-3.5418,-3.5418,-3.5418,-3.5418,-3.5418,-3.5418,-3.5418,-3.5418,-3.5418,-3.5418,-3.5418,-3.5418,-3.5418,-3.5418,-3.5418,-3.5418,-3.5418,-3.5418,-3.5418,-3.5418,-3.5418,-3.5521,-3.5749,-3.6111,-3.668,-3.7136,-3.7508,-3.7974,-3.8181,-3.1523,-3.2019,-3.2153,-3.2566,-3.2669,-3.2203,-3.0214,0.0,0.0,0.0,-2.5998,-2.5828,0.0,0.0,0.0,0.0,0.0,0.0,0.0,0.0,0.0,0.0,0.0,0.0,0.0,0.0,0.0,-3.7457,-3.7922,-3.8181,-3.8181,-3.8181,-3.8181,-3.8181,-3.8181,-3.8181,-3.8181,-3.8181,-3.8181,-3.8181,-3.8181,-3.8181,-3.8181,-3.8181,-3.8181,-3.8181,-3.8181,-3.8181,-3.8181,-3.8181,-3.8181,-3.8181,-3.8181,-3.8181,-3.8181,-3.8181,-3.8181,-3.8181,-3.8181,-3.8181,-3.8181,-3.8181,-3.8181,-3.8181,-3.8181,-3.8181,-3.8181,-3.8181,-3.8181,-3.8181,-3.8181,-3.8181,-3.7964,-3.7084,-3.6484,-3.5997,-3.5583,-3.5449,-3.5418,-3.5418,-3.5418,-3.5418,-3.5418,-3.5418,-3.5418,-3.5418,-3.5418,-3.5418,-3.5418,-3.5418,-3.5418,-3.5418,-3.5418,-3.5418,-3.5418,-3.5418,-3.5418,-3.5418,-3.5418,-3.5418,-3.5418,-3.5418,-3.5418,-3.5418,-3.5832,-3.607,-3.6111,-3.7001,-3.7457,-3.7508,-3.7974,-3.8181,-3.0874,-3.1433,-3.1743,-3.2142,-3.1692,-3.077,-2.9694,0.0,0.0,-2.5839,-2.5487,-2.5351,-2.488,0.0,0.0,0.0,0.0,0.0,0.0,0.0,0.0,0.0,0.0,0.0,0.0,0.0,0.0,-3.785,-3.8078,-3.8181,-3.8181,-3.8181,-3.8181,-3.8181,-3.8181,-3.8181,-3.8181,-3.8181,-3.8181,-3.8181,-3.8181,-3.8181,-3.8181,-3.8181,-3.8181,-3.8181,-3.8181,-3.8181,-3.8181,-3.8181,-3.8181,-3.8181,-3.8181,-3.8181,-3.8181,-3.8181,-3.8181,-3.8181,-3.8181,-3.8181,-3.8181,-3.8181,-3.8181,-3.8181,-3.8181,-3.8181,-3.8181,-3.8181,-3.8181,-3.8181,-3.8181,-3.7767,-3.7187,-3.6535,-3.6028,-3.5645,-3.5459,-3.5418,-3.5418,-3.5418,-3.5418,-3.5418,-3.5418,-3.5418,-3.5418,-3.5418,-3.5418,-3.5418,-3.5418,-3.5418,-3.5418,-3.5418,-3.5418,-3.5418,-3.5418,-3.5418,-3.5418,-3.5418,-3.5418,-3.5418,-3.5418,-3.5418,-3.5552,-3.5832,-3.6018,-3.639,-3.6949,-3.7312,-3.7643,-3.7912,-3.8098,-3.8181,-2.9994,-3.0719,-3.1309,-3.1833,-3.1063,-2.9891,0.0,0.0,0.0,-2.5306,-2.4983,-2.489,-2.4559,0.0,0.0,0.0,0.0,0.0,0.0,0.0,0.0,0.0,0.0,0.0,0.0,0.0,-3.7187,-3.8119,-3.8181,-3.8181,-3.8181,-3.8181,-3.8181,-3.8181,-3.8181,-3.8181,-3.8181,-3.8181,-3.8181,-3.8181,-3.8181,-3.8181,-3.8181,-3.8181,-3.8181,-3.8181,-3.8181,-3.8181,-3.8181,-3.8181,-3.8181,-3.8181,-3.8181,-3.8181,-3.8181,-3.8181,-3.8181,-3.8181,-3.8181,-3.8181,-3.8181,-3.8181,-3.8181,-3.8181,-3.8181,-3.8181,-3.8181,-3.8181,-3.8088,-3.7943,-3.7808,-3.7187,-3.6515,-3.6194,-3.5759,-3.5418,-3.5418,-3.5418,-3.5418,-3.5418,-3.5418,-3.5418,-3.5418,-3.5418,-3.5418,-3.5418,-3.5418,-3.5418,-3.5418,-3.5418,-3.5418,-3.5418,-3.5418,-3.5418,-3.5418,-3.5418,-3.5418,-3.5418,-3.5418,-3.5418,-3.5418,-3.5552,-3.578,-3.6101,-3.638,-3.6846,-3.7498,-3.7632,-3.7871,-3.8181,-3.8181,-3.8181,-2.8949,-2.9994,-3.0905,-3.176,-3.1117,-3.0005,0.0,0.0,0.0,-2.483,-2.4507,-2.4507,-2.4497,0.0,0.0,0.0,0.0,0.0,0.0,0.0,0.0,0.0,0.0,0.0,0.0,0.0,-3.7187,-3.8119,-3.8181,-3.8181,-3.8181,-3.8181,-3.8181,-3.8181,-3.8181,-3.8181,-3.8181,-3.8181,-3.8181,-3.8181,-3.8181,-3.8181,-3.8181,-3.8181,-3.8181,-3.8181,-3.8181,-3.8181,-3.8181,-3.8181,-3.8181,-3.8181,-3.8181,-3.8181,-3.8181,-3.8181,-3.8181,-3.8181,-3.8181,-3.8181,-3.8181,-3.8181,-3.8181,-3.8181,-3.8181,-3.8181,-3.8181,-3.8181,-3.785,-3.7394,-3.6939,-3.6473,-3.6121,-3.6111,-3.5759,-3.5418,-3.5418,-3.5418,-3.5418,-3.5418,-3.5418,-3.5418,-3.5418,-3.5418,-3.5418,-3.5418,-3.5418,-3.5418,-3.5418,-3.5418,-3.5418,-3.5418,-3.5418,-3.5418,-3.5418,-3.5418,-3.5418,-3.5418,-3.5418,-3.5418,-3.5418,-3.5863,-3.6111,-3.6111,-3.7011,-3.7488,-3.7498,-3.7953,-3.8181,-3.8181,-3.8181,-3.8181,-2.7624,-2.8012,-2.8224,-2.8819,-2.8144,-2.7226,-2.701,0.0,-2.5101,-2.4633,-2.4497,-2.4497,-2.4497,-2.4497,0.0,0.0,0.0,0.0,0.0,0.0,0.0,0.0,0.0,0.0,0.0,0.0,-3.7053,-3.7674,-3.8005,-3.8181,-3.8181,-3.8181,-3.8181,-3.8181,-3.8181,-3.8181,-3.8181,-3.8181,-3.8181,-3.8181,-3.8181,-3.8181,-3.8181,-3.8181,-3.8181,-3.8181,-3.8181,-3.8181,-3.8181,-3.8181,-3.8181,-3.8181,-3.8181,-3.8181,-3.8181,-3.8181,-3.8181,-3.8181,-3.8181,-3.8181,-3.8181,-3.8181,-3.7974,-3.7715,-3.7715,-3.7715,-3.7643,-3.7332,-3.7136,-3.6918,-3.6453,-3.6225,-3.6028,-3.5718,-3.5531,-3.5418,-3.5418,-3.5418,-3.5418,-3.5418,-3.5418,-3.5418,-3.5418,-3.5418,-3.5418,-3.5418,-3.5418,-3.5418,-3.5418,-3.5418,-3.5418,-3.5418,-3.5418,-3.5418,-3.5418,-3.5418,-3.5418,-3.5418,-3.5418,-3.5562,-3.5883,-3.6039,-3.6411,-3.7043,-3.7343,-3.7653,-3.7964,-3.8119,-3.8181,-3.8181,-3.8181,-3.8015,0.0,-2.6841,-2.701,-2.7567,-2.6842,0.0,0.0,0.0,-2.4497,-2.4497,-2.4454,-2.4411,-2.4497,0.0,0.0,0.0,0.0,0.0,0.0,0.0,0.0,0.0,0.0,0.0,0.0,-3.6173,-3.6804,-3.7446,-3.7767,-3.8005,-3.8181,-3.8181,-3.8181,-3.8181,-3.8181,-3.8181,-3.8181,-3.8181,-3.8181,-3.8181,-3.8181,-3.8181,-3.8181,-3.8181,-3.8181,-3.8181,-3.8181,-3.8181,0.0,-3.8181,-3.8181,-3.8181,-3.8181,-3.8181,-3.8181,-3.8181,-3.8181,-3.8181,-3.8181,-3.8067,-3.7922,-3.7922,-3.7612,-3.7198,-3.7022,-3.7094,-3.7136,-3.667,-3.6546,-3.6442,-3.5976,-3.5852,-3.578,-3.549,-3.5418,-3.5418,-3.5418,-3.5418,-3.5418,-3.5418,-3.5418,-3.5418,-3.5418,-3.5418,-3.5418,-3.5418,-3.5418,-3.5418,-3.5418,-3.5418,-3.5418,-3.5418,-3.5418,-3.549,-3.5666,-3.5521,-3.55,-3.5676,-3.5687,-3.5894,-3.6349,-3.6535,-3.6908,-3.7488,-3.7664,-3.7902,-3.8181,-3.8005,-3.7922,-3.7922,-3.7746,-3.7508,0.0,0.0,0.0,0.0,0.0,0.0,0.0,0.0,0.0,-2.4497,-2.4325,-2.4249,-2.4454,0.0,0.0,0.0,0.0,0.0,0.0,0.0,0.0,0.0,0.0,0.0,-3.465,-3.5542,-3.6473,-3.7332,-3.7425,-3.7632,-3.8067,-3.8088,-3.8088,-3.8088,-3.8088,-3.8119,-3.8181,-3.8181,-3.8181,-3.8181,-3.8181,-3.8181,-3.8181,-3.8181,-3.8181,-3.8181,-3.8181,-3.8181,-3.8181,-3.8181,-3.8181,-3.8181,-3.8181,-3.8181,-3.8181,-3.8181,-3.8171,-3.814,-3.814,-3.7829,-3.7436,-3.7405,-3.7105,-3.667,-3.6204,-3.639,-3.666,-3.6194,-3.6059,-3.5966,-3.5531,-3.5418,-3.5418,-3.5418,-3.5418,-3.5418,-3.5418,-3.5418,-3.5418,-3.5418,-3.5418,-3.5418,-3.5418,-3.5418,-3.5418,-3.5418,-3.5418,-3.5418,-3.5418,-3.5418,-3.5438,-3.5469,-3.5469,-3.5656,-3.6121,-3.5738,-3.5666,-3.6132,-3.6163,-3.637,-3.6836,-3.727,-3.7508,-3.7539,-3.7933,-3.8119,-3.8088,-3.7653,-3.7446,-3.7436,-3.7001,-3.6784,-2.4408,0.0,-2.4573,-2.4719,0.0,0.0,0.0,0.0,0.0,0.0,0.0,0.0,0.0,0.0,0.0,0.0,0.0,0.0,0.0,0.0,0.0,0.0,0.0,0.0,-3.3841,-3.5159,-3.6204,-3.6422,-3.6763,-3.7011,-3.7125,-3.7125,-3.7125,-3.7125,-3.7125,-3.7467,-3.8181,-3.8181,-3.8181,-3.8181,-3.8181,-3.8181,-3.8181,-3.8181,-3.8181,-3.8181,-3.8181,-3.8181,-3.8181,-3.8181,-3.8181,-3.8181,-3.8181,-3.8181,-3.8181,-3.8181,-3.7964,-3.7653,-3.7653,-3.7353,-3.6908,-3.6556,-3.6359,-3.6194,-3.5728,-3.5904,-3.6173,-3.5718,-3.5583,-3.5562,-3.5449,-3.5418,-3.5418,-3.5418,-3.5418,-3.5418,-3.5418,-3.5418,-3.5418,-3.5418,-3.5418,-3.5418,-3.5418,-3.5418,-3.5418,-3.5418,-3.5418,-3.5418,-3.5418,-3.5418,-3.5562,-3.5914,-3.5956,-3.6142,-3.6608,-3.6225,-3.6152,-3.6608,-3.6639,-3.6846,-3.7312,-3.7436,-3.7664,-3.8015,-3.7777,-3.7488,-3.7125,-3.7022,-3.697,-3.696,-3.6856,-3.6618,-2.3677,-2.3754,-2.3841,-2.3927,-2.4153,-2.4239,0.0,0.0,0.0,0.0,0.0,0.0,0.0,0.0,0.0,0.0,0.0,0.0,0.0,0.0,0.0,0.0,0.0,-3.4434,0.0,-3.5211,-3.5883,-3.609,-3.6349,-3.6375,-3.6119,-3.6537,-3.6601,-3.6139,-3.6537,-3.7043,-3.7539,-3.755,-3.7664,-3.7871,-3.7871,-3.7974,-3.8181,-3.8181,-3.8181,-3.8181,-3.8181,-3.8181,-3.8181,-3.8181,-3.8057,-3.7871,-3.7871,-3.7736,-3.755,-3.755,-3.7394,-3.7177,-3.7177,-3.6877,-3.6411,-3.5945,-3.5801,-3.5749,-3.55,-3.5594,-3.5738,-3.549,-3.5418,-3.5418,-3.5418,-3.5418,-3.5418,-3.5418,-3.5418,-3.5418,-3.5418,-3.5418,-3.5418,-3.5418,-3.5418,-3.5418,-3.5418,-3.5418,-3.5418,-3.5418,-3.5418,-3.5418,-3.5418,-3.5614,-3.5832,-3.609,-3.6297,-3.6618,-3.7084,-3.6887,-3.6856,-3.7105,-3.7115,-3.7332,-3.7788,-3.7601,-3.7508,-3.755,-3.7301,-3.7053,-3.6804,-3.6587,-3.6494,-3.6484,-3.6266,-3.6039,-2.3135,-2.3418,-2.3837,-2.4064,-2.412,-2.4067,0.0,0.0,0.0,0.0,0.0,0.0,0.0,0.0,0.0,0.0,0.0,0.0,0.0,0.0,0.0,0.0,0.0,0.0,-3.4769,-3.518,-3.5521,-3.5725,-3.5882,-3.572,-3.5122,-3.5872,-3.5872,-3.4873,-3.5669,-3.6129,-3.6129,-3.6593,-3.7001,-3.7384,-3.7384,-3.7591,-3.7974,-3.7974,-3.7974,-3.7974,-3.7974,-3.7974,-3.7974,-3.7974,-3.7746,-3.7384,-3.7384,-3.7146,-3.6804,-3.6804,-3.6753,-3.6691,-3.6618,-3.6339,-3.5945,-3.5552,-3.5418,-3.5418,-3.5418,-3.5418,-3.5418,-3.5418,-3.5418,-3.5418,-3.5418,-3.5418,-3.5418,-3.5418,-3.5418,-3.5418,-3.5418,-3.5418,-3.5418,-3.5418,-3.5418,-3.5418,-3.5418,-3.5418,-3.5418,-3.5418,-3.548,-3.5531,-3.5531,-3.5935,-3.6246,-3.6318,-3.6608,-3.6991,-3.7457,-3.7425,-3.7384,-3.7384,-3.7457,-3.7643,-3.7964,-3.7591,-3.7177,-3.6711,-3.6701,-3.667,-3.6587,-3.6204,-3.6008,-3.5997,-3.5604,-3.5418,-2.3057,-2.3358,-2.3652,-2.3594,-2.3764,-2.3797,0.0,0.0,0.0,0.0,0.0,0.0,0.0,0.0,0.0,0.0,0.0,0.0,0.0,0.0,0.0,0.0,0.0,-3.437,-3.2595,-3.4248,-3.5077,-3.4335,-3.5024,-3.5117,-3.4173,-3.4246,-3.3857,-3.2884,-3.3021,-3.3085,-3.3085,-3.5561,-3.6846,-3.6908,-3.6908,-3.6949,-3.7011,-3.7011,-3.7011,-3.7011,-3.7011,-3.7011,-3.7011,-3.7011,-3.697,-3.6908,-3.6908,-3.6867,-3.6804,-3.6804,-3.6556,-3.6163,-3.5769,-3.5583,-3.5521,-3.5449,-3.5418,-3.5418,-3.5418,-3.5418,-3.5418,-3.5418,-3.5418,-3.5418,-3.5418,-3.5418,-3.5418,-3.5418,-3.5418,-3.5418,-3.5418,-3.5418,-3.5418,-3.5418,-3.5418,-3.5418,-3.5418,-3.5418,-3.5418,-3.5418,-3.5759,-3.6008,-3.6008,-3.6411,-3.6846,-3.7239,-3.6991,-3.6991,-3.7457,-3.7136,-3.6908,-3.6908,-3.727,-3.7353,-3.7032,-3.6949,-3.6691,-3.6225,-3.6225,-3.6028,-3.5635,-3.5562,-3.5531,-3.5531,-3.5449,-3.5418,-2.2618,-2.2859,-2.3219,-2.3322,-2.3482,-2.3617,0.0,0.0,0.0,0.0,0.0,0.0,0.0,0.0,0.0,0.0,0.0,0.0,0.0,0.0,-3.2319,0.0,0.0,-3.3387,-3.301,-3.3493,-3.3587,-3.3146,-3.3524,-3.3325,-3.2256,-3.2765,-3.2638,-3.1552,-3.2128,-3.2374,-3.2374,-3.3725,-3.4561,-3.4799,-3.4799,-3.4918,-3.5145,-3.5741,-3.6,-3.6,-3.6537,-3.6804,-3.6804,-3.6804,-3.666,-3.6432,-3.6432,-3.6277,-3.6059,-3.6059,-3.5925,-3.5707,-3.549,-3.5418,-3.5418,-3.5418,-3.5418,-3.5418,-3.5418,-3.5418,-3.5418,-3.5418,-3.5418,-3.5418,-3.5418,-3.5418,-3.5418,-3.5418,-3.5418,-3.5418,-3.5418,-3.5418,-3.5418,-3.5418,-3.5418,-3.5418,-3.5418,-3.5418,-3.5511,-3.5759,-3.5976,-3.6204,-3.6453,-3.667,-3.6887,-3.7094,-3.6929,-3.6887,-3.7105,-3.6918,-3.6804,-3.6804,-3.7001,-3.6908,-3.6453,-3.6432,-3.6215,-3.5749,-3.5738,-3.5635,-3.5418,-3.5418,-3.5418,-3.5418,-3.5418,-3.5418,-2.2157,-2.2415,-2.2796,-2.3112,0.0,0.0,-2.3912,0.0,0.0,0.0,0.0,0.0,0.0,0.0,0.0,0.0,0.0,0.0,-3.1486,-3.094,-3.1013,-3.3266,-3.2844,-3.269,-3.3436,-3.2829,-3.232,-3.2065,-3.2256,-3.1937,-3.0852,-3.1552,-3.1552,-3.0464,-3.123,-3.1671,-3.1671,-3.1671,-3.2095,-3.2922,-3.2922,-3.3093,-3.3396,-3.4245,-3.4634,-3.4699,-3.5696,-3.609,-3.6154,-3.6356,-3.6266,-3.5956,-3.5956,-3.5738,-3.5418,-3.5418,-3.5418,-3.5418,-3.5418,-3.5418,-3.5418,-3.5418,-3.5418,-3.5418,-3.5418,-3.5418,-3.5418,-3.5418,-3.5418,-3.5418,-3.5418,-3.5418,-3.5418,-3.5418,-3.5418,-3.5418,-3.5418,-3.5418,-3.5418,-3.5418,-3.5418,-3.5449,-3.5562,-3.549,-3.5583,-3.6039,-3.6111,-3.6235,-3.6597,-3.6732,-3.6804,-3.6804,-3.6711,-3.6597,-3.6494,-3.6473,-3.6473,-3.6473,-3.6473,-3.6318,-3.5966,-3.5956,-3.579,-3.5428,-3.5418,-3.5418,-3.5418,-3.5418,-3.5418,-3.5418,-3.5418,-3.5418,-2.2038,-2.2291,-2.2643,-2.3064,0.0,0.0,-2.3852,0.0,0.0,0.0,0.0,0.0,0.0,0.0,0.0,0.0,0.0,0.0,-3.1456,0.0,-3.3634,-3.3826,-3.3783,-3.3436,-3.2565,-3.2447,-3.2001,-3.0982,-3.1809,-3.1937,-3.0852,-3.0852,-3.0464,-2.9438,-2.9504,-2.9504,-2.9504,-2.9504,-3.0538,-3.2422,-3.2422,-3.2441,-3.2469,-3.2597,-3.2597,-3.266,-3.3696,-3.4137,-3.42,-3.5148,-3.55,-3.5469,-3.5469,-3.5449,-3.5418,-3.5418,-3.5418,-3.5418,-3.5418,-3.5418,-3.5418,-3.5418,-3.5418,-3.5418,-3.5418,-3.5418,-3.5418,-3.5418,-3.5418,-3.5418,-3.5418,-3.5418,-3.5418,-3.5418,-3.5418,-3.5418,-3.5418,-3.5418,-3.5418,-3.5418,-3.5418,-3.5562,-3.5987,-3.5707,-3.5583,-3.6039,-3.6111,-3.6121,-3.6163,-3.6535,-3.6804,-3.6804,-3.6422,-3.5987,-3.5562,-3.5521,-3.5521,-3.5521,-3.5521,-3.55,-3.5469,-3.5469,-3.5449,-3.5418,-3.5418,-3.5418,-3.5418,-3.5418,-3.5418,-3.5418,-3.5418,-3.5418,-2.1852,-2.2006,-2.2271,-2.2659,0.0,0.0,0.0,0.0,0.0,0.0,0.0,0.0,0.0,0.0,0.0,0.0,0.0,-2.9283,-3.1377,-3.1865,-3.2192,-3.2892,-3.2384,-3.1809,-3.1423,-3.0843,-3.0269,-2.9887,-3.0269,-3.0269,-2.9887,-2.9887,-2.9691,-2.9307,-2.9307,-2.9307,-2.9307,-2.9307,-2.9691,-3.0464,-3.0464,-3.0464,-3.0529,-3.1799,-3.2374,-3.2502,-3.41,-3.4859,-3.4859,-3.5232,-3.5418,-3.5418,-3.5418,-3.5418,-3.5418,-3.5418,-3.5418,-3.5418,-3.5418,-3.5418,-3.5418,-3.5418,-3.5418,-3.5418,-3.5418,-3.5418,-3.5418,-3.5418,-3.5418,-3.5418,-3.5418,-3.5418,-3.5418,-3.5418,-3.5418,-3.5418,-3.5418,-3.5418,-3.5418,-3.5418,-3.5418,-3.548,-3.5656,-3.5531,-3.5583,-3.6039,-3.6111,-3.6225,-3.6504,-3.6442,-3.637,-3.637,-3.5956,-3.5614,-3.5438,-3.5418,-3.5418,-3.5418,-3.5418,-3.5418,-3.5418,-3.5418,-3.5418,-3.5418,-3.5418,-3.5418,-3.5418,-3.5418,-3.5418,-3.5418,-3.5418,-3.5418,-2.1681,-2.1768,-2.1944,0.0,0.0,0.0,0.0,0.0,0.0,0.0,0.0,0.0,0.0,0.0,0.0,0.0,-2.7913,-2.874,-3.0692,-3.0865,-3.0972,-3.1534,-3.0954,-3.0381,-3.0186,-2.9421,-2.8988,-2.8988,-2.9176,-2.9307,-2.9307,-2.9307,-2.9307,-2.9307,-2.9307,-2.9307,-2.9307,-2.9307,-2.9307,-2.9307,-2.9307,-2.9307,-2.9373,-3.0779,-3.1607,-3.2001,-3.3713,-3.46,-3.4922,-3.5294,-3.5418,-3.5418,-3.5418,-3.5418,-3.5418,-3.5418,-3.5418,-3.5418,-3.5418,-3.5418,-3.5418,-3.5418,-3.5418,-3.5418,-3.5418,-3.5418,-3.5418,-3.5418,-3.5418,-3.5418,-3.5418,-3.5418,-3.5418,-3.5418,-3.5418,-3.5418,-3.5418,-3.517,-3.4922,-3.4922,-3.4662,-3.4516,-3.4657,-3.4826,-3.5075,-3.5534,-3.5798,-3.6008,-3.6328,-3.609,-3.5894,-3.5894,-3.5614,-3.5294,-3.4922,-3.5232,-3.5232,-3.4922,-3.4922,-3.5046,-3.5366,-3.5418,-3.5418,-3.5418,-3.5418,-3.5418,-3.5418,-3.5108,-3.4922,-3.4922,-3.46,-3.4475,-2.1531,-2.1596,0.0,0.0,0.0,0.0,0.0,0.0,0.0,0.0,0.0,0.0,-2.5238,0.0,0.0,-2.7038,-2.7438,-2.8093,-2.9125,-3.0148,-3.052,-2.9844,-2.977,-2.9509,-2.878,-2.8436,-2.8263,-2.8263,-2.8922,-2.9307,-2.9307,-2.9307,-2.9307,-2.9307,-2.9307,-2.9307,-2.9307,-2.9307,-2.9307,-2.9307,-2.9316,-2.9307,-2.9307,-2.9307,-2.9887,-3.0852,-3.1937,-3.2956,-3.3985,-3.4984,-3.5366,-3.5366,-3.5418,-3.5418,-3.5366,-3.5418,-3.5418,-3.5418,-3.5418,-3.5418,-3.5418,-3.5418,-3.5418,-3.5418,-3.5418,-3.5418,-3.5418,-3.5366,-3.5366,-3.5356,-3.5356,-3.5356,-3.5356,-3.5418,-3.5366,-3.5356,-3.5356,-3.461,-3.3859,-3.3859,-3.3082,-3.2571,-3.2998,-3.3564,-3.407,-3.4507,-3.5082,-3.5418,-3.5366,-3.5356,-3.5356,-3.5356,-3.5356,-3.4984,-3.3985,-3.4797,-3.4922,-3.3922,-3.3859,-3.436,-3.5356,-3.5356,-3.5356,-3.5356,-3.5356,-3.5356,-3.5356,-3.436,-3.3859,-3.3859,-3.2892,-3.2374,-2.1617,0.0,0.0,0.0,0.0,0.0,0.0,0.0,0.0,0.0,0.0,0.0,-2.4416,0.0,0.0,-2.5776,-2.6877,-2.7703,-2.7808,-2.8905,-2.9299,-2.8106,-2.8444,-2.8436,-2.7708,-2.7592,-2.7533,-2.7533,-2.7733,-2.7791,-2.7791,-2.7791,-2.7791,-2.7791,-2.7791,-2.7791,-2.7791,-2.7791,-2.7791,-2.7865,-2.8329,-2.8856,-2.9307,-3.0018,-3.0538,-3.0852,-3.1937,-3.2575,-3.2892,-3.3912,-3.436,-3.4423,-3.5108,-3.4984,-3.4423,-3.5108,-3.5418,-3.5418,-3.5418,-3.5418,-3.5418,-3.5418,-3.5418,-3.5418,-3.5418,-3.5418,-3.5232,-3.4548,-3.436,-3.4163,-3.3461,-3.3272,-3.3641,-3.5036,-3.434,-3.3461,-3.4163,-3.3524,-3.2829,-3.2829,-3.3155,-3.351,-3.3647,-3.4378,-3.5025,-3.5168,-3.5325,-3.517,-3.4423,-3.3713,-3.3587,-3.4298,-3.3713,-3.3461,-3.3859,-3.3524,-3.3136,-3.2892,-3.2829,-3.3272,-3.4298,-3.365,-3.3272,-3.3272,-3.3272,-3.3272,-3.3272,-3.3019,-3.2829,-3.2829,-3.2511,-3.2374,-2.1531,0.0,0.0,0.0,0.0,0.0,0.0,0.0,0.0,0.0,0.0,0.0,-2.4134,-2.4818,0.0,-2.5571,-2.6384,-2.707,-2.7169,-2.7923,-2.8056,-2.6926,-2.7193,-2.7126,-2.6465,-2.6592,-2.6792,-2.6792,-2.7,-2.72,-2.72,-2.72,-2.72,-2.72,-2.72,-2.72,-2.72,-2.72,-2.72,-2.7208,-2.7666,-2.8064,-2.8518,-2.9691,-3.0399,-3.0852,-3.1937,-3.2374,-3.2438,-3.3019,-3.3282,-3.3335,-3.3965,-3.3839,-3.3408,-3.3965,-3.4215,-3.4278,-3.4673,-3.4797,-3.4859,-3.5294,-3.5418,-3.5418,-3.5418,-3.5108,-3.4673,-3.4047,-3.3922,-3.3786,-3.3146,-3.2702,-3.2702,-3.3902,-3.3587,-3.3146,-3.3796,-3.3408,-3.2892,-3.2511,-3.2575,-3.2511,-3.2128,-3.2883,-3.3578,-3.3578,-3.3965,-3.3965,-3.3408,-3.2765,-3.2638,-3.3209,-3.2765,-3.2447,-3.2638,-3.2511,-3.2247,-3.1809,-3.1744,-3.2065,-3.2638,-3.2511,-3.2374,-3.2374,-3.2374,-3.2374,-3.2374,-3.2001,-3.1744,-3.1744,-3.1203,-3.0938,0.0,0.0,0.0,0.0,0.0,0.0,0.0,0.0,0.0,0.0,0.0,0.0,-2.4108,-2.4515,-2.5149,-2.5808,-2.5971,-2.6278,-2.6926,-2.7134,-2.6926,-2.6107,-2.604,-2.5846,-2.5194,-2.5644,-2.604,-2.604,-2.6658,-2.7,-2.7,-2.7,-2.7,-2.7,-2.7,-2.7,-2.7,-2.7,-2.7,-2.7,-2.7067,-2.7067,-2.7134,-2.8518,-2.9626,-3.0658,-3.1616,-3.2119,-3.2247,-3.2247,-3.2247,-3.2256,-3.2374,-3.2374,-3.2374,-3.2374,-3.2447,-3.2702,-3.3597,-3.3922,-3.4047,-3.5046,-3.5418,-3.5418,-3.5418,-3.4673,-3.3859,-3.3796,-3.366,-3.3607,-3.3471,-3.2829,-3.2119,-3.2119,-3.2829,-3.3534,-3.3607,-3.3534,-3.3219,-3.232,-3.1423,-3.0529,-2.9569,-3.0278,-3.0917,-3.0917,-3.168,-3.2247,-3.2247,-3.2183,-3.2128,-3.2247,-3.2192,-3.1744,-3.0852,-3.1616,-3.168,-3.0723,-3.0658,-3.0658,-3.0658,-3.1616,-3.2119,-3.2119,-3.2119,-3.2119,-3.2128,-3.1139,-3.0613,-3.0604,-2.9339,-2.8725,0.0,0.0,0.0,0.0,0.0,0.0,0.0,0.0,0.0,0.0,0.0,0.0,-2.3355,-2.3624,-2.4043,-2.4488,-2.5181,-2.5669,-2.5555,-2.6532,-2.6733,-2.5457,-2.5779,-2.5846,-2.5194,-2.5255,-2.5322,-2.5322,-2.5457,-2.5524,-2.5524,-2.5524,-2.5524,-2.5524,-2.5524,-2.5524,-2.5524,-2.5524,-2.5524,-2.5592,-2.6115,-2.6308,-2.6375,-2.7259,-2.8064,-2.8848,-2.9102,-2.9944,-3.1111,-3.1111,-3.1111,-3.124,-3.2055,-3.2374,-3.2374,-3.2374,-3.2892,-3.3607,-3.3796,-3.3922,-3.4047,-3.5046,-3.5418,-3.5418,-3.5418,-3.4673,-3.3733,-3.2956,-3.2128,-3.1295,-3.0464,-3.0148,-2.9952,-2.9952,-3.0148,-3.0529,-3.1304,-3.0852,-3.0213,-3.0018,-3.0399,-3.0723,-3.0529,-3.1359,-3.2065,-3.2065,-3.1552,-3.1111,-3.1111,-3.0464,-3.0269,-3.1046,-3.0464,-3.0213,-3.0723,-3.0278,-2.9887,-2.9635,-2.9635,-2.9635,-2.9635,-2.9822,-2.9952,-2.9952,-2.9952,-2.9952,-2.9952,-2.9478,-2.9211,-2.9202,-2.8621,-2.8323,0.0,0.0,0.0,0.0,0.0,0.0,0.0,0.0,0.0,0.0,0.0,-2.3106,-2.3106,-2.3376,-2.3654,-2.3823,-2.444,-2.4898,-2.4841,-2.5486,-2.5747,-2.5172,-2.539,-2.545,-2.5119,-2.5127,-2.5127,-2.5127,-2.5127,-2.5127,-2.5127,-2.5127,-2.5127,-2.5127,-2.5127,-2.5127,-2.5127,-2.5127,-2.5127,-2.5127,-2.545,-2.5644,-2.5644,-2.6733,-2.74,-2.7799,-2.7799,-2.8254,-2.9094,-2.9094,-2.929,-2.9691,-3.0195,-3.0649,-3.0908,-3.0908,-3.123,-3.1744,-3.2256,-3.2447,-3.2575,-3.365,-3.3965,-3.3965,-3.3965,-3.3209,-3.232,-3.1809,-3.124,-3.0658,-3.0148,-3.0018,-3.0018,-3.0018,-3.0018,-3.0148,-3.0658,-3.0788,-3.0649,-3.0148,-3.0464,-3.0658,-3.0148,-3.0269,-3.0455,-3.0455,-2.9674,-2.9094,-2.9094,-2.865,-2.8518,-2.9028,-2.8576,-2.8518,-2.9028,-2.8584,-2.832,-2.832,-2.832,-2.8246,-2.8064,-2.8056,-2.8391,-2.9059,-2.9059,-2.8827,-2.8308,-2.846,-2.8367,-2.8022,-2.7966,-2.7912,0.0,0.0,0.0,0.0,0.0,0.0,0.0,0.0,0.0,0.0,0.0,-2.3106,-2.3106,-2.3325,-2.353,-2.3588,-2.3823,-2.4108,-2.4437,-2.4481,-2.465,-2.4854,-2.4958,-2.4958,-2.4958,-2.5009,-2.5039,-2.5039,-2.509,-2.5127,-2.5127,-2.5127,-2.5127,-2.5127,-2.5127,-2.5127,-2.5127,-2.5127,-2.5127,-2.5127,-2.5127,-2.5127,-2.5119,-2.6331,-2.6934,-2.7,-2.7,-2.7067,-2.72,-2.72,-2.7533,-2.813,-2.813,-2.8584,-2.9168,-2.8979,-2.9045,-2.9364,-3.026,-3.052,-3.0649,-3.1799,-3.211,-3.2046,-3.2046,-3.1286,-3.0455,-3.0455,-3.0325,-3.0204,-3.0204,-3.0204,-3.0204,-3.0204,-3.0204,-3.0269,-3.0464,-3.1166,-3.1423,-3.0529,-3.0269,-2.9878,-2.9111,-2.8461,-2.813,-2.813,-2.76,-2.72,-2.72,-2.72,-2.72,-2.72,-2.72,-2.72,-2.72,-2.72,-2.72,-2.72,-2.7145,-2.6978,-2.6684,-2.6613,-2.7141,-2.8251,-2.8319,-2.7928,-2.7029,-2.7542,-2.7453,-2.6923,-2.7122,-2.714,0.0,0.0,0.0,0.0,0.0,0.0,0.0,0.0,0.0,0.0,0.0,-2.3106,-2.3106,-2.3142,-2.3267,-2.3552,-2.3632,-2.3771,-2.4101,-2.4145,-2.4166,-2.421,-2.421,-2.421,-2.421,-2.4466,-2.4701,-2.4701,-2.4965,-2.5127,-2.5127,-2.5127,-2.5127,-2.5127,-2.5127,-2.5127,-2.5127,-2.5127,-2.5127,-2.5127,-2.5127,-2.5127,-2.5127,-2.5262,-2.5719,-2.6241,-2.6241,-2.6584,-2.72,-2.72,-2.7267,-2.7334,-2.7334,-2.7907,-2.8657,-2.7783,-2.8031,-2.892,-2.9648,-2.9509,-2.9239,-3.0927,-3.0983,-3.0522,-3.0522,-2.9817,-2.8977,-2.8977,-2.8353,-2.7658,-2.7658,-2.7658,-2.7658,-2.7658,-2.7658,-2.799,-2.9242,-2.9176,-2.8782,-2.865,-2.8122,-2.7658,-2.7533,-2.74,-2.7334,-2.7334,-2.7267,-2.72,-2.72,-2.72,-2.72,-2.72,-2.72,-2.72,-2.72,-2.72,-2.72,-2.72,-2.6914,-2.6724,-2.6676,-2.6447,-2.62,-2.6149,-2.6375,-2.6448,-2.6336,-2.615,-2.6005,-2.5864,-2.5582,-2.5421,0.0,0.0,0.0,0.0,0.0,0.0,0.0,0.0,0.0,0.0,-2.3106,-2.3106,-2.3106,-2.3106,-2.3157,-2.3303,-2.3325,-2.3435,-2.3764,-2.3808,-2.3874,-2.4064,-2.4086,-2.4086,-2.4086,-2.421,-2.4298,-2.4298,-2.443,-2.451,-2.451,-2.451,-2.451,-2.451,-2.451,-2.451,-2.451,-2.451,-2.451,-2.451,-2.476,-2.4848,-2.4855,-2.5039,-2.5255,-2.5517,-2.5517,-2.5719,-2.5996,-2.5996,-2.6257,-2.6584,-2.6584,-2.711,-2.7833,-2.7392,-2.7451,-2.7899,-2.823,-2.8163,-2.7965,-2.874,-2.8806,-2.8543,-2.8543,-2.8221,-2.7833,-2.7833,-2.7517,-2.72,-2.72,-2.72,-2.72,-2.72,-2.72,-2.74,-2.799,-2.7865,-2.7666,-2.7666,-2.74,-2.72,-2.72,-2.6859,-2.6584,-2.6584,-2.6257,-2.5996,-2.5996,-2.5996,-2.5996,-2.5996,-2.5996,-2.5996,-2.5996,-2.5996,-2.5912,-2.5789,-2.5571,-2.532,-2.5005,-2.4845,-2.4609,-2.4267,-2.5352,-2.5628,-2.4991,-2.5281,-2.5139,-2.4828,-2.499,-2.5111,0.0,0.0,0.0,0.0,0.0,0.0,0.0,0.0,0.0,0.0,-2.3054,-2.3106,-2.3106,-2.3106,-2.3106,-2.3106,-2.3106,-2.3193,-2.3435,-2.3471,-2.3567,-2.3808,-2.3837,-2.3837,-2.3837,-2.391,-2.3962,-2.3962,-2.4035,-2.4086,-2.4086,-2.4086,-2.4086,-2.4086,-2.4086,-2.4086,-2.4086,-2.4086,-2.4086,-2.4086,-2.4327,-2.4444,-2.4459,-2.4701,-2.4877,-2.4885,-2.5053,-2.5127,-2.5127,-2.5127,-2.5382,-2.5846,-2.5846,-2.6182,-2.6666,-2.6666,-2.6666,-2.6666,-2.6859,-2.68,-2.6666,-2.6867,-2.68,-2.6666,-2.6666,-2.6666,-2.6666,-2.6666,-2.6666,-2.6666,-2.6666,-2.6666,-2.6666,-2.6666,-2.6666,-2.6733,-2.6859,-2.6926,-2.6867,-2.6733,-2.6666,-2.6666,-2.6666,-2.6182,-2.5846,-2.5846,-2.545,-2.5127,-2.5127,-2.5127,-2.5127,-2.5127,-2.5127,-2.5127,-2.5127,-2.5046,-2.4899,-2.465,-2.4415,-2.4101,-2.3618,-2.3515,-2.3354,-2.3113,-2.4352,-2.4664,-2.386,-2.4355,-2.4355,-2.386,-2.4363,-2.461,0.0,0.0,0.0,0.0,0.0,0.0,0.0,0.0,0.0,0.0,-2.2893,-2.3106,-2.3106,-2.3106,-2.3106,-2.3106,-2.3106,-2.3113,-2.3135,-2.3135,-2.3142,-2.3157,-2.3157,-2.3157,-2.3157,-2.3435,-2.3618,-2.3618,-2.391,-2.4086,-2.4086,-2.4086,-2.4086,-2.4086,-2.4086,-2.4086,-2.4086,-2.4086,-2.4086,-2.4086,-2.4101,-2.4108,-2.4108,-2.413,-2.413,-2.4166,-2.4788,-2.5127,-2.5127,-2.5127,-2.5127,-2.5119,-2.5119,-2.5194,-2.5187,-2.5187,-2.5187,-2.5322,-2.5913,-2.5712,-2.5322,-2.5973,-2.5712,-2.5187,-2.5187,-2.5187,-2.5187,-2.5187,-2.5187,-2.5187,-2.5187,-2.5187,-2.5187,-2.5187,-2.5187,-2.539,-2.604,-2.6174,-2.5973,-2.5322,-2.5187,-2.5187,-2.5187,-2.5187,-2.5119,-2.5119,-2.5127,-2.5127,-2.5127,-2.5127,-2.5127,-2.5127,-2.5127,-2.5127,-2.5127,-2.4841,-2.465,-2.4569,-2.3991,-2.3632,-2.3596,-2.3296,-2.3128,-2.3106,-2.319,-2.319,-2.3168,-2.3175,-2.3175,-2.3168,-2.3168,-2.3168,0.0,0.0,0.0,0.0,0.0,0.0,0.0,0.0,0.0,0.0,-2.2718,-2.2857,-2.3069,-2.3106,-2.3106,-2.3106,-2.3106,-2.3106,-2.3106,-2.3106,-2.3106,-2.3106,-2.3106,-2.3106,-2.3106,-2.3215,-2.3281,-2.3281,-2.3391,-2.3457,-2.3457,-2.3457,-2.3457,-2.3457,-2.3457,-2.3457,-2.3457,-2.3457,-2.3457,-2.3464,-2.3669,-2.3771,-2.3779,-2.3984,-2.4086,-2.4093,-2.4327,-2.4547,-2.4811,-2.4811,-2.4936,-2.5127,-2.5127,-2.5127,-2.5127,-2.5127,-2.5127,-2.5119,-2.5382,-2.5322,-2.5119,-2.5382,-2.5322,-2.5127,-2.5127,-2.5127,-2.5127,-2.5127,-2.5127,-2.5127,-2.5127,-2.5127,-2.5127,-2.5127,-2.5127,-2.5194,-2.539,-2.545,-2.539,-2.5127,-2.5127,-2.5127,-2.5127,-2.5127,-2.5127,-2.5127,-2.5127,-2.5127,-2.5127,-2.5127,-2.5127,-2.5127,-2.5127,-2.5039,-2.4826,-2.4642,-2.4393,-2.3969,-2.3727,-2.3501,-2.3288,-2.3171,-2.3106,-2.3106,-2.3106,-2.3106,-2.3106,-2.3106,-2.3106,-2.3106,-2.3106,-2.3106,0.0,0.0,0.0,0.0,0.0,0.0,0.0,0.0,0.0,0.0,-2.2476,-2.2689,-2.2908,-2.3032,-2.3106,-2.3106,-2.3106,-2.3106,-2.3106,-2.3106,-2.3106,-2.3106,-2.3106,-2.3106,-2.3106,-2.3106,-2.3106,-2.3106,-2.3106,-2.3106,-2.3106,-2.3106,-2.3106,-2.3106,-2.3106,-2.3106,-2.3106,-2.3106,-2.3106,-2.3113,-2.3325,-2.3435,-2.3442,-2.3654,-2.3757,-2.3757,-2.3757,-2.4005,-2.4408,-2.4408,-2.4532,-2.473,-2.473,-2.473,-2.473,-2.473,-2.473,-2.473,-2.473,-2.473,-2.473,-2.473,-2.473,-2.473,-2.473,-2.473,-2.473,-2.473,-2.473,-2.4826,-2.4936,-2.5046,-2.5127,-2.5127,-2.5127,-2.5127,-2.5127,-2.5127,-2.5127,-2.5127,-2.5127,-2.5127,-2.5127,-2.5127,-2.5127,-2.5127,-2.5127,-2.5127,-2.5127,-2.5127,-2.5127,-2.5127,-2.5024,-2.487,-2.4591,-2.4364,-2.4057,-2.3625,-2.3493,-2.3332,-2.312,-2.3106,-2.3106,-2.3106,-2.3106,-2.3106,-2.3106,-2.3106,-2.3106,-2.3106,-2.3106,-2.3164,0.0,0.0,0.0,0.0,0.0,0.0,0.0,0.0,0.0,-2.1707,-2.2162,-2.2601,-2.2608,-2.2871,-2.3091,-2.3091,-2.3098,-2.3106,-2.3106,-2.3106,-2.3106,-2.3106,-2.3106,-2.3106,-2.3106,-2.3106,-2.3106,-2.3106,-2.3106,-2.3106,-2.3106,-2.3106,-2.3106,-2.3106,-2.3106,-2.3106,-2.3106,-2.3106,-2.3106,-2.3106,-2.3106,-2.3106,-2.3106,-2.3106,-2.3106,-2.3106,-2.3106,-2.3471,-2.4057,-2.4064,-2.4071,-2.4086,-2.4086,-2.4086,-2.4086,-2.4086,-2.4086,-2.4086,-2.4086,-2.4086,-2.4086,-2.4086,-2.4086,-2.4086,-2.4086,-2.4086,-2.4086,-2.4086,-2.4086,-2.4152,-2.4474,-2.4855,-2.5097,-2.5097,-2.5097,-2.5097,-2.5105,-2.5112,-2.5112,-2.5127,-2.5127,-2.5127,-2.5127,-2.5127,-2.5127,-2.5127,-2.5127,-2.5127,-2.5127,-2.5127,-2.5119,-2.5112,-2.4759,-2.4562,-2.454,-2.3962,-2.3596,-2.3581,-2.3281,-2.3106,-2.3106,-2.3106,-2.3106,-2.3106,-2.3106,-2.3106,-2.3106,-2.3106,-2.3113,-2.3128,-2.3135,-2.331,-2.0292,0.0,0.0,0.0,0.0,0.0,0.0,0.0,0.0,-2.1739,-2.1844,-2.2023,-2.2264,-2.255,-2.2754,-2.2754,-2.2952,-2.3106,-2.3106,-2.3106,-2.3106,-2.3106,-2.3106,-2.3106,-2.3106,-2.3106,-2.3106,-2.3106,-2.3106,-2.3106,-2.3106,-2.3106,-2.3106,-2.3106,-2.3106,-2.3106,-2.3106,-2.3106,-2.3106,-2.3106,-2.3106,-2.3106,-2.3106,-2.3106,-2.3106,-2.3106,-2.3106,-2.3208,-2.3398,-2.3632,-2.3866,-2.4086,-2.4086,-2.4086,-2.4086,-2.4086,-2.4086,-2.4086,-2.4086,-2.4086,-2.4086,-2.4086,-2.4086,-2.4086,-2.4086,-2.4086,-2.4086,-2.4086,-2.4086,-2.4101,-2.4188,-2.4284,-2.4349,-2.4349,-2.4349,-2.4415,-2.4723,-2.4767,-2.4841,-2.5075,-2.5127,-2.5127,-2.5127,-2.5127,-2.5127,-2.5127,-2.5127,-2.5127,-2.5127,-2.5127,-2.5031,-2.473,-2.4687,-2.4379,-2.3903,-2.3698,-2.3493,-2.3259,-2.3157,-2.3106,-2.3106,-2.3106,-2.3106,-2.3106,-2.3106,-2.3106,-2.3106,-2.3106,-2.323,-2.3464,-2.3698,-2.3866,0.0,0.0,0.0,0.0,0.0,0.0,-2.1153,-2.1291,-2.1423,0.0,-2.1623,-2.1752,-2.1942,-2.2228,-2.244,-2.244,-2.2601,-2.2813,-2.3069,-2.3106,-2.3106,-2.3106,-2.3106,-2.3106,-2.3106,-2.3106,-2.3106,-2.3106,-2.3106,-2.3106,-2.3106,-2.3106,-2.3106,-2.3106,-2.3106,-2.3106,-2.3106,-2.3106,-2.3106,-2.3106,-2.3106,-2.3106,-2.3106,-2.3106,-2.3106,-2.3106,-2.3106,-2.3106,-2.3128,-2.3318,-2.3508,-2.3676,-2.3676,-2.3676,-2.3676,-2.3676,-2.3676,-2.3676,-2.3676,-2.3676,-2.3676,-2.3676,-2.3676,-2.3676,-2.3676,-2.3676,-2.3676,-2.3676,-2.3771,-2.3881,-2.3881,-2.3984,-2.4086,-2.4086,-2.4086,-2.4137,-2.4327,-2.4364,-2.4503,-2.5031,-2.5127,-2.5127,-2.5127,-2.5127,-2.5075,-2.4943,-2.4921,-2.487,-2.4664,-2.4649,-2.4576,-2.4386,-2.4247,-2.4005,-2.3625,-2.3471,-2.331,-2.312,-2.3106,-2.3106,-2.3106,-2.3106,-2.3106,-2.3106,-2.3106,-2.3106,-2.3106,-2.3245,-2.3479,-2.3808,-2.4137,-2.4284,0.0,0.0,0.0,-2.0699,-2.1024,0.0,-2.1147,-2.135,-2.1457,-2.1307,-2.1452,-2.1654,-2.1654,-2.1928,-2.2149,-2.2149,-2.2179,-2.2346,-2.2915,-2.3003,-2.3018,-2.3054,-2.3054,-2.3069,-2.3106,-2.3106,-2.3106,-2.3106,-2.3106,-2.3106,-2.3106,-2.3106,-2.3106,-2.3106,-2.3106,-2.3106,-2.3106,-2.3106,-2.3106,-2.3106,-2.3106,-2.3106,-2.3106,-2.3106,-2.3106,-2.3106,-2.3106,-2.3106,-2.3106,-2.3106,-2.3106,-2.3106,-2.3106,-2.3106,-2.3106,-2.3106,-2.3106,-2.3106,-2.3106,-2.3106,-2.3106,-2.3106,-2.3106,-2.3106,-2.3106,-2.3106,-2.3106,-2.3106,-2.3318,-2.3545,-2.3545,-2.3757,-2.3976,-2.3976,-2.3976,-2.3984,-2.402,-2.4027,-2.421,-2.4899,-2.5017,-2.5017,-2.5017,-2.5017,-2.4914,-2.4554,-2.4518,-2.4415,-2.4123,-2.4086,-2.4071,-2.4035,-2.3771,-2.3581,-2.3545,-2.3274,-2.3106,-2.3106,-2.3106,-2.3106,-2.3106,-2.3106,-2.3106,-2.3106,-2.3106,-2.3128,-2.3164,-2.3493,-2.3779,-2.4035,-2.4364,-2.4518,-2.0317,-2.0337,-2.0428,-2.0654,-2.0871,0.0,-2.1313,-2.1483,-2.1567,0.0,-2.1544,-2.153,-2.153,-2.1666,-2.1742,-2.1742,-2.1877,-2.2072,-2.2332,-2.2367,-2.2454,-2.2689,-2.2718,-2.282,-2.3084,-2.3106,-2.3106,-2.3106,-2.3106,-2.3106,-2.3106,-2.3106,-2.3106,-2.3106,-2.3106,-2.3106,-2.3106,-2.3106,-2.3106,-2.3106,-2.3106,-2.3106,-2.3106,-2.3106,-2.3106,-2.3106,-2.3106,-2.3106,-2.3106,-2.3106,-2.3106,-2.3106,-2.3106,-2.3106,-2.3106,-2.3106,-2.3106,-2.3106,-2.3106,-2.3106,-2.3106,-2.3106,-2.3106,-2.3106,-2.3106,-2.3106,-2.3106,-2.3106,-2.3157,-2.3201,-2.3201,-2.3252,-2.3303,-2.3303,-2.3303,-2.3369,-2.3632,-2.3691,-2.3808,-2.4196,-2.4276,-2.4276,-2.4276,-2.4276,-2.4247,-2.4188,-2.4174,-2.4152,-2.4093,-2.4086,-2.3984,-2.372,-2.3632,-2.3493,-2.323,-2.3142,-2.3106,-2.3106,-2.3106,-2.3106,-2.3106,-2.3106,-2.3106,-2.3106,-2.3106,-2.3237,-2.3501,-2.383,-2.3881,-2.3698,-2.4027,-2.4174,-2.0351,-2.0382,-2.0518,-2.0654,-2.0871,0.0,0.0,-2.1281,-2.1372,-2.1353,-2.1419,-2.1471,-2.1326,-2.1317,-2.1334,-2.1171,-2.1318,-2.143,-2.1438,-2.1911,-2.2242,-2.2389,-2.2403,-2.2469,-2.263,-2.2645,-2.2645,-2.2645,-2.2645,-2.271,-2.2857,-2.2864,-2.2945,-2.3106,-2.3106,-2.3106,-2.3106,-2.3106,-2.3106,-2.3106,-2.3106,-2.3106,-2.3106,-2.3106,-2.3106,-2.3106,-2.3106,-2.3106,-2.3106,-2.3106,-2.3106,-2.3106,-2.3106,-2.3106,-2.3106,-2.3106,-2.3106,-2.3106,-2.3106,-2.3106,-2.3106,-2.3106,-2.3106,-2.3106,-2.3106,-2.3106,-2.3106,-2.3106,-2.3106,-2.3106,-2.3106,-2.3106,-2.3106,-2.3106,-2.3106,-2.3157,-2.3318,-2.3354,-2.3398,-2.3567,-2.3596,-2.3698,-2.4027,-2.4086,-2.4027,-2.3866,-2.3837,-2.3779,-2.3618,-2.3596,-2.3537,-2.3369,-2.3354,-2.3288,-2.312,-2.3106,-2.3106,-2.3106,-2.3106,-2.3106,-2.3106,-2.3106,-2.3106,-2.3106,-2.3267,-2.3354,-2.3354,-2.3684,-2.3837,-2.3845,-2.4005,-2.4086,-2.0348,-2.0473,-2.0609,-2.0609,-2.0781,-2.0939,0.0,0.0,0.0,-2.1139,-2.1312,0.0,0.0,0.0,0.0,-2.0738,0.0,0.0,0.0,-2.1359,0.0,-2.1993,-2.2053,-2.2126,-2.2112,-2.2164,-2.2164,-2.2176,-2.2186,-2.2267,-2.252,-2.2535,-2.2681,-2.3003,-2.3018,-2.3047,-2.3106,-2.3106,-2.3106,-2.3106,-2.3106,-2.3106,-2.3106,-2.3106,-2.3106,-2.3106,-2.3106,-2.3106,-2.3106,-2.3106,-2.3106,-2.3106,-2.3106,-2.3106,-2.3106,-2.3106,-2.3106,-2.3106,-2.3106,-2.3106,-2.3106,-2.3106,-2.3106,-2.3106,-2.3106,-2.3106,-2.3106,-2.3106,-2.3106,-2.3106,-2.3106,-2.3106,-2.3106,-2.3106,-2.3106,-2.3106,-2.3106,-2.3106,-2.3106,-2.3106,-2.3106,-2.3274,-2.3801,-2.3896,-2.3808,-2.3545,-2.3501,-2.3406,-2.3142,-2.3106,-2.3106,-2.3106,-2.3106,-2.3106,-2.3106,-2.3106,-2.3106,-2.3106,-2.3106,-2.3106,-2.3106,-2.3106,-2.3106,-2.3106,-2.3369,-2.3369,-2.3106,-2.3369,-2.364,-2.3896,-2.3896,-2.3896,-2.0344,-2.0337,-2.0337,-2.0337,-2.0518,-2.0717,-2.0713,0.0,-2.1066,-2.1317,0.0,-2.1126,-2.1335,0.0,0.0,-2.0724,-2.0595,-2.0557,-2.0524,-2.071,-2.1002,-2.1261,-2.1602,-2.1803,-2.1944,-2.1914,-2.1997,-2.22,-2.2036,-2.2027,-2.2258,-2.2235,-2.2374,-2.2667,-2.2681,-2.282,-2.3106,-2.3106,-2.3106,-2.3106,-2.3106,-2.3106,-2.3106,-2.3106,-2.3106,-2.3106,-2.3106,-2.3106,-2.3106,-2.3106,-2.3106,-2.3106,-2.3106,-2.3106,-2.3106,-2.3106,-2.3106,-2.3106,-2.3106,-2.3106,-2.3106,-2.3106,-2.3106,-2.3106,-2.3106,-2.3106,-2.3106,-2.3106,-2.3106,-2.3106,-2.3106,-2.3106,-2.3106,-2.3106,-2.3106,-2.3106,-2.3106,-2.3106,-2.3106,-2.3106,-2.3106,-2.3135,-2.3208,-2.3215,-2.3208,-2.3171,-2.3164,-2.3149,-2.3113,-2.3106,-2.3106,-2.3106,-2.3106,-2.3106,-2.3106,-2.3106,-2.3106,-2.3106,-2.3106,-2.3106,-2.3106,-2.3106,-2.3106,-2.3106,-2.3142,-2.3142,-2.3106,-2.3142,-2.3186,-2.3215,-2.3215,-2.3215,-2.0344,-2.0378,-2.0411,-2.0303,-2.0432,-2.0543,-2.0486,-2.0645,-2.0871,-2.0979,0.0,0.0,0.0,0.0,0.0,0.0,-2.0486,-2.0479,0.0,0.0,-2.0743,-2.0885,-2.1055,-2.1184,-2.1387,-2.1429,-2.1543,-2.1598,-2.153,-2.1632,-2.1876,-2.1898,-2.2045,-2.2359,-2.2367,-2.2513,-2.2828,-2.2828,-2.2923,-2.3106,-2.3106,-2.3106,-2.3106,-2.3106,-2.3106,-2.3106,-2.3106,-2.3106,-2.3106,-2.3106,-2.3106,-2.3106,-2.3106,-2.3106,-2.3106,-2.3106,-2.3106,-2.3106,-2.3106,-2.3106,-2.3106,-2.3106,-2.3106,-2.3106,-2.3106,-2.3106,-2.3106,-2.3106,-2.3106,-2.3106,-2.3106,-2.3106,-2.3106,-2.3106,-2.3106,-2.3106,-2.3106,-2.3106,-2.3106,-2.3106,-2.3106,-2.3106,-2.3106,-2.3106,-2.3106,-2.3106,-2.3106,-2.3106,-2.3106,-2.3106,-2.3106,-2.3106,-2.3106,-2.3106,-2.3106,-2.3106,-2.3106,-2.3106,-2.3106,-2.3106,-2.3106,-2.3106,-2.3106,-2.3106,-2.3106,-2.3106,-2.3106,-2.3106,-2.3106,-2.3106,-2.3106,-2.3106,-2.0436,-2.042,-2.0462,-2.0334,-2.037,-2.0434,-2.032,-2.0473,-2.0609,-2.0699,-2.0781,0.0,0.0,0.0,-2.0518,-2.0337,0.0,-2.0392,-2.0315,-2.0454,-2.057,-2.057,-2.0638,-2.0731,-2.0917,-2.0995,-2.1085,-2.1158,-2.1173,-2.1294,-2.154,-2.1562,-2.1715,-2.2045,-2.2052,-2.2191,-2.2498,-2.2579,-2.274,-2.2974,-2.3062,-2.3106,-2.3106,-2.3106,-2.3106,-2.3106,-2.3106,-2.3106,-2.3106,-2.3106,-2.3106,-2.3106,-2.3106,-2.3106,-2.3106,-2.3106,-2.3106,-2.3106,-2.3106,-2.3106,-2.3106,-2.3106,-2.3106,-2.3106,-2.3106,-2.3106,-2.3106,-2.3106,-2.3106,-2.3106,-2.3106,-2.3106,-2.3106,-2.3106,-2.3106,-2.3106,-2.3106,-2.3106,-2.3106,-2.3106,-2.3106,-2.3106,-2.3106,-2.3106,-2.3106,-2.3106,-2.3106,-2.3106,-2.3106,-2.3106,-2.3106,-2.3106,-2.3106,-2.3106,-2.3106,-2.3106,-2.3106,-2.3106,-2.3106,-2.3106,-2.3106,-2.3106,-2.3106,-2.3106,-2.3106,-2.3106,-2.3106,-2.3106,-2.3106,-2.3106,-2.3106,-2.3106,-2.0597,-2.0514,-2.0462,-2.0334,-2.0309,-2.0317,-2.0292,-2.0292,-2.0382,-2.0654,-2.0518,-2.0382,-2.0654,-2.0473,-2.0292,-2.0292,-2.0309,0.0,0.0,-2.0289,-2.0315,-2.0315,-2.0429,-2.0556,-2.07,-2.0684,-2.0781,-2.0992,-2.0991,-2.105,-2.1189,-2.1225,-2.1379,-2.1701,-2.1715,-2.1869,-2.2198,-2.2476,-2.263,-2.2645,-2.2959,-2.3106,-2.3106,-2.3106,-2.3106,-2.3106,-2.3106,-2.3106,-2.3106,-2.3106,-2.3106,-2.3106,-2.3106,-2.3106,-2.3106,-2.3106,-2.3106,-2.3106,-2.3106,-2.3106,-2.3106,-2.3106,-2.3106,-2.3106,-2.3106,-2.3106,-2.3106,-2.3106,-2.3106,-2.3106,-2.3106,-2.3106,-2.3106,-2.3106,-2.3106,-2.3106,-2.3106,-2.3106,-2.3106,-2.3106,-2.3106,-2.3106,-2.3106,-2.3106,-2.3106,-2.3106,-2.3106,-2.3106,-2.3106,-2.3106,-2.3106,-2.3106,-2.3106,-2.3106,-2.3106,-2.3106,-2.3106,-2.3106,-2.3106,-2.3106,-2.3106,-2.3106,-2.3106,-2.3106,-2.3106,-2.3106,-2.3106,-2.3106,-2.3106,-2.3106,-2.3106,-2.3106,-2.1032,-2.107,-2.1042,-2.0531,-2.0482,-2.0532,-2.0331,-2.0292,-2.0337,-2.0428,-2.0382,-2.0337,-2.0428,-2.0382,-2.0292,-2.0292,-2.0292,-2.0292,0.0,-2.0292,-2.0292,-2.0292,-2.0426,-2.0492,-2.0392,-2.0698,-2.0857,-2.076,-2.0966,-2.1146,-2.1196,-2.1211,-2.1262,-2.1372,-2.1379,-2.1533,-2.1862,-2.1957,-2.2213,-2.2623,-2.2732,-2.2901,-2.3106,-2.3106,-2.3106,-2.3106,-2.3106,-2.3106,-2.3106,-2.3106,-2.3106,-2.3106,-2.3106,-2.3106,-2.3106,-2.3106,-2.3106,-2.3106,-2.3106,-2.3106,-2.3106,-2.3106,-2.3106,-2.3106,-2.3106,-2.3106,-2.3106,-2.3106,-2.3106,-2.3106,-2.3106,-2.3106,-2.3106,-2.3106,-2.3106,-2.3106,-2.3106,-2.3106,-2.3106,-2.3106,-2.3106,-2.3106,-2.3106,-2.3106,-2.3106,-2.3106,-2.3106,-2.3106,-2.3106,-2.3106,-2.3106,-2.3106,-2.3106,-2.3106,-2.3106,-2.3106,-2.3106,-2.3106,-2.3106,-2.3106,-2.3106,-2.3106,-2.3106,-2.3106,-2.3106,-2.3106,-2.3106,-2.3106,-2.3106,-2.3106,-2.3106,-2.3106,-2.1511,-2.1539,-2.1555,-2.1043,-2.0888,-2.0833,-2.0595,-2.0454,-2.0361,-2.0361,-2.0334,-2.0317,-2.0412,-2.0365,-2.0332,-2.0365,-2.0234,-2.011,0.0,-2.0073,-2.0073,-2.0073,-2.0209,-2.0307,-2.0329,-2.0491,-2.0597,-2.0738,-2.0896,-2.1075,-2.1196,-2.1211,-2.1211,-2.1211,-2.1211,-2.1313,-2.1525,-2.1642,-2.1898,-2.2293,-2.252,-2.2732,-2.2937,-2.3054,-2.3106,-2.3106,-2.3106,-2.3106,-2.3106,-2.3106,-2.3106,-2.3106,-2.3106,-2.3106,-2.3106,-2.3106,-2.3106,-2.3106,-2.3106,-2.3106,-2.3106,-2.3106,-2.3106,-2.3106,-2.3106,-2.3106,-2.3135,-2.3252,-2.3201,-2.3135,-2.3252,-2.3193,-2.3106,-2.3106,-2.3106,-2.3106,-2.3106,-2.3106,-2.3106,-2.3106,-2.3106,-2.3106,-2.3106,-2.3106,-2.3106,-2.3106,-2.3106,-2.3106,-2.3106,-2.3106,-2.3106,-2.3106,-2.3106,-2.3106,-2.3106,-2.3106,-2.3106,-2.3106,-2.3106,-2.3106,-2.3106,-2.3106,-2.3106,-2.3106,-2.3106,-2.3106,-2.3106,-2.3106,-2.3106,-2.3106,-2.3106,-2.3106]}]]